[[{"header":{"parameterUnit":"m.s-1","parameterCategory":1,"la1":31.0,"la2":29.5877,"lo1":-88.7671,"lo2":-86.6584,"dx":0.0162,"dy":0.0185,"nx":115,"ny":88,"refTime":"2023-02-02T06:00:00:Z","depth":0,"parameterNumber":2,"parameterNumberName":"U-component_of_WINDS"},"data":[0.0,0.0,0.0,0.0,0.0,0.0,0.0,0.0,0.0,0.0,0.0,0.0,0.0,0.0,0.0,0.0,0.0,0.0,0.0,0.0,0.0,0.0,0.0,0.0,0.0,0.0,0.0,0.0,0.0,0.0,0.0,0.0,0.0,0.0,0.0,0.0,0.0,0.0,0.0,0.0,0.0,0.0,0.0,0.0,0.0,0.0,0.0,0.0,0.0,0.0,0.0,0.0,0.0,0.0,0.0,0.0,0.0,0.0,0.0,0.0,0.0,0.0,0.0,0.0,0.0,0.0,0.0,0.0,0.0,0.0,0.0,0.0,0.0,0.0,0.0,0.0,0.0,0.0,0.0,0.0,0.0,0.0,0.0,0.0,0.0,0.0,0.0,0.0,0.0,0.0,0.0,0.0,0.0,0.0,0.0,0.0,0.0,0.0,0.0,0.0,0.0,0.0,0.0,0.0,0.0,0.0,0.0,0.0,0.0,0.0,0.0,0.0,0.0,0.0,0.0,0.0,0.0,0.0,0.0,0.0,0.0,0.0,0.0,0.0,0.0,0.0,0.0,0.0,0.0,0.0,0.0,0.0,0.0,0.0,0.0,0.0,0.0,0.0,0.0,0.0,0.0,0.0,0.0,0.0,0.0,0.0,0.0,0.0,0.0,0.0,0.0,0.0,0.0,0.0,0.0,0.0,0.0,0.0,0.0,0.0,0.0,0.0,0.0,0.0,0.0,0.0,0.0,0.0,0.0,0.0,0.0,0.0,0.0,0.0,0.0,0.0,0.0,0.0,0.0,0.0,0.0,0.0,0.0,0.0,0.0,0.0,0.0,0.0,0.0,0.0,0.0,0.0,0.0,0.0,0.0,0.0,0.0,0.0,0.0,0.0,0.0,0.0,0.0,0.0,0.0,0.0,0.0,0.0,0.0,0.0,0.0,0.0,0.0,0.0,0.0,0.0,0.0,0.0,0.0,0.0,0.0,0.0,0.0,0.0,0.0,0.0,0.0,0.0,0.0,0.0,0.0,0.0,0.0,0.0,0.0,0.0,0.0,0.0,0.0,0.0,0.0,0.0,0.0,0.0,0.0,0.0,0.0,0.0,0.0,0.0,0.0,0.0,0.0,0.0,0.0,0.0,0.0,0.0,0.0,0.0,0.0,0.0,0.0,0.0,0.0,0.0,0.0,0.0,0.0,0.0,0.0,0.0,0.0,0.0,0.0,0.0,0.0,0.0,0.0,0.0,0.0,0.0,0.0,0.0,0.0,0.0,0.0,0.0,0.0,0.0,0.0,0.0,0.0,0.0,0.0,0.0,0.0,0.0,0.0,0.0,0.0,0.0,0.0,0.0,0.0,0.0,0.0,0.0,0.0,0.0,0.0,0.0,0.0,0.0,0.0,0.0,0.0,0.0,0.0,0.0,0.0,0.0,0.0,0.0,0.0,0.0,0.0,0.0,0.0,0.0,0.0,0.0,0.0,0.0,0.0,0.0,0.0,0.0,0.0,0.0,0.0,0.0,0.0,0.0,0.0,0.0,0.0,0.0,0.0,0.0,0.0,0.0,0.0,0.0,0.0,0.0,0.0,0.0,0.0,0.0,0.0,0.0,0.0,0.0,0.0,0.0,0.0,0.0,0.0,0.0,0.0,0.0,0.0,0.0,0.0,0.0,0.0,0.0,0.0,0.0,0.0,0.0,0.0,0.0,0.0,0.0,0.0,0.0,0.0,0.0,0.0,0.0,0.0,0.0,0.0,0.0,0.0,0.0,0.0,0.0,0.0,0.0,0.0,0.0,0.0,0.0,0.0,0.0,0.0,0.0,0.0,0.0,0.0,0.0,0.0,0.0,0.0,0.0,0.0,0.0,0.0,0.0,0.0,0.0,0.0,0.0,0.0,0.0,0.0,0.0,0.0,0.0,0.0,0.0,0.0,0.0,0.0,0.0,0.0,0.0,0.0,0.0,0.0,0.0,0.0,0.0,0.0,0.0,0.0,0.0,0.0,0.0,0.0,0.0,0.0,0.0,0.0,0.0,0.0,0.0,0.0,0.0,0.0,0.0,0.0,0.0,0.0,0.0,0.0,0.0,0.0,0.0,0.0,0.0,0.0,0.0,0.0,0.0,0.0,0.0,0.0,0.0,0.0,0.0,0.0,0.0,0.0,0.0,0.0,0.0,0.0,0.0,0.0,0.0,0.0,0.0,0.0,0.0,0.0,0.0,0.0,0.0,0.0,0.0,0.0,0.0,0.0,0.0,0.0,0.0,0.0,0.0,0.0,0.0,0.0,0.0,0.0,0.0,0.0,0.0,0.0,0.0,0.0,0.0,0.0,0.0,0.0,0.0,0.0,0.0,0.0,0.0,0.0,0.0,0.0,0.0,0.0,0.0,0.0,0.0,0.0,0.0,0.0,0.0,0.0,0.0,0.0,0.0,0.0,0.0,0.0,0.0,0.0,0.0,0.0,0.0,0.0,0.0,0.0,0.0,0.0,0.0,0.0,0.0,0.0,0.0,0.0,0.0,0.0,0.0,0.0,0.0,0.0,0.0,0.0,0.0,0.0,0.0,0.0,0.0,0.0,0.0,0.0,0.0,0.0,0.0,0.0,0.0,0.0,0.0,0.0,0.0,0.0,0.0,0.0,0.0,0.0,0.0,0.0,0.0,0.0,0.0,0.0,0.0,0.0,0.0,0.0,0.0,0.0,0.0,0.0,0.0,0.0,0.0,0.0,0.0,0.0,0.0,0.0,0.0,0.0,0.0,0.0,0.0,0.0,0.0,0.0,0.0,0.0,0.0,0.0,0.0,0.0,0.0,0.0,0.0,0.0,0.0,0.0,0.0,0.0,0.0,0.0,0.0,0.0,0.0,0.0,0.0,0.0,0.0,0.0,0.0,0.0,0.0,0.0,0.0,0.0,0.0,0.0,0.0,0.0,0.0,0.0,0.0,0.0,0.0,0.0,0.0,0.0,0.0,0.0,0.0,0.0,0.0,0.0,0.0,0.0,0.0,0.0,0.0,0.0,0.0,0.0,0.0,0.0,0.0,0.0,0.0,0.0,0.0,0.0,0.0,0.0,0.0,0.0,0.0,0.0,0.0,0.0,0.0,0.0,0.0,0.0,0.0,0.0,0.0,0.0,0.0,0.0,0.0,0.0,0.0,0.0,0.0,0.0,0.0,0.0,0.0,0.0,0.0,0.0,0.0,0.0,0.0,0.0,0.0,0.0,0.0,0.0,0.0,0.0,0.0,0.0,0.0,0.0,0.0,0.0,0.0,0.0,0.0,0.0,0.0,0.0,0.0,0.0,0.0,0.0,0.0,0.0,0.0,0.0,0.0,0.0,0.0,0.0,0.0,0.0,0.0,0.0,0.0,0.0,0.0,0.0,0.0,0.0,0.0,0.0,0.0,0.0,0.0,0.0,0.0,0.0,0.0,0.0,0.0,0.0,0.0,0.0,0.0,0.0,0.0,0.0,0.0,0.0,0.0,0.0,0.0,0.0,0.0,0.0,0.0,0.0,0.0,0.0,0.0,0.0,0.0,0.0,0.0,0.0,0.0,0.0,0.0,0.0,0.0,0.0,0.0,0.0,0.0,0.0,0.0,0.0,0.0,0.0,0.0,0.0,0.0,0.0,0.0,0.0,0.0,0.0,0.0,0.0,0.0,0.0,0.0,0.0,0.0,0.0,0.0,0.0,0.0,0.0,0.0,0.0,0.0,0.0,0.0,0.0,0.0,0.0,0.0,0.0,0.0,0.0,0.0,0.0,0.0,0.0,0.0,0.0,0.0,0.0,0.0,0.0,0.0,0.0,0.0,0.0,0.0,0.0,0.0,0.0,0.0,0.0,0.0,0.0,0.0,0.0,0.0,0.0,0.0,0.0,0.0,0.0,0.0,0.0,0.0,0.0,0.0,0.0,0.0,0.0,0.0,0.0,0.0,0.0,0.0,0.0,0.0,0.0,0.0,0.0,0.0,0.0,0.0,0.0,0.0,0.0,0.0,0.0,0.0,0.0,0.0,0.0,0.0,0.0,0.0,0.0,0.0,0.0,0.0,0.0,0.0,0.0,0.0,0.0,0.0,0.0,0.0,0.0,0.0,0.0,0.0,0.0,0.0,0.0,0.0,0.0,0.0,0.0,0.0,0.0,0.0,0.0,0.0,0.0,0.0,0.0,0.0,0.0,0.0,0.0,0.0,0.0,0.0,0.0,0.0,0.0,0.0,0.0,0.0,0.0,0.0,0.0,0.0,0.0,0.0,0.0,0.0,0.0,0.0,0.0,0.0,7.0285,0.0,0.0,0.0,0.0,0.0,0.0,0.0,0.0,0.0,0.0,0.0,0.0,0.0,0.0,0.0,0.0,0.0,0.0,0.0,0.0,0.0,0.0,0.0,0.0,0.0,0.0,0.0,0.0,0.0,0.0,0.0,0.0,0.0,0.0,0.0,0.0,0.0,0.0,0.0,0.0,0.0,0.0,0.0,0.0,0.0,0.0,0.0,0.0,0.0,0.0,0.0,0.0,0.0,0.0,0.0,0.0,0.0,0.0,0.0,0.0,0.0,0.0,0.0,0.0,0.0,0.0,0.0,0.0,0.0,0.0,0.0,0.0,0.0,0.0,0.0,0.0,0.0,0.0,0.0,0.0,0.0,0.0,0.0,0.0,0.0,0.0,0.0,0.0,0.0,0.0,0.0,0.0,0.0,0.0,0.0,0.0,0.0,0.0,0.0,0.0,0.0,0.0,0.0,0.0,0.0,0.0,0.0,0.0,0.0,0.0,7.2206,7.1769,7.0721,7.0385,7.0858,0.0,0.0,0.0,0.0,0.0,0.0,0.0,0.0,0.0,0.0,0.0,0.0,0.0,0.0,0.0,0.0,0.0,0.0,0.0,0.0,0.0,0.0,0.0,0.0,0.0,0.0,0.0,0.0,0.0,0.0,0.0,0.0,0.0,0.0,0.0,0.0,0.0,0.0,0.0,0.0,0.0,0.0,0.0,0.0,0.0,0.0,0.0,0.0,0.0,0.0,0.0,0.0,0.0,0.0,0.0,0.0,0.0,0.0,0.0,0.0,0.0,0.0,0.0,0.0,0.0,0.0,0.0,0.0,0.0,0.0,0.0,0.0,0.0,0.0,0.0,0.0,0.0,0.0,0.0,0.0,0.0,0.0,0.0,0.0,0.0,0.0,0.0,0.0,0.0,0.0,0.0,0.0,0.0,0.0,0.0,0.0,0.0,0.0,0.0,0.0,0.0,0.0,0.0,0.0,0.0,0.0,0.0,0.0,0.0,0.0,0.0,0.0,7.1284,7.1362,7.1868,0.0,0.0,0.0,0.0,0.0,0.0,0.0,0.0,0.0,0.0,0.0,0.0,0.0,0.0,0.0,0.0,0.0,0.0,0.0,0.0,0.0,0.0,0.0,0.0,0.0,0.0,0.0,0.0,0.0,0.0,0.0,0.0,0.0,0.0,0.0,0.0,0.0,0.0,0.0,0.0,0.0,0.0,0.0,0.0,0.0,0.0,0.0,0.0,0.0,0.0,0.0,0.0,0.0,0.0,0.0,0.0,0.0,0.0,0.0,0.0,0.0,0.0,0.0,0.0,0.0,0.0,0.0,0.0,0.0,0.0,0.0,0.0,0.0,0.0,0.0,0.0,0.0,0.0,0.0,0.0,0.0,0.0,0.0,0.0,0.0,0.0,0.0,0.0,0.0,0.0,0.0,0.0,0.0,0.0,0.0,0.0,0.0,0.0,0.0,0.0,0.0,0.0,0.0,0.0,0.0,0.0,0.0,0.0,0.0,0.0,7.2984,7.355,7.4353,0.0,7.3996,0.0,0.0,0.0,0.0,0.0,0.0,0.0,0.0,0.0,0.0,0.0,0.0,0.0,0.0,0.0,0.0,0.0,0.0,0.0,0.0,0.0,0.0,0.0,0.0,0.0,0.0,0.0,0.0,0.0,0.0,0.0,0.0,0.0,0.0,0.0,0.0,0.0,0.0,0.0,0.0,0.0,0.0,0.0,0.0,0.0,0.0,0.0,0.0,0.0,0.0,0.0,0.0,0.0,0.0,0.0,0.0,0.0,0.0,0.0,0.0,0.0,0.0,0.0,0.0,0.0,0.0,0.0,0.0,0.0,0.0,0.0,0.0,0.0,0.0,0.0,0.0,0.0,0.0,0.0,0.0,0.0,0.0,0.0,0.0,0.0,0.0,0.0,0.0,0.0,0.0,0.0,0.0,0.0,0.0,0.0,0.0,0.0,0.0,0.0,0.0,0.0,0.0,0.0,0.0,0.0,0.0,0.0,0.0,0.0,0.0,7.3683,7.4491,7.4515,7.3937,0.0,0.0,0.0,0.0,0.0,0.0,0.0,0.0,0.0,0.0,0.0,0.0,0.0,0.0,0.0,0.0,0.0,0.0,0.0,0.0,0.0,0.0,0.0,0.0,0.0,0.0,0.0,0.0,0.0,0.0,0.0,0.0,0.0,0.0,0.0,0.0,0.0,0.0,0.0,0.0,0.0,0.0,0.0,0.0,0.0,0.0,0.0,0.0,0.0,0.0,0.0,0.0,0.0,0.0,0.0,0.0,0.0,0.0,0.0,0.0,0.0,0.0,0.0,0.0,0.0,0.0,0.0,0.0,0.0,0.0,0.0,0.0,0.0,0.0,0.0,0.0,0.0,0.0,0.0,0.0,0.0,0.0,0.0,0.0,0.0,0.0,0.0,0.0,0.0,0.0,0.0,0.0,0.0,0.0,0.0,0.0,0.0,0.0,0.0,0.0,0.0,0.0,0.0,0.0,0.0,0.0,0.0,0.0,0.0,0.0,7.4883,7.4913,7.5647,7.4388,7.3085,7.1938,0.0,0.0,0.0,0.0,0.0,0.0,0.0,0.0,0.0,0.0,0.0,0.0,0.0,0.0,0.0,0.0,0.0,0.0,0.0,0.0,0.0,0.0,0.0,0.0,0.0,0.0,0.0,0.0,0.0,0.0,0.0,0.0,0.0,0.0,0.0,0.0,0.0,0.0,0.0,0.0,0.0,0.0,0.0,0.0,0.0,0.0,0.0,0.0,0.0,0.0,0.0,0.0,0.0,0.0,0.0,0.0,0.0,0.0,0.0,0.0,0.0,0.0,0.0,0.0,0.0,0.0,0.0,0.0,0.0,0.0,0.0,0.0,0.0,0.0,0.0,0.0,0.0,0.0,0.0,0.0,0.0,0.0,0.0,0.0,0.0,0.0,0.0,0.0,0.0,0.0,0.0,0.0,0.0,0.0,0.0,0.0,0.0,0.0,0.0,0.0,0.0,0.0,0.0,0.0,0.0,0.0,0.0,0.0,0.0,7.7462,7.6839,7.7537,7.4503,7.2828,0.0,0.0,0.0,0.0,0.0,0.0,0.0,0.0,0.0,0.0,0.0,0.0,0.0,0.0,0.0,0.0,0.0,0.0,0.0,0.0,0.0,0.0,0.0,0.0,0.0,0.0,0.0,0.0,0.0,0.0,0.0,0.0,0.0,0.0,0.0,0.0,0.0,0.0,0.0,0.0,0.0,0.0,0.0,0.0,0.0,0.0,0.0,0.0,0.0,0.0,0.0,0.0,0.0,0.0,0.0,0.0,0.0,0.0,0.0,0.0,0.0,0.0,0.0,0.0,0.0,0.0,0.0,0.0,0.0,0.0,0.0,0.0,0.0,0.0,0.0,0.0,0.0,0.0,0.0,0.0,0.0,0.0,0.0,0.0,0.0,0.0,0.0,0.0,0.0,0.0,0.0,0.0,0.0,0.0,0.0,0.0,0.0,0.0,0.0,0.0,0.0,0.0,0.0,0.0,0.0,0.0,0.0,0.0,0.0,7.7248,7.7455,7.743,7.7198,7.5474,7.4078,0.0,0.0,0.0,0.0,0.0,0.0,0.0,0.0,0.0,0.0,0.0,0.0,0.0,0.0,0.0,0.0,0.0,0.0,0.0,0.0,0.0,0.0,0.0,0.0,0.0,0.0,0.0,0.0,0.0,0.0,0.0,0.0,0.0,0.0,0.0,0.0,0.0,0.0,0.0,0.0,0.0,0.0,0.0,0.0,0.0,0.0,0.0,0.0,0.0,0.0,0.0,0.0,0.0,0.0,0.0,0.0,0.0,0.0,0.0,0.0,0.0,0.0,0.0,0.0,0.0,0.0,0.0,0.0,0.0,0.0,0.0,0.0,0.0,0.0,0.0,0.0,0.0,0.0,0.0,0.0,0.0,0.0,0.0,0.0,0.0,0.0,0.0,0.0,0.0,0.0,0.0,0.0,0.0,0.0,0.0,0.0,0.0,0.0,0.0,0.0,0.0,0.0,0.0,0.0,0.0,0.0,0.0,0.0,0.0,7.7095,0.0,7.8305,7.6934,7.6046,7.4524,0.0,0.0,0.0,0.0,0.0,0.0,0.0,0.0,0.0,0.0,0.0,0.0,0.0,0.0,0.0,0.0,0.0,0.0,0.0,0.0,0.0,0.0,0.0,0.0,0.0,0.0,0.0,0.0,0.0,0.0,0.0,0.0,0.0,0.0,0.0,0.0,0.0,0.0,0.0,0.0,0.0,0.0,0.0,0.0,0.0,0.0,0.0,0.0,0.0,0.0,0.0,0.0,0.0,0.0,0.0,0.0,0.0,0.0,0.0,0.0,0.0,0.0,0.0,0.0,0.0,0.0,0.0,0.0,0.0,0.0,0.0,0.0,0.0,0.0,0.0,0.0,0.0,0.0,0.0,0.0,0.0,0.0,0.0,0.0,0.0,0.0,0.0,0.0,0.0,0.0,0.0,0.0,0.0,0.0,0.0,0.0,0.0,0.0,0.0,0.0,0.0,0.0,0.0,0.0,0.0,0.0,0.0,0.0,7.793,7.9297,8.0156,7.9468,7.7079,7.6154,7.4055,0.0,0.0,0.0,0.0,0.0,0.0,0.0,0.0,0.0,0.0,0.0,0.0,0.0,0.0,0.0,0.0,0.0,0.0,0.0,0.0,0.0,0.0,0.0,0.0,0.0,0.0,0.0,0.0,0.0,0.0,0.0,0.0,0.0,0.0,0.0,0.0,0.0,0.0,0.0,0.0,0.0,0.0,0.0,0.0,0.0,0.0,0.0,0.0,0.0,0.0,0.0,0.0,0.0,0.0,0.0,0.0,0.0,0.0,0.0,0.0,0.0,0.0,0.0,0.0,0.0,0.0,0.0,0.0,0.0,0.0,0.0,0.0,0.0,0.0,0.0,0.0,0.0,0.0,0.0,0.0,0.0,0.0,0.0,0.0,0.0,0.0,0.0,0.0,0.0,0.0,0.0,0.0,0.0,0.0,0.0,0.0,0.0,0.0,0.0,0.0,0.0,0.0,0.0,0.0,0.0,0.0,0.0,0.0,0.0,7.8789,7.957,8.0495,8.1323,7.7655,7.5663,0.0,0.0,0.0,0.0,0.0,0.0,0.0,0.0,0.0,0.0,0.0,0.0,0.0,0.0,0.0,0.0,0.0,0.0,0.0,0.0,0.0,0.0,0.0,0.0,0.0,0.0,0.0,0.0,0.0,0.0,0.0,0.0,0.0,0.0,0.0,0.0,0.0,0.0,0.0,0.0,0.0,0.0,0.0,0.0,0.0,0.0,0.0,0.0,0.0,0.0,0.0,0.0,0.0,0.0,0.0,0.0,0.0,0.0,0.0,0.0,0.0,0.0,0.0,0.0,0.0,0.0,0.0,0.0,0.0,0.0,0.0,0.0,0.0,0.0,0.0,0.0,0.0,0.0,0.0,0.0,0.0,0.0,0.0,0.0,0.0,0.0,0.0,0.0,0.0,0.0,0.0,0.0,0.0,0.0,0.0,0.0,0.0,0.0,0.0,0.0,0.0,0.0,0.0,0.0,0.0,0.0,0.0,0.0,0.0,8.1406,8.1875,8.2578,8.3554,8.0032,7.7643,7.6591,0.0,0.0,0.0,0.0,0.0,0.0,0.0,0.0,0.0,0.0,0.0,0.0,0.0,0.0,0.0,0.0,0.0,0.0,0.0,0.0,0.0,0.0,0.0,0.0,0.0,0.0,0.0,0.0,0.0,0.0,0.0,0.0,0.0,0.0,0.0,0.0,0.0,0.0,0.0,0.0,0.0,0.0,0.0,0.0,0.0,0.0,0.0,0.0,0.0,0.0,0.0,0.0,0.0,0.0,0.0,0.0,0.0,0.0,0.0,0.0,0.0,0.0,0.0,0.0,0.0,0.0,0.0,0.0,0.0,0.0,0.0,0.0,0.0,0.0,0.0,0.0,0.0,0.0,0.0,0.0,0.0,0.0,0.0,0.0,0.0,0.0,0.0,0.0,0.0,0.0,0.0,0.0,0.0,0.0,0.0,0.0,0.0,0.0,0.0,0.0,0.0,0.0,0.0,0.0,0.0,0.0,0.0,0.0,8.6601,8.6836,8.6054,8.414,8.2929,7.9869,0.0,0.0,0.0,0.0,0.0,0.0,0.0,0.0,0.0,0.0,0.0,0.0,0.0,0.0,0.0,0.0,0.0,0.0,0.0,0.0,0.0,0.0,0.0,0.0,0.0,0.0,0.0,0.0,0.0,0.0,0.0,0.0,0.0,0.0,0.0,0.0,0.0,0.0,0.0,0.0,0.0,0.0,0.0,0.0,0.0,0.0,0.0,0.0,0.0,0.0,0.0,0.0,0.0,0.0,0.0,0.0,0.0,0.0,0.0,0.0,0.0,0.0,0.0,0.0,0.0,0.0,0.0,0.0,0.0,0.0,0.0,0.0,0.0,0.0,0.0,0.0,0.0,0.0,0.0,0.0,0.0,0.0,0.0,0.0,0.0,0.0,0.0,0.0,0.0,0.0,0.0,0.0,0.0,0.0,0.0,0.0,0.0,0.0,0.0,0.0,0.0,0.0,0.0,0.0,0.0,0.0,0.0,0.0,0.0,9.1758,9.4336,9.3633,8.9375,8.5234,8.172,0.0,0.0,0.0,0.0,0.0,0.0,0.0,0.0,0.0,0.0,0.0,0.0,0.0,0.0,0.0,0.0,0.0,0.0,0.0,0.0,0.0,0.0,0.0,0.0,0.0,0.0,0.0,0.0,0.0,0.0,0.0,0.0,0.0,0.0,0.0,0.0,0.0,0.0,0.0,0.0,0.0,0.0,0.0,0.0,0.0,0.0,0.0,0.0,0.0,0.0,0.0,0.0,0.0,0.0,0.0,0.0,0.0,0.0,0.0,0.0,0.0,0.0,0.0,0.0,0.0,0.0,0.0,0.0,0.0,0.0,0.0,0.0,0.0,0.0,0.0,0.0,0.0,0.0,0.0,0.0,0.0,0.0,0.0,0.0,0.0,0.0,0.0,0.0,0.0,0.0,0.0,0.0,0.0,0.0,0.0,0.0,0.0,0.0,0.0,0.0,0.0,0.0,0.0,0.0,0.0,0.0,0.0,0.0,9.0937,9.6484,9.9961,9.9961,9.625,9.1054,8.6008,0.0,0.0,0.0,0.0,0.0,0.0,0.0,0.0,0.0,0.0,0.0,0.0,0.0,0.0,0.0,0.0,0.0,0.0,0.0,0.0,0.0,0.0,0.0,0.0,0.0,0.0,0.0,0.0,0.0,0.0,0.0,0.0,0.0,0.0,0.0,0.0,0.0,0.0,0.0,0.0,0.0,0.0,0.0,0.0,0.0,0.0,0.0,0.0,0.0,0.0,0.0,0.0,0.0,0.0,0.0,0.0,0.0,0.0,0.0,0.0,0.0,0.0,0.0,0.0,0.0,0.0,0.0,0.0,0.0,0.0,0.0,0.0,0.0,0.0,0.0,0.0,0.0,0.0,0.0,0.0,0.0,0.0,0.0,0.0,0.0,0.0,0.0,0.0,0.0,0.0,0.0,0.0,0.0,0.0,0.0,0.0,0.0,0.0,0.0,0.0,0.0,0.0,0.0,0.0,0.0,0.0,0.0,0.0,9.4453,10.0664,10.4179,10.5156,10.3359,9.8008,9.1054,0.0,0.0,0.0,0.0,0.0,0.0,0.0,0.0,0.0,0.0,0.0,0.0,0.0,0.0,0.0,0.0,0.0,0.0,0.0,0.0,0.0,0.0,0.0,0.0,0.0,0.0,0.0,0.0,0.0,0.0,0.0,0.0,0.0,0.0,0.0,0.0,0.0,0.0,0.0,0.0,0.0,0.0,0.0,0.0,0.0,0.0,0.0,0.0,0.0,0.0,0.0,0.0,0.0,0.0,0.0,0.0,0.0,0.0,0.0,0.0,0.0,0.0,0.0,0.0,0.0,0.0,0.0,0.0,0.0,0.0,0.0,0.0,0.0,0.0,0.0,0.0,0.0,0.0,0.0,0.0,0.0,0.0,0.0,0.0,0.0,0.0,0.0,0.0,0.0,0.0,0.0,0.0,0.0,0.0,0.0,0.0,0.0,0.0,0.0,0.0,0.0,0.0,0.0,0.0,0.0,0.0,0.0,0.0,9.7214,10.3906,10.7422,10.8476,10.6914,9.8633,9.1015,0.0,0.0,0.0,0.0,0.0,0.0,0.0,0.0,0.0,0.0,0.0,0.0,0.0,0.0,0.0,0.0,0.0,0.0,0.0,0.0,0.0,0.0,0.0,0.0,0.0,0.0,0.0,0.0,0.0,0.0,0.0,0.0,0.0,0.0,0.0,0.0,0.0,0.0,0.0,0.0,0.0,0.0,0.0,0.0,0.0,0.0,0.0,0.0,7.2187,0.0,0.0,0.0,0.0,0.0,0.0,0.0,0.0,0.0,0.0,0.0,0.0,0.0,0.0,0.0,0.0,0.0,0.0,0.0,0.0,0.0,0.0,0.0,0.0,0.0,0.0,0.0,0.0,0.0,0.0,0.0,0.0,0.0,0.0,0.0,0.0,0.0,0.0,0.0,0.0,0.0,0.0,0.0,0.0,0.0,0.0,0.0,0.0,0.0,0.0,0.0,0.0,0.0,0.0,0.0,0.0,0.0,0.0,0.0,10.0423,10.7288,11.0031,11.0898,10.9609,10.1836,9.4062,0.0,0.0,0.0,0.0,0.0,0.0,0.0,0.0,0.0,0.0,0.0,0.0,0.0,0.0,0.0,0.0,0.0,0.0,0.0,0.0,0.0,0.0,0.0,0.0,0.0,0.0,0.0,0.0,0.0,0.0,0.0,0.0,0.0,0.0,0.0,0.0,0.0,0.0,0.0,0.0,0.0,0.0,0.0,0.0,0.0,0.0,0.0,0.0,0.0,0.0,0.0,0.0,0.0,0.0,0.0,0.0,0.0,0.0,0.0,0.0,0.0,0.0,0.0,0.0,0.0,0.0,0.0,0.0,0.0,0.0,0.0,0.0,0.0,0.0,0.0,0.0,0.0,0.0,0.0,0.0,0.0,0.0,0.0,0.0,0.0,0.0,0.0,0.0,0.0,0.0,0.0,0.0,0.0,0.0,0.0,0.0,0.0,0.0,0.0,0.0,0.0,0.0,0.0,0.0,0.0,0.0,0.0,9.6229,10.2968,11.014,11.2152,11.2651,11.1758,10.5586,9.8086,0.0,0.0,0.0,0.0,0.0,0.0,0.0,0.0,0.0,0.0,0.0,0.0,0.0,0.0,0.0,0.0,0.0,0.0,0.0,0.0,0.0,0.0,0.0,0.0,0.0,0.0,0.0,0.0,0.0,0.0,0.0,0.0,0.0,0.0,0.0,0.0,0.0,0.0,0.0,7.0859,7.2851,0.0,0.0,0.0,0.0,0.0,0.0,0.0,0.0,7.3906,0.0,0.0,0.0,0.0,0.0,0.0,0.0,0.0,0.0,0.0,0.0,0.0,0.0,0.0,0.0,0.0,0.0,0.0,0.0,0.0,0.0,0.0,0.0,0.0,0.0,0.0,0.0,0.0,0.0,0.0,0.0,0.0,0.0,0.0,0.0,0.0,0.0,0.0,0.0,0.0,0.0,0.0,0.0,0.0,0.0,0.0,0.0,0.0,0.0,0.0,0.0,0.0,0.0,0.0,0.0,0.0,9.4183,9.6809,10.2473,11.1384,11.3528,11.3574,11.1445,10.7187,10.0469,9.1328,0.0,0.0,0.0,0.0,0.0,0.0,0.0,0.0,0.0,0.0,0.0,0.0,0.0,0.0,0.0,0.0,0.0,0.0,0.0,0.0,0.0,0.0,0.0,0.0,0.0,0.0,0.0,0.0,0.0,0.0,0.0,0.0,0.0,0.0,0.0,0.0,0.0,0.0,0.0,7.7969,7.8711,0.0,0.0,0.0,0.0,0.0,0.0,0.0,0.0,7.5351,0.0,0.0,0.0,0.0,0.0,0.0,0.0,0.0,0.0,0.0,0.0,0.0,0.0,0.0,0.0,0.0,0.0,0.0,0.0,0.0,0.0,0.0,0.0,0.0,0.0,0.0,0.0,0.0,0.0,0.0,0.0,0.0,0.0,0.0,0.0,0.0,0.0,0.0,0.0,0.0,0.0,0.0,0.0,0.0,0.0,0.0,0.0,0.0,0.0,0.0,0.0,0.0,0.0,0.0,0.0,9.5127,10.0561,10.6527,11.2972,11.4737,11.4408,11.2031,10.6054,9.9414,0.0,0.0,0.0,0.0,0.0,0.0,0.0,0.0,0.0,0.0,0.0,0.0,0.0,0.0,0.0,0.0,0.0,0.0,0.0,0.0,0.0,0.0,0.0,0.0,0.0,0.0,0.0,0.0,0.0,0.0,0.0,0.0,0.0,0.0,0.0,0.0,0.0,0.0,0.0,0.0,7.8906,7.9726,7.9726,0.0,0.0,0.0,0.0,0.0,0.0,7.6406,7.5859,0.0,0.0,0.0,0.0,0.0,0.0,0.0,0.0,0.0,0.0,0.0,0.0,0.0,0.0,0.0,0.0,0.0,0.0,0.0,0.0,0.0,0.0,0.0,0.0,0.0,0.0,0.0,0.0,0.0,0.0,0.0,0.0,0.0,0.0,0.0,0.0,0.0,0.0,0.0,0.0,0.0,0.0,0.0,0.0,0.0,0.0,0.0,0.0,0.0,0.0,0.0,0.0,0.0,0.0,0.0,9.557,10.3419,10.9823,11.4431,11.5608,11.5006,11.2642,10.5443,9.8722,0.0,0.0,0.0,0.0,0.0,0.0,0.0,0.0,0.0,0.0,0.0,0.0,0.0,0.0,0.0,0.0,0.0,0.0,0.0,0.0,0.0,0.0,0.0,0.0,0.0,0.0,0.0,0.0,0.0,0.0,0.0,0.0,0.0,0.0,0.0,0.0,0.0,0.0,0.0,0.0,0.0,8.1289,8.0586,8.0781,0.0,0.0,0.0,0.0,7.793,7.8086,0.0,0.0,0.0,0.0,0.0,0.0,0.0,0.0,0.0,0.0,0.0,0.0,0.0,0.0,0.0,0.0,0.0,0.0,0.0,0.0,0.0,0.0,0.0,0.0,0.0,0.0,0.0,0.0,0.0,0.0,0.0,0.0,0.0,0.0,0.0,0.0,0.0,0.0,0.0,0.0,0.0,0.0,0.0,0.0,0.0,0.0,0.0,0.0,0.0,0.0,0.0,0.0,0.0,0.0,0.0,0.0,9.6036,10.1618,10.8021,11.5129,11.5918,11.5002,11.273,10.8139,10.159,0.0,0.0,0.0,0.0,0.0,0.0,0.0,0.0,0.0,0.0,0.0,0.0,0.0,0.0,0.0,0.0,0.0,0.0,0.0,0.0,0.0,0.0,0.0,0.0,0.0,0.0,0.0,0.0,0.0,0.0,0.0,0.0,0.0,0.0,0.0,0.0,0.0,0.0,0.0,0.0,0.0,8.6562,8.3554,8.4453,8.3984,0.0,0.0,0.0,8.0781,8.3711,0.0,0.0,0.0,0.0,0.0,0.0,0.0,0.0,0.0,0.0,0.0,0.0,0.0,0.0,0.0,0.0,0.0,0.0,0.0,0.0,0.0,0.0,0.0,0.0,0.0,0.0,0.0,0.0,0.0,0.0,0.0,0.0,0.0,0.0,0.0,0.0,0.0,0.0,0.0,0.0,0.0,0.0,0.0,0.0,0.0,0.0,0.0,0.0,0.0,0.0,0.0,0.0,0.0,0.0,0.0,0.0,9.7673,10.4295,11.0456,11.5863,11.5983,11.4692,11.2302,10.5435,9.882,0.0,0.0,0.0,0.0,0.0,0.0,0.0,0.0,0.0,0.0,0.0,0.0,0.0,0.0,0.0,0.0,0.0,0.0,0.0,0.0,0.0,0.0,0.0,0.0,0.0,0.0,0.0,0.0,0.0,0.0,0.0,0.0,0.0,0.0,0.0,0.0,0.0,0.0,0.0,0.0,0.0,0.0,8.6015,8.6836,0.0,0.0,0.0,8.4414,8.4648,0.0,0.0,0.0,0.0,0.0,0.0,0.0,0.0,0.0,0.0,0.0,0.0,0.0,0.0,0.0,0.0,0.0,0.0,0.0,0.0,0.0,0.0,0.0,0.0,0.0,0.0,0.0,0.0,0.0,0.0,0.0,0.0,0.0,0.0,0.0,0.0,0.0,0.0,0.0,0.0,0.0,0.0,0.0,0.0,0.0,0.0,0.0,0.0,0.0,0.0,0.0,0.0,0.0,0.0,0.0,0.0,0.0,9.8887,10.632,11.2289,11.6391,11.5906,11.4305,11.1668,10.3791,0.0,0.0,0.0,0.0,0.0,0.0,0.0,0.0,0.0,0.0,0.0,0.0,0.0,0.0,0.0,0.0,0.0,0.0,0.0,0.0,0.0,0.0,0.0,0.0,0.0,0.0,0.0,6.9062,0.0,0.0,0.0,0.0,0.0,0.0,0.0,0.0,0.0,0.0,0.0,0.0,0.0,0.0,8.75,8.75,8.875,8.914,0.0,0.0,8.6875,8.7969,8.7969,8.6406,0.0,0.0,0.0,0.0,0.0,0.0,0.0,0.0,0.0,0.0,0.0,0.0,0.0,0.0,0.0,0.0,0.0,0.0,0.0,0.0,0.0,0.0,0.0,0.0,0.0,0.0,0.0,0.0,0.0,0.0,0.0,0.0,0.0,0.0,0.0,0.0,0.0,0.0,0.0,0.0,0.0,0.0,0.0,0.0,0.0,0.0,0.0,0.0,0.0,0.0,0.0,0.0,0.0,0.0,0.0,9.9067,10.5646,11.1604,11.6699,11.5632,11.3735,11.1148,10.5942,9.965,0.0,0.0,0.0,0.0,0.0,0.0,0.0,0.0,0.0,0.0,0.0,0.0,0.0,0.0,0.0,0.0,0.0,0.0,0.0,0.0,0.0,0.0,0.0,0.0,0.0,0.0,0.0,0.0,0.0,0.0,0.0,0.0,0.0,0.0,0.0,0.0,0.0,0.0,0.0,0.0,0.0,8.75,8.75,9.0273,9.1992,0.0,0.0,9.0625,8.9922,9.3125,9.2929,8.4765,0.0,0.0,0.0,0.0,0.0,0.0,0.0,0.0,0.0,0.0,0.0,0.0,0.0,0.0,0.0,0.0,0.0,0.0,0.0,0.0,0.0,0.0,0.0,0.0,0.0,0.0,0.0,0.0,0.0,0.0,0.0,0.0,0.0,0.0,0.0,0.0,0.0,0.0,0.0,0.0,0.0,0.0,0.0,0.0,0.0,0.0,0.0,0.0,0.0,0.0,0.0,0.0,0.0,9.3805,9.8144,10.5782,11.1722,11.5698,11.4904,11.3371,11.1375,10.6033,9.9411,0.0,0.0,0.0,0.0,0.0,0.0,0.0,0.0,0.0,0.0,0.0,0.0,0.0,0.0,0.0,0.0,0.0,0.0,0.0,0.0,0.0,0.0,0.0,0.0,0.0,0.0,0.0,0.0,6.8281,6.875,7.0117,0.0,0.0,0.0,0.0,0.0,0.0,0.0,0.0,0.0,0.0,8.8633,9.1758,9.289,0.0,0.0,9.2812,9.2578,9.3828,9.3164,9.0664,8.5273,8.1601,0.0,0.0,0.0,0.0,0.0,0.0,0.0,0.0,0.0,0.0,0.0,0.0,0.0,0.0,0.0,0.0,0.0,0.0,0.0,0.0,0.0,0.0,0.0,0.0,0.0,0.0,0.0,0.0,0.0,0.0,0.0,0.0,0.0,0.0,0.0,0.0,0.0,0.0,0.0,0.0,0.0,0.0,0.0,0.0,0.0,0.0,0.0,0.0,0.0,0.0,0.0,0.0,9.4298,9.7582,10.5931,11.1752,11.4863,11.4135,11.2687,11.0348,10.5359,9.8958,0.0,0.0,0.0,0.0,0.0,0.0,0.0,0.0,0.0,0.0,0.0,0.0,0.0,0.0,0.0,0.0,0.0,0.0,0.0,0.0,0.0,0.0,0.0,0.0,0.0,0.0,0.0,0.0,6.8476,6.9023,7.0195,0.0,0.0,0.0,0.0,0.0,0.0,0.0,0.0,0.0,0.0,8.9179,9.375,9.4336,9.4492,9.5117,9.3866,9.3637,9.578,9.3047,8.9336,8.5508,0.0,0.0,0.0,0.0,0.0,0.0,0.0,0.0,0.0,0.0,0.0,0.0,0.0,0.0,0.0,0.0,0.0,0.0,0.0,0.0,0.0,0.0,0.0,0.0,0.0,0.0,0.0,0.0,0.0,0.0,0.0,0.0,0.0,0.0,0.0,0.0,0.0,0.0,0.0,0.0,0.0,0.0,0.0,0.0,0.0,0.0,0.0,0.0,0.0,0.0,0.0,0.0,0.0,0.0,9.7821,10.5972,11.1428,11.3923,11.3495,11.1504,10.7941,10.3914,9.867,9.1918,0.0,0.0,0.0,0.0,0.0,0.0,0.0,0.0,0.0,0.0,0.0,0.0,0.0,0.0,0.0,0.0,0.0,0.0,0.0,0.0,0.0,0.0,0.0,0.0,0.0,0.0,7.1445,7.0273,6.9414,0.0,0.0,0.0,0.0,0.0,0.0,0.0,0.0,0.0,0.0,8.5312,8.875,9.2187,9.4101,9.5117,9.5195,9.4198,9.3878,9.5059,9.3437,9.0508,0.0,0.0,0.0,0.0,0.0,0.0,0.0,0.0,0.0,0.0,0.0,0.0,0.0,0.0,0.0,0.0,0.0,0.0,0.0,0.0,0.0,0.0,0.0,0.0,0.0,0.0,0.0,0.0,0.0,0.0,0.0,0.0,0.0,0.0,0.0,0.0,0.0,0.0,0.0,0.0,8.1562,8.1268,0.0,0.0,0.0,0.0,0.0,0.0,0.0,0.0,0.0,0.0,0.0,0.0,9.4195,9.7774,10.5351,11.0585,11.3052,11.2964,11.1477,10.8554,10.5175,9.9322,9.0678,0.0,0.0,0.0,0.0,0.0,0.0,0.0,0.0,0.0,0.0,0.0,0.0,0.0,0.0,0.0,0.0,0.0,0.0,0.0,0.0,0.0,0.0,0.0,0.0,0.0,7.1933,0.0,0.0,0.0,0.0,0.0,0.0,0.0,0.0,0.0,0.0,0.0,7.6719,8.2422,8.501,8.7674,9.1244,9.3086,9.4336,0.0,0.0,0.0,0.0,0.0,0.0,0.0,0.0,0.0,0.0,0.0,0.0,0.0,0.0,8.3347,8.0063,7.9206,7.8945,7.8807,0.0,0.0,0.0,0.0,0.0,0.0,0.0,0.0,0.0,0.0,0.0,0.0,0.0,0.0,0.0,0.0,8.1368,0.0,0.0,0.0,0.0,0.0,0.0,0.0,0.0,8.1964,8.2641,8.3627,8.3332,8.3093,0.0,8.2285,8.1095,0.0,0.0,0.0,0.0,0.0,0.0,0.0,0.0,9.4134,9.7634,10.5018,11.0013,11.2151,11.2277,11.1045,10.8529,10.3975,9.7628,8.9391,8.3658,7.9286,0.0,0.0,0.0,0.0,0.0,0.0,0.0,0.0,0.0,0.0,0.0,0.0,0.0,0.0,0.0,0.0,0.0,0.0,0.0,0.0,0.0,0.0,0.0,7.2023,0.0,0.0,0.0,0.0,0.0,0.0,0.0,0.0,0.0,7.543,7.6289,7.8906,8.4531,8.6349,8.8344,9.1518,0.0,0.0,0.0,0.0,0.0,0.0,0.0,8.9209,8.7164,8.6123,8.5262,8.4349,8.5167,8.619,8.683,0.0,0.0,8.2627,8.1704,8.1411,8.1252,8.1886,8.2333,8.1957,8.3121,8.4111,0.0,0.0,0.0,0.0,0.0,0.0,0.0,0.0,8.1362,8.2234,0.0,0.0,0.0,0.0,0.0,0.0,0.0,0.0,0.0,0.0,8.3465,8.4427,8.5051,8.5128,8.467,0.0,8.3791,8.2907,8.1285,7.9558,0.0,0.0,0.0,0.0,0.0,0.0,9.421,9.7788,10.5056,10.9711,11.1437,11.1478,11.02,10.749,10.0555,9.4145,8.8502,8.6233,8.2307,7.6255,7.749,0.0,0.0,0.0,0.0,0.0,0.0,0.0,0.0,0.0,0.0,0.0,0.0,0.0,0.0,0.0,0.0,0.0,0.0,0.0,0.0,7.2026,0.0,0.0,0.0,0.0,0.0,0.0,0.0,0.0,0.0,0.0,7.7383,7.9492,8.2851,8.7695,0.0,0.0,0.0,0.0,9.4492,9.3711,9.4015,9.4454,9.4655,9.3603,9.1896,8.9649,0.0,0.0,8.7233,8.8286,8.9113,8.8339,8.8754,8.8816,8.7771,8.6833,8.607,8.5371,8.4701,8.4461,8.5179,8.5514,8.5695,8.7555,0.0,0.0,0.0,0.0,8.4435,8.5016,8.5595,8.5595,8.5209,8.4472,8.3364,0.0,0.0,0.0,0.0,0.0,0.0,8.4291,8.5977,8.6915,8.7743,8.8472,8.9088,8.8936,8.8051,8.6865,8.5749,8.463,8.2943,8.1674,8.0744,0.0,0.0,0.0,0.0,9.5018,10.0168,10.5364,10.9172,11.1439,11.0906,10.879,10.5051,10.0728,9.6209,9.1568,8.7987,8.4701,8.1622,7.845,0.0,0.0,0.0,0.0,0.0,0.0,0.0,0.0,0.0,0.0,0.0,0.0,0.0,0.0,0.0,0.0,0.0,0.0,0.0,7.5431,7.2665,7.1434,0.0,0.0,0.0,0.0,0.0,0.0,0.0,0.0,0.0,8.2304,8.2226,8.3515,0.0,0.0,9.0587,9.123,9.3019,9.4318,9.4407,0.0,0.0,0.0,9.2649,9.1373,8.9962,9.0761,9.1662,9.1951,9.1767,9.1695,9.1966,9.1749,9.1541,9.1727,8.9746,8.8096,8.7735,8.7929,8.8455,8.9303,8.9913,9.0712,9.2787,8.9244,8.7246,8.6403,8.6438,8.6903,8.7442,8.7942,8.7906,8.7527,8.6807,8.5642,8.4271,8.28,8.233,0.0,0.0,0.0,8.6577,8.87,8.9724,9.0827,9.19,9.2479,9.2443,9.1864,9.021,8.8977,8.8092,8.6748,8.5401,0.0,0.0,0.0,8.7664,9.1862,9.6593,10.1709,10.5672,10.8941,11.1401,11.0012,10.7824,10.4943,10.1399,9.7882,9.4391,9.0133,8.6619,8.3982,8.0131,7.7244,0.0,0.0,0.0,0.0,0.0,0.0,0.0,0.0,0.0,0.0,0.0,7.0234,0.0,0.0,0.0,0.0,7.2683,7.4172,7.4899,7.2763,0.0,0.0,0.0,0.0,0.0,0.0,0.0,7.7851,7.9648,8.2031,8.5429,8.5808,8.6842,8.9841,9.0955,9.1663,9.2285,0.0,9.4339,9.4926,9.4802,9.4578,9.4544,9.392,9.3081,9.2068,9.3047,9.3984,9.4326,9.4142,9.418,9.4538,9.4339,9.418,9.4619,9.3022,9.1444,9.0855,9.1058,9.1669,9.2518,9.3395,9.4416,9.8209,9.6283,9.1674,8.9562,8.9218,8.9293,8.9372,8.9408,8.9445,8.971,9.0068,8.8508,8.7676,8.7316,8.5983,0.0,0.0,8.724,8.8939,9.0626,9.2095,9.3638,9.5181,9.5181,9.5218,9.5138,9.3523,9.2289,9.1475,9.059,8.9825,8.9062,8.7632,8.8013,9.028,9.4398,9.8555,10.2748,10.6095,10.8939,11.1208,10.8937,10.7246,10.6172,10.2253,9.8973,9.6597,9.2342,8.8175,8.4273,8.218,7.9165,7.5126,0.0,0.0,0.0,0.0,0.0,0.0,0.0,0.0,0.0,0.0,0.0,0.0,0.0,0.0,0.0,7.0865,0.0,7.2601,7.2639,0.0,0.0,0.0,7.4671,7.5564,7.5852,7.6907,7.9294,0.0,0.0,0.0,0.0,9.1603,9.3124,9.3131,9.3506,9.4895,9.4622,9.4579,9.541,9.5435,9.568,9.624,9.6206,9.5735,9.5027,9.5769,9.5894,9.5332,9.5688,9.6206,9.6165,9.6245,9.6245,9.6245,9.6009,9.5788,9.4097,9.3907,9.4215,9.4991,9.5833,9.6664,10.1673,10.0012,9.8784,9.6482,9.3563,9.421,9.4826,9.5405,9.5401,9.443,9.2753,9.1742,8.9838,8.7392,8.7038,8.7562,8.8812,8.9887,9.1615,9.3837,9.493,9.5939,9.6867,9.6906,9.6903,9.679,9.5215,9.4294,9.4061,9.3213,9.2712,9.2561,9.34,9.3518,9.2941,9.6406,10.0291,10.4487,10.7213,10.8906,10.9483,10.8324,10.6672,10.4523,10.1642,9.8945,9.6428,9.2855,8.9246,8.5715,8.271,7.9436,7.5899,7.5667,0.0,0.0,0.0,0.0,0.0,0.0,0.0,0.0,0.0,7.0626,7.2201,0.0,7.2867,0.0,7.0243,7.1354,7.4134,7.3951,0.0,0.0,7.6418,7.6744,7.637,7.8038,7.9744,8.0911,8.3214,8.6091,8.9725,9.1432,9.3027,9.4812,9.4839,9.5015,9.5848,9.5887,9.5887,9.6189,9.6138,9.6185,9.6508,9.6442,9.6245,9.6045,9.6165,9.6206,9.6007,9.6127,9.6283,9.6283,9.6283,9.6283,9.6283,9.6283,9.6168,9.5824,9.6172,9.6639,9.6888,9.757,9.844,10.5018,10.413,10.3743,10.1981,9.9449,9.8788,9.8784,9.9171,9.8829,9.762,9.5859,9.3903,9.1801,8.9712,8.9673,9.0597,9.2169,9.3093,9.4636,9.6677,9.7173,9.7673,9.8057,9.8096,9.8057,9.8019,9.7139,9.6485,9.6141,9.6023,9.5752,9.5444,9.7136,9.7865,9.775,9.9945,10.2948,10.6756,10.8944,10.9865,10.9447,10.7931,10.6277,10.441,10.087,9.7944,9.5788,9.2097,8.8865,8.6207,8.3247,8.0092,7.6786,7.5861,7.4053,0.0,0.0,0.0,0.0,0.0,0.0,0.0,0.0,0.0,0.0,0.0,7.3978,0.0,0.0,0.0,7.7087,7.6963,7.7111,7.8222,7.8901,7.9112,7.8698,8.0582,8.2412,8.3656,8.5802,8.8398,9.1535,9.2797,9.4063,9.5853,9.5887,9.5887,9.6204,9.6283,9.6362,9.6442,9.6362,9.6324,9.6444,9.6365,9.6283,9.6283,9.6283,9.6283,9.6283,9.6283,9.6283,9.6283,9.6283,9.6283,9.6283,9.6283,9.6283,9.6401,9.6939,9.7449,9.7511,9.8489,9.9549,10.8095,10.7944,10.7092,10.6287,10.5448,10.321,10.2015,10.1592,10.0907,10.0024,9.8904,9.5737,9.3973,9.3328,9.3287,9.41,9.5528,9.6288,9.7403,9.8793,9.8906,9.8947,9.8949,9.8947,9.8945,9.8988,9.887,9.8406,9.7714,9.8447,9.8406,9.7786,9.9409,10.1142,10.2904,10.3907,10.5982,10.9175,11.0747,11.1057,11.018,10.77,10.5894,10.4641,9.9853,9.6355,9.4487,9.0562,8.7557,8.5822,8.3555,8.0864,7.7788,7.6169,7.4551,0.0,7.1972,0.0,0.0,0.0,0.0,0.0,0.0,0.0,0.0,7.2706,7.5381,7.872,7.75,7.7587,8.0023,8.0223,8.033,8.0721,8.1216,8.1571,8.1796,8.321,8.4863,8.6587,8.8412,9.0516,9.2915,9.3855,9.4817,9.6211,9.6365,9.6245,9.6283,9.6283,9.6285,9.6283,9.6283,9.6285,9.6324,9.6285,9.6283,9.6283,9.6283,9.6283,9.6283,9.6283,9.6283,9.6283,9.6283,9.6283,9.6283,9.6283,9.6283,9.6285,9.6939,9.7526,9.7812,9.893,10.0067,11.0365,10.9639,10.879,10.8329,10.8136,10.7675,10.5905,10.3407,10.3256,10.2289,10.0707,9.8721,9.7764,9.7639,9.76,9.7793,9.8101,9.8252,9.8485,9.8832,9.9526,9.9834,9.987,9.9834,9.9873,9.9834,9.9139,9.8714,9.8557,9.8714,9.8714,9.8598,10.0248,10.2251,0.0,0.0,0.0,0.0,11.1324,11.1057,11.0142,10.7718,10.5331,10.3058,9.8135,0.0,9.1936,8.8479,8.5824,8.4138,8.2943,0.0,0.0,0.0,0.0,0.0,0.0,0.0,0.0,0.0,0.0,0.0,7.6494,7.6345,7.4643,7.5374,7.7101,7.9681,7.9079,7.8889,7.9947,8.0813,8.1521,8.2001,8.2762,8.3481,8.415,8.5106,8.633,8.809,8.978,9.1592,9.3572,9.4455,9.5254,9.6367,9.6442,9.6285,9.6283,9.6283,9.6283,9.6283,9.6283,9.6283,9.6283,9.6283,9.6283,9.6283,9.6283,9.6283,9.6283,9.6283,9.6283,9.6283,9.6283,9.6283,9.6283,9.6283,9.6283,9.6283,9.6939,9.7711,9.8408,9.9353,10.0269,11.2483,0.0,11.1598,11.0942,0.0,0.0,10.8752,10.629,10.5482,10.371,10.1243,10.0007,9.9204,9.8793,9.8793,9.9062,9.9449,9.9447,9.9637,10.0058,10.0481,10.0714,10.0676,10.0676,10.0673,10.0676,10.025,9.9827,9.9486,10.0253,10.0253,9.9486,10.1558,10.3635,10.5751,10.8288,11.0208,11.1475,11.1513,11.0865,10.956,10.748,10.5402,10.3212,0.0,0.0,0.0,0.0,0.0,0.0,0.0,0.0,0.0,0.0,0.0,7.6788,7.6233,7.619,7.6592,7.6645,7.7176,7.8501,8.0906,8.1402,7.9195,8.0108,8.1573,8.3245,8.3367,8.3534,8.3903,8.4722,8.5342,8.5606,8.5978,8.6391,8.6778,8.7462,8.8476,8.9739,9.1058,9.2525,9.4308,9.4801,9.5374,9.6252,9.6365,9.6283,9.6283,9.6283,9.6283,9.6283,9.6283,9.6283,9.6283,9.6283,9.6283,9.6283,9.6283,9.6283,9.6283,9.6283,9.6283,9.6283,9.6283,9.6283,9.6283,9.6283,9.6283,9.6322,9.6629,9.7175,9.8031,9.9197,10.0209,11.4214,11.4217,11.406,11.3135,11.1708,11.1706,11.0749,10.9024,0.0,0.0,0.0,10.1024,10.014,9.9483,9.9329,9.9639,10.0296,10.0486,10.0791,10.132,10.1474,10.1435,10.1317,10.1279,10.1279,10.1279,10.1279,10.0979,10.037,10.1866,10.1907,10.0873,10.2948,10.502,10.69,10.9936,11.1513,11.1513,11.1362,11.0631,10.9367,10.7285,10.5441,10.3946,9.9615,9.6421,9.4588,9.1538,8.9464,8.8483,8.648,8.486,8.3828,8.1822,7.9898,7.8096,7.7323,7.7209,7.7903,7.8099,7.9361,8.208,8.5202,8.6066,8.3862,8.5086,8.6315,8.7163,8.7797,8.8093,8.8097,8.8608,8.8959,8.8879,8.8847,8.878,8.894,8.9643,9.0401,9.1355,9.2326,9.3407,9.4758,9.5179,9.5485,9.6093,9.6285,9.6283,9.6283,9.6283,9.6283,9.6283,9.6283,9.6283,9.6283,9.6283,9.6283,9.6283,9.6283,9.6283,9.6283,9.6283,9.6283,9.6283,9.6283,9.6283,9.6283,9.6283,9.6283,9.6283,9.6283,9.6482,9.7227,9.8517,9.9644,11.5105,11.5066,11.433,11.3442,11.2516,11.2555,11.1557,10.9832,10.7477,10.6128,10.5551,10.3248,10.2171,10.202,10.1286,10.1015,10.1169,10.1904,10.1902,0.0,10.2056,10.2017,10.1317,10.1279,10.1279,10.1279,10.1317,10.1245,10.1248,10.2135,10.244,10.2484,10.4064,10.6179,10.8521,11.0516,11.1513,11.1513,11.0752,11.0637,11.1055,10.7328,10.483,10.3751,9.9124,9.531,9.2934,9.1003,8.9192,8.7669,8.725,8.6363,8.4822,8.4395,8.3127,8.0823,8.0441,8.0439,8.0592,8.1224,8.304,8.6242,8.8413,8.9126,8.8122,8.8305,8.882,8.9672,8.9387,8.8973,8.886,8.9047,8.9183,8.8937,8.8846,8.9044,8.9754,9.0544,9.1394,9.2283,9.3674,9.4643,9.5023,9.5638,9.6055,9.6247,9.6365,9.6324,9.6442,9.6283,9.6283,9.6283,9.6283,9.6283,9.6283,9.6283,9.6322,9.6283,9.6362,9.6401,9.6403,9.6403,9.6362,9.6324,9.6283,9.6283,9.6283,9.6283,9.6283,9.6283,9.6283,9.6365,9.6562,9.7374,9.8408,11.5951,11.5913,11.5528,11.4871,11.406,11.3096,11.225,11.1409,10.9367,10.7675,10.6246,10.4212,10.3289,10.3212,10.2402,10.2015,10.2015,10.1938,10.1938,10.2056,10.2402,10.2635,10.2712,10.2712,10.271,10.271,10.2712,10.2443,10.2133,10.3328,10.3715,10.352,10.5867,10.7985,10.9601,11.0865,11.1513,11.1478,11.1096,11.0865,11.0752,10.7982,10.6097,10.5249,10.1158,9.8505,9.7322,9.4755,9.3025,9.2244,9.0902,8.9594,8.8397,8.7478,8.6209,8.4634,8.4073,8.4,8.4496,8.6157,8.7778,8.9394,9.1503,9.2835,9.2929,9.2178,9.1869,9.2257,9.1991,9.1797,9.1712,9.1693,9.1646,9.1585,9.1522,9.1592,9.1923,9.2263,9.2882,9.3749,9.4489,9.5179,9.5634,9.6057,9.6283,9.6324,9.6641,9.7076,9.7551,9.7631,9.7275,9.6523,9.6283,9.6283,9.6322,9.6283,9.6478,9.6865,9.6942,9.6944,9.6956,9.6958,9.6761,9.6403,9.6285,9.6283,9.6283,9.6283,9.6283,9.6283,9.6283,9.6283,9.6365,9.692,9.8069,11.649,11.649,11.649,11.6028,11.514,11.3442,11.2709,11.2519,11.0906,10.9101,10.7172,10.529,10.4484,10.4366,10.3369,10.2902,10.2825,10.2404,10.244,10.2866,10.3099,10.3443,10.3871,10.3907,10.3907,10.3907,10.3907,10.3561,10.3138,10.46,10.5292,10.5331,10.7831,10.9601,11.0486,11.1362,11.1785,11.1785,11.1785,11.1365,11.0486,10.8482,10.7169,10.6554,10.3359,10.151,10.1166,9.8623,9.6894,9.6247,9.4403,9.2789,9.1554,9.0289,8.9175,8.8291,8.7433,8.7326,8.8284,9.028,9.157,9.1804,9.3921,9.5568,9.6145,9.5572,9.4895,9.4603,9.4131,9.3887,9.3799,9.3832,9.3909,9.3856,9.3773,9.3522,9.3665,9.3855,9.421,9.4871,9.5143,9.5636,9.6324,9.6555,9.6713,9.6994,9.7415,9.8074,9.8665,9.8785,9.8192,9.7324,9.6856,9.6942,9.6863,9.6899,9.7209,9.7711,9.7788,9.7795,9.7809,9.778,9.7475,9.684,9.6603,9.6521,9.6362,9.6283,9.6283,9.6283,9.6283,9.6283,9.6324,9.672,9.7764,11.649,11.649,11.649,11.6028,11.5182,11.3442,11.2747,11.2519,11.0947,11.0103,10.9521,10.7249,10.6169,10.5938,10.4523,10.383,10.3869,10.4448,10.4371,10.3946,10.4525,10.4523,10.41,10.3987,10.3907,10.3982,10.4061,10.4138,10.4023,10.5518,10.7015,10.8367,10.9562,11.0524,11.1401,11.2173,11.2593,11.2593,11.2591,11.2211,11.1244,10.8205,10.6862,10.7518,10.4277,10.2082,10.1438,10.0298,9.8683,9.655,9.6132,9.4864,9.271,9.221,9.1748,9.0862,9.0043,8.9932,9.0798,9.1784,9.2736,9.35,9.5144,9.6246,9.6476,9.7576,9.7702,9.6426,9.4934,9.4252,9.39,9.4028,9.4086,9.4005,9.3885,9.3706,9.3898,9.4389,9.4916,9.4984,9.5713,9.6476,9.7134,9.7365,9.7728,9.8335,9.8546,9.8776,9.9012,9.9053,9.9012,9.8659,9.8572,9.8526,9.8447,9.856,9.8483,9.8637,9.8678,9.8678,9.8685,9.8629,9.8383,9.7641,9.7275,9.7037,9.66,9.6283,9.6283,9.6283,9.6283,9.6283,9.6324,9.6403,9.717,11.649,11.649,11.649,11.6339,11.5797,11.4176,11.3442,11.333,11.1673,11.0944,11.0791,10.9326,10.8364,10.7826,10.6677,10.5867,10.5441,10.571,10.5713,10.5441,10.6251,10.6715,10.6867,10.6869,10.6831,10.6867,10.6867,10.66,10.6405,10.7326,10.8482,10.9716,11.0983,11.1865,11.2244,11.3055,11.3481,11.3483,11.3442,11.3058,11.2055,10.9906,10.8557,10.8175,10.609,10.4205,10.2864,10.1546,10.0082,9.8637,9.8062,9.6863,9.4864,9.4747,9.4131,9.2828,9.2365,9.2314,9.2665,9.3495,9.4342,9.5177,9.6304,9.7409,9.8442,9.8716,9.8697,9.8501,9.7498,9.6619,9.613,9.603,9.5854,9.5351,9.5215,9.5222,9.526,9.5532,9.5774,9.5824,9.648,9.7093,9.748,9.7942,9.8613,9.9365,9.9582,9.9694,10.013,10.0286,10.0288,10.0291,10.0277,9.9788,9.9098,9.8793,9.9024,9.9409,9.9565,9.956,9.9582,9.9584,9.9284,9.8414,9.7908,9.7506,9.7117,9.6562,9.6283,9.6283,9.6283,9.6283,9.6283,9.6283,9.6709,11.649,11.649,11.649,11.649,11.6374,11.4986,11.4368,11.4137,11.2557,11.1824,11.1747,11.0944,11.0214,10.9519,10.8518,10.7672,10.7133,10.7092,10.7095,10.7131,10.7749,10.8329,10.8867,10.8906,10.8906,10.8906,10.8829,10.8672,10.8441,10.8944,10.9793,11.0906,11.2096,11.2942,11.3445,11.406,11.4368,11.4368,11.4368,11.383,11.2711,11.1522,11.0255,10.8906,10.7287,10.571,10.4251,10.2563,10.1294,10.0447,9.9601,9.8483,9.7096,9.698,9.6326,9.4982,9.4984,9.4978,9.478,9.557,9.6303,9.6936,9.7748,9.8726,9.975,9.9947,10.0137,10.0604,10.0216,9.9372,9.8021,9.7845,9.7581,9.7073,9.6999,9.6956,9.698,9.6978,9.7016,9.7057,9.7521,9.798,9.825,9.8983,9.9796,10.0305,10.0438,10.0603,10.112,10.1238,10.1238,10.1279,10.1243,10.0784,9.9712,9.9635,9.9829,10.0101,10.0447,10.0438,10.0413,10.0411,10.0132,9.9298,9.8442,9.7691,9.7311,9.68,9.6283,9.6283,9.6283,9.6283,9.6283,9.6283,9.6283,11.649,11.6528,11.649,11.649,11.6413,11.5564,11.5217,11.5025,11.3407,11.2634,11.2555,11.1824,11.1439,11.1285,10.9788,10.8865,10.879,10.879,10.8788,10.8829,10.8903,10.8906,10.8906,10.8906,10.9024,10.9367,10.9406,10.956,11.0065,11.0219,11.0983,11.2478,11.275,11.3558,11.4835,11.5143,11.5259,11.5217,11.522,11.4448,11.2978,11.2632,11.1403,10.9098,10.7326,10.6059,10.4987,10.3424,10.2191,10.1284,10.056,9.968,9.8791,9.8639,9.813,9.7435,9.8018,9.8075,9.7434,9.7943,9.8516,9.8752,9.9296,9.9993,10.0368,10.1409,10.2135,10.2443,10.2212,10.1212,9.9329,9.8836,9.8663,9.8532,9.858,9.8557,9.8598,9.8397,9.8637,9.8562,9.8639,9.906,9.9832,10.0671,10.0938,10.113,10.1205,10.1241,10.1241,10.1279,10.1279,10.1279,10.1279,10.1241,10.1169,10.0784,10.0938,10.1053,10.0979,10.113,10.1243,10.1161,10.0685,10.0137,9.9154,9.8324,9.7614,9.6999,9.6444,9.6283,9.6283,9.6283,9.6283,9.6324,9.6324,11.7833,11.7253,11.6718,11.649,11.6413,11.5646,11.5297,11.5179,11.4022,11.3522,11.3483,11.3211,11.3096,11.3058,11.2445,11.1596,11.0634,11.0554,11.0596,11.0634,11.1093,11.1327,11.1403,11.1865,11.2175,11.2178,11.2175,11.2022,11.1868,11.2368,11.2599,11.2865,11.3865,11.4717,11.5297,11.5797,11.6066,11.6069,11.6066,11.5256,11.3673,11.3558,11.2291,10.9873,10.8606,10.7067,10.5143,10.4494,10.384,10.2981,10.2676,10.1907,10.0517,9.9368,9.8673,9.8401,9.861,9.866,9.8418,9.8625,9.9072,9.9608,9.9906,10.0606,10.1512,10.2251,10.2828,10.3215,10.2866,10.2058,10.1361,10.0315,9.9397,9.892,9.8822,9.8877,9.8781,9.8776,9.8789,9.8858,9.9252,9.9947,10.0637,10.1132,10.1281,10.1279,10.1279,10.1279,10.1279,10.1279,10.1279,10.1279,10.1279,10.1279,10.1279,10.1281,10.1279,10.1279,10.1243,10.1243,10.1279,10.1279,10.0923,10.0524,9.9685,9.8656,9.7795,9.6958,9.6444,9.6283,9.6283,9.6283,9.6283,9.6442,9.6482,11.8366,11.7712,11.6872,11.649,11.6415,11.5913,11.5682,11.5605,11.4794,11.4407,11.4371,11.4137,11.3981,11.3981,11.3981,11.3637,11.275,11.2478,11.2285,11.2365,11.2865,11.3132,11.3211,11.3714,11.3981,11.3942,11.3981,11.3676,11.325,11.3712,11.3791,11.3676,11.4794,11.5448,11.572,11.6262,11.649,11.649,11.649,11.5679,11.4209,11.3981,11.2788,11.0513,10.9373,10.7993,10.6026,10.541,10.4871,10.433,10.4061,10.3212,10.1784,10.0635,9.9865,9.9637,9.9637,9.9596,9.9594,9.9598,9.9892,10.0447,10.0793,10.1452,10.2515,10.3097,10.3676,10.3982,10.3828,10.3328,10.2828,10.1738,10.0543,9.9781,9.9598,9.9613,9.9613,9.9653,9.9675,9.9779,10.0135,10.0712,10.1169,10.1243,10.1279,10.1279,10.1279,10.1279,10.1279,10.1279,10.1279,10.1279,10.1279,10.1279,10.1279,10.1279,10.1279,10.1279,10.1279,10.1279,10.1279,10.1279,10.1082,10.0723,9.9954,9.8887,9.7896,9.6985,9.6562,9.6324,9.6283,9.6283,9.6442,9.6679,9.6636,11.7863,11.7751,11.6872,11.6528,11.649,11.6413,11.6451,11.6259,11.5605,11.5297,11.5182,11.4486,11.4291,11.4137,11.4291,11.4486,11.4871,11.4333,11.3945,11.3907,11.3986,11.3986,11.4025,11.4176,11.4291,11.4253,11.4096,11.406,11.4025,11.4217,11.4561,11.5102,11.5259,11.5759,11.6454,11.6451,11.649,11.649,11.649,11.5676,11.4239,11.3978,11.2816,11.0528,10.9393,10.8485,10.7636,10.6061,10.5179,10.5064,10.4448,10.3561,10.2866,10.2443,10.213,10.1363,10.1248,10.1284,10.1205,10.1166,10.12,10.1428,10.207,10.2574,10.3053,10.4097,10.4907,10.5061,10.4946,10.4682,10.3835,10.2919,10.1996,10.1402,10.1002,10.1002,10.1082,10.1238,10.1241,10.1125,10.1128,10.1241,10.1279,10.1279,10.1279,10.1279,10.1279,10.1279,10.1279,10.1279,10.1279,10.1279,10.1279,10.1279,10.1279,10.1279,10.1279,10.1279,10.1279,10.1279,10.1279,10.1279,10.0923,10.049,9.9339,9.8272,9.7281,9.6482,9.6442,9.6283,9.6283,9.6285,9.6442,9.6598,9.6663,11.9215,11.8597,11.7753,11.7025,11.6528,11.649,11.649,11.649,11.622,11.6143,11.6069,11.5836,11.572,11.5717,11.572,11.5833,11.6108,11.5797,11.5451,11.4948,11.4874,11.4871,11.4986,11.5448,11.572,11.5717,11.5717,11.541,11.5063,11.5412,11.5643,11.5451,11.5877,11.6223,11.649,11.649,11.649,11.649,11.649,11.5676,11.4162,11.3978,11.3014,11.1198,10.9708,10.8752,10.8485,10.6903,10.6018,10.5979,10.5749,10.521,10.4407,10.3792,10.3099,10.2327,10.2186,10.1876,10.1476,10.1873,10.2219,10.2351,10.3002,10.3743,10.4251,10.4794,10.5372,10.5751,10.5484,10.4756,10.3948,10.3104,10.2294,10.1397,10.1279,10.1279,10.1279,10.1279,10.1279,10.1279,10.1279,10.1279,10.1279,10.1279,10.1279,10.1279,10.1279,10.1279,10.1279,10.1279,10.1279,10.1279,10.1279,10.1279,10.1279,10.1279,10.1279,10.1279,10.1279,10.1279,10.1279,10.1241,10.0844,9.9921,9.8772,9.7733,9.6704,9.6283,9.6283,9.6283,9.6283,9.6324,9.6362,9.6476,9.6622,11.9831,11.9023,11.8133,11.7295,11.6528,11.649,11.649,11.649,11.649,11.649,11.649,11.649,11.649,11.649,11.649,11.649,11.649,11.649,11.622,11.58,11.5759,11.5759,11.58,11.6259,11.649,11.649,11.649,11.6262,11.5797,11.622,11.6259,11.5915,11.6259,11.649,11.649,11.649,11.649,11.649,11.6451,11.5706,11.4343,11.4008,11.3214,11.1516,10.9826,10.8977,10.878,10.728,10.6397,10.6397,10.6397,10.5979,10.5177,10.46,10.3987,10.3292,10.3071,10.2847,10.2386,10.2787,10.3076,10.3221,10.3875,10.451,10.5059,10.5331,10.5903,10.6169,10.5941,10.5097,10.4061,10.3446,10.2594,10.1397,10.1279,10.1279,10.1279,10.1279,10.1279,10.1279,10.1279,10.1279,10.1279,10.1279,10.1279,10.1279,10.1279,10.1279,10.1279,10.1279,10.1279,10.1279,10.1279,10.1279,10.1279,10.1279,10.1279,10.1279,10.1279,10.1279,10.1279,10.1243,10.1007,9.9449,9.8187,9.7281,9.6285,9.6283,9.6283,9.6283,9.6283,9.6324,9.6362,9.6523,9.6711,11.9872,11.9023,11.8212,11.7369,11.6567,11.649,11.649,11.649,11.649,11.649,11.649,11.649,11.649,11.649,11.649,11.649,11.649,11.649,11.6454,11.6413,11.6374,11.6374,11.6374,11.6451,11.649,11.649,11.649,11.6451,11.6374,11.6454,11.649,11.6413,11.6413,11.649,11.649,11.649,11.649,11.649,11.649,11.5659,11.4115,11.4,11.3214,11.1555,10.9977,10.9013,10.8687,10.7313,10.6397,10.6397,10.6397,10.6056,10.5369,10.5179,10.4833,10.4023,10.3987,10.3889,10.388,10.3885,10.3966,10.4,10.4703,10.518,10.5361,10.5903,10.6244,10.6397,10.6323,10.5631,10.433,10.3792,10.3017,10.1628,10.1279,10.1279,10.1279,10.1279,10.1279,10.1279,10.1279,10.1279,10.1279,10.1279,10.1279,10.1279,10.1279,10.1279,10.1279,10.1279,10.1279,10.1279,10.1279,10.1279,10.1279,10.1279,10.1279,10.1279,10.1279,10.1279,10.1041,10.0926,10.064,9.9084,9.7701,9.6795,9.6324,9.6285,9.6283,9.6283,9.6283,9.6283,9.6403,9.66,9.6956,12.0411,11.91,11.8869,11.7907,11.6605,11.649,11.649,11.649,11.649,11.649,11.649,11.649,11.649,11.649,11.649,11.649,11.649,11.649,11.649,11.649,11.649,11.649,11.649,11.649,11.649,11.649,11.649,11.649,11.649,11.649,11.649,11.649,11.649,11.649,11.649,11.649,11.649,11.649,11.649,11.5698,11.4316,11.4,11.3173,11.1593,11.0406,10.9513,10.8838,10.7274,10.6397,10.6397,10.6397,10.6323,10.6056,10.5977,10.5636,10.4946,10.4756,10.4523,10.4179,10.4473,10.4764,10.4862,10.5526,10.6046,10.6054,10.6246,10.6397,10.6397,10.6359,10.5708,10.4328,10.383,10.2981,10.1666,10.1279,10.1279,10.1279,10.1279,10.1279,10.1279,10.1279,10.1279,10.1279,10.1279,10.1279,10.1279,10.1279,10.1279,10.1279,10.1279,10.1279,10.1279,10.1279,10.1279,10.1279,10.1279,10.1279,10.1279,10.1279,10.1279,10.0803,10.0247,9.9712,9.8713,9.7422,9.6403,9.6285,9.6283,9.6283,9.6283,9.6283,9.6285,9.6521,9.672,9.7153,12.1177,11.96,11.96,11.8638,11.7141,11.7067,11.6833,11.6528,11.649,11.649,11.649,11.649,11.649,11.649,11.649,11.649,11.649,11.649,11.649,11.649,11.649,11.649,11.649,11.649,11.649,11.649,11.649,11.649,11.649,11.649,11.649,11.649,11.649,11.649,11.649,11.649,11.649,11.649,11.6451,11.5816,11.4667,11.4157,11.3332,11.1989,11.0876,10.967,10.8426,10.7085,10.6397,10.6397,10.6397,10.6397,10.6397,10.6397,10.6169,10.5636,10.5636,10.5438,10.5161,10.541,10.56,10.5692,10.6162,10.6321,10.6362,10.6397,10.6397,10.6397,10.6397,10.5554,10.4174,10.3289,10.2363,10.1512,10.1279,10.1279,10.1279,10.1279,10.1279,10.1279,10.1279,10.1279,10.1279,10.1279,10.1279,10.1279,10.1279,10.1279,10.1279,10.1279,10.1279,10.1279,10.1279,10.1279,10.1279,10.1279,10.1279,10.1279,10.1279,10.1279,10.0764,9.9973,9.9243,9.8506,9.718,9.6324,9.6285,9.6283,9.6283,9.6283,9.6283,9.6362,9.6559,9.6958,9.7391,12.179,12.0292,12.0292,11.9408,11.8058,11.7943,11.7558,11.6913,11.6756,11.6718,11.6682,11.6567,11.649,11.649,11.649,11.649,11.649,11.649,11.649,11.649,11.649,11.649,11.649,11.649,11.649,11.649,11.649,11.649,11.649,11.649,11.649,11.649,11.649,11.649,11.649,11.649,11.649,11.649,11.649,11.6052,11.5148,11.4396,11.3527,11.2505,11.0986,10.9519,10.8208,10.7098,10.6556,10.6397,10.6397,10.6397,10.6397,10.6397,10.6362,10.6323,10.6246,10.6244,10.6321,10.6208,10.6323,10.6318,10.6321,10.6397,10.6397,10.6397,10.6397,10.6397,10.6397,10.5551,10.4054,10.2435,10.1589,10.1279,10.1279,10.1279,10.1279,10.1279,10.1279,10.1279,10.1279,10.1279,10.1279,10.1279,10.1279,10.1279,10.1279,10.1279,10.1279,10.1279,10.1279,10.1279,10.1279,10.1279,10.1279,10.1279,10.1279,10.1279,10.1279,10.1238,10.0923,10.0185,9.9284,9.8295,9.7182,9.6523,9.6283,9.6283,9.6322,9.6283,9.6283,9.636,9.6557,9.7155,9.7672,12.1257,12.0292,12.0292,11.9715,11.8905,11.8828,11.8715,11.8449,11.7789,11.752,11.7366,11.6833,11.6567,11.6528,11.6528,11.649,11.6567,11.6567,11.649,11.649,11.649,11.649,11.649,11.649,11.649,11.649,11.649,11.649,11.649,11.649,11.649,11.649,11.649,11.649,11.649,11.649,11.649,11.649,11.649,11.6094,11.5387,11.4552,11.3646,11.2659,11.1088,10.9769,10.8752,10.7847,10.7113,10.6597,10.6397,10.6397,10.6397,10.6397,10.6397,10.6397,10.6397,10.6397,10.6397,10.6397,10.6397,10.6397,10.6397,10.6397,10.6397,10.6397,10.6397,10.6397,10.6359,10.5549,10.3923,10.2315,10.1471,10.1279,10.1279,10.1279,10.1279,10.1279,10.1279,10.1279,10.1279,10.1279,10.1279,10.1279,10.1279,10.1279,10.1279,10.1279,10.1279,10.1279,10.1279,10.1279,10.1279,10.1279,10.1279,10.1279,10.1279,10.1279,10.1279,10.1279,10.0962,10.0339,9.943,9.8408,9.7309,9.684,9.6562,9.6435,9.6512,9.6399,9.6439,9.6824,9.7216,9.766,9.8136,12.2293,12.1485,12.1068,12.0411,11.9715,11.9641,11.9446,11.9064,11.8635,11.8405,11.8212,11.7484,11.7102,11.7064,11.6723,11.6682,11.7061,11.7102,11.6872,11.6602,11.649,11.649,11.649,11.649,11.649,11.649,11.649,11.649,11.649,11.649,11.649,11.649,11.649,11.649,11.649,11.649,11.649,11.649,11.649,11.625,11.5783,11.5058,11.3909,11.2643,11.1151,10.9951,10.948,10.8295,10.7564,10.7057,10.6631,10.6397,10.6397,10.6397,10.6397,10.6397,10.6397,10.6397,10.6397,10.6397,10.6397,10.6397,10.6397,10.6397,10.6397,10.6397,10.6397,10.6282,10.5938,10.5092,10.3459,10.2197,10.1397,10.1279,10.1279,10.1279,10.1279,10.1279,10.1279,10.1279,10.1279,10.1279,10.1279,10.1279,10.1279,10.1279,10.1279,10.1279,10.1279,10.1279,10.1279,10.1279,10.1279,10.1279,10.1279,10.1279,10.1279,10.1279,10.1279,10.1279,10.1161,10.0385,9.9534,9.8711,9.8009,9.7275,9.6997,9.687,9.6896,9.7053,9.7247,9.7593,9.7947,9.8307,9.8821,12.3633,12.2825,12.21,12.1298,12.0565,12.0488,12.0141,11.9603,11.9334,11.9257,11.9064,11.8251,11.7751,11.7795,11.7105,11.7218,11.7558,11.7709,11.733,11.691,11.6567,11.6682,11.6718,11.6643,11.649,11.649,11.649,11.649,11.649,11.649,11.649,11.649,11.649,11.649,11.649,11.649,11.649,11.649,11.649,11.649,11.6294,11.5605,11.4409,11.3055,11.1662,11.0731,11.0134,10.8941,10.7821,10.7672,10.6862,10.6477,10.6397,10.6397,10.6397,10.6397,10.6397,10.6397,10.6397,10.6397,10.6397,10.6397,10.6397,10.6397,10.6397,10.6397,10.6397,10.6056,10.5559,10.4443,10.2933,10.1894,10.1435,10.1279,10.1279,10.1279,10.1279,10.1279,10.1279,10.1279,10.1279,10.1279,10.1279,10.1279,10.1279,10.1279,10.1279,10.1279,10.1279,10.1279,10.1279,10.1279,10.1279,10.1279,10.1279,10.1279,10.1279,10.1279,10.1279,10.1279,10.1279,10.0813,10.0159,9.961,9.8937,9.8155,9.7723,9.7714,9.7783,9.7863,9.8057,9.8368,9.8639,9.8952,9.9502,12.3633,12.2902,12.2749,12.218,12.1452,12.1375,12.1222,12.1068,12.0375,12.0109,11.9842,11.8523,11.8259,11.8422,11.7949,11.7712,11.7786,11.7786,11.7635,11.7292,11.6874,11.6756,11.7138,11.672,11.6528,11.649,11.649,11.649,11.649,11.649,11.649,11.649,11.6567,11.6567,11.6605,11.6528,11.6605,11.6643,11.6567,11.649,11.6297,11.5685,11.4871,11.3714,11.2599,11.187,11.1019,10.9642,10.8411,10.7713,10.6862,10.6515,10.6397,10.6397,10.6397,10.6397,10.6397,10.6397,10.6397,10.6397,10.6397,10.6397,10.6397,10.6397,10.6397,10.6359,10.6321,10.5938,10.5097,10.4025,10.3727,10.2414,10.1515,10.1358,10.1397,10.1358,10.132,10.1279,10.1279,10.1279,10.1279,10.1279,10.1279,10.1279,10.1279,10.1279,10.1279,10.1279,10.1279,10.1279,10.1279,10.1279,10.1279,10.1279,10.1279,10.1279,10.1279,10.1279,10.1279,10.1279,10.1279,10.1279,10.0866,10.0265,9.9601,9.8844,9.8613,9.8584,9.8594,9.8673,9.8868,9.9101,9.9488,9.9873,10.018,12.3867,12.3441,12.2604,12.1988,12.1645,12.1609,12.1609,12.1529,12.1145,12.0716,12.0056,11.9097,11.8677,11.8795,11.8177,11.7825,11.7783,11.7783,11.7558,11.7102,11.672,11.6643,11.7179,11.6682,11.6567,11.649,11.649,11.649,11.649,11.649,11.6528,11.6605,11.691,11.7176,11.7179,11.7215,11.7179,11.71,11.6756,11.649,11.6413,11.5726,11.5069,11.4528,11.3448,11.256,11.1942,11.0467,10.9203,10.8362,10.7557,10.6939,10.659,10.6436,10.6436,10.6436,10.6397,10.6397,10.6397,10.6397,10.6397,10.6397,10.6397,10.6397,10.6397,10.6359,10.6246,10.5672,10.529,10.4335,10.3886,10.3006,10.2547,10.2073,10.1914,10.1676,10.1438,10.132,10.1279,10.1279,10.1279,10.1279,10.1279,10.1279,10.1279,10.1279,10.1279,10.1279,10.1279,10.1279,10.1279,10.1279,10.1279,10.1279,10.1279,10.1279,10.1279,10.1279,10.1279,10.1279,10.1279,10.1279,10.12,10.0897,10.0183,9.9514,9.9476,9.9452,9.9466,9.9519,9.9904,10.0212,10.0522,10.0791,10.0986,12.4252,12.3947,12.2488,12.176,12.1609,12.1609,12.1609,12.1609,12.1571,12.1056,12.0266,11.963,11.9218,11.8949,11.8446,11.8017,11.7825,11.7783,11.7446,11.6987,11.6605,11.6567,11.672,11.6567,11.649,11.649,11.649,11.649,11.649,11.649,11.6605,11.6948,11.7558,11.794,11.7981,11.8058,11.8017,11.7597,11.7176,11.6759,11.6377,11.5882,11.5536,11.5451,11.4052,11.3203,11.2824,11.1349,11.0121,10.9208,10.8406,10.7631,10.7054,10.6898,10.6898,10.6859,10.6628,10.6436,10.6397,10.6397,10.6397,10.6397,10.6397,10.6397,10.6397,10.6323,10.6172,10.5523,10.5102,10.4679,10.4035,10.3668,10.3085,10.2455,10.2142,10.2073,10.1556,10.1279,10.1279,10.1279,10.1279,10.1317,10.1356,10.1279,10.1279,10.1279,10.1279,10.1279,10.1279,10.1279,10.1279,10.1279,10.1279,10.1279,10.1279,10.1279,10.1279,10.1279,10.1279,10.1279,10.1279,10.1279,10.1238,10.12,10.0882,10.0334,10.0329,10.0368,10.0349,10.0515,10.0974,10.1128,10.1056,10.1135,10.1289,12.4793,12.4021,12.3098,12.2293,12.1645,12.1609,12.1609,12.1609,12.1609,12.1094,12.0299,12.0091,11.9626,11.9066,11.8925,11.8446,11.7981,11.7671,11.7523,11.7218,11.6797,11.6836,11.7328,11.6797,11.6528,11.649,11.649,11.649,11.6605,11.6643,11.6984,11.7558,11.7943,11.8174,11.8905,11.8943,11.8523,11.7943,11.7712,11.7253,11.6682,11.6418,11.63,11.6028,11.533,11.4481,11.3714,11.228,11.0978,11.0098,10.9216,10.8752,10.8595,10.8595,10.8595,10.817,10.74,10.6397,10.6474,10.6556,10.6438,10.6438,10.6397,10.6397,10.6397,10.6397,10.6323,10.6287,10.5636,10.4984,10.4253,10.3438,10.2529,10.2192,10.2176,10.1948,10.1515,10.1637,10.1597,10.1551,10.1666,10.1512,10.1474,10.1356,10.1279,10.1279,10.1279,10.1317,10.1279,10.1279,10.1279,10.1279,10.1279,10.1279,10.1279,10.1279,10.132,10.1317,10.1317,10.132,10.1358,10.1397,10.1476,10.1397,10.1197,10.131,10.1426,10.1428,10.1241,10.1164,10.1202,10.1243,10.1281,10.1438,10.1714,12.4175,12.3367,12.2524,12.1988,12.1648,12.1609,12.1609,12.1609,12.1571,12.1094,12.0305,11.9781,11.9153,11.8548,11.8375,11.8174,11.7748,11.7328,11.7061,11.71,11.672,11.6723,11.6874,11.6682,11.649,11.649,11.6567,11.6872,11.7025,11.733,11.7674,11.8482,11.8943,11.9408,11.9754,11.9792,11.96,11.9061,11.8363,11.7635,11.7215,11.6795,11.649,11.6451,11.5748,11.5171,11.4448,11.311,11.1835,11.095,11.0137,10.937,10.9024,10.8867,10.8867,10.8829,10.8288,10.7669,10.7249,10.7144,10.6872,10.6518,10.64,10.6397,10.6397,10.6397,10.6397,10.6362,10.6056,10.5597,10.5259,10.4999,10.4358,10.3706,10.2924,10.2792,10.2522,10.2147,10.2111,10.2063,10.2053,10.2053,10.1938,10.1746,10.1628,10.1471,10.1435,10.1358,10.1358,10.1279,10.1279,10.1279,10.1279,10.1279,10.1279,10.1279,10.1358,10.1358,10.1358,10.1397,10.1476,10.1517,10.175,10.2214,10.252,10.2597,10.2594,10.2094,10.1592,10.1397,10.1279,10.1515,10.1753,10.2106,10.2371,12.3521,12.2521,12.1876,12.1609,12.1609,12.1609,12.1609,12.1609,12.1609,12.1094,12.0195,11.9281,11.8405,11.7825,11.7638,11.7446,11.7407,11.6797,11.6567,11.649,11.649,11.6528,11.6567,11.649,11.649,11.6528,11.6872,11.733,11.7981,11.8405,11.8869,11.9411,11.9792,12.0331,12.0565,12.0606,12.0452,11.9988,11.8828,11.8097,11.7712,11.7176,11.6797,11.6407,11.5937,11.5508,11.5102,11.4228,11.3033,11.1829,11.1288,11.0598,10.9906,10.9826,10.9826,10.9788,10.9595,10.9172,10.8488,10.7959,10.7385,10.6913,10.6438,10.6397,10.6397,10.6397,10.6169,10.6018,10.5941,10.5828,10.5795,10.5546,10.4978,10.4486,10.438,10.4276,10.4059,10.3477,10.3022,10.2912,10.2943,10.294,10.2748,10.2363,10.2056,10.1743,10.1589,10.1515,10.1476,10.1438,10.1397,10.1435,10.1397,10.1512,10.1782,10.1705,10.163,10.1635,10.1635,10.1676,10.1914,10.2142,10.245,10.2991,10.364,10.35,10.3249,10.2536,10.1863,10.1899,10.194,10.2066,10.2304,10.2773,10.3119,12.3178,12.1683,12.1606,12.1609,12.1609,12.1609,12.1609,12.1609,12.1609,12.1053,12.0036,11.8781,11.8023,11.7597,11.7025,11.672,11.6605,11.6528,11.649,11.649,11.649,11.649,11.649,11.649,11.6528,11.6643,11.7141,11.8023,11.8908,11.9446,11.9872,12.0257,12.0449,12.0872,12.1145,12.126,12.0991,12.0411,11.9366,11.8597,11.8135,11.7635,11.7215,11.6682,11.6413,11.6066,11.5374,11.4995,11.43,11.2865,11.2481,11.2134,11.1445,11.1327,11.1327,11.1327,11.1327,11.0865,11.0101,10.8839,10.7852,10.7426,10.6995,10.6595,10.6631,10.6477,10.6056,10.5561,10.5713,10.5261,10.4748,10.4161,10.4961,10.5171,10.5409,10.5261,10.5038,10.4631,10.4218,10.3938,10.3907,10.3982,10.3979,10.3671,10.3017,10.2705,10.2145,10.2073,10.1876,10.1835,10.1671,10.1592,10.1553,10.1822,10.2438,10.2517,10.2481,10.2494,10.2503,10.2506,10.2588,10.2852,10.3364,10.3969,10.4572,10.4236,10.4111,10.4113,10.383,10.2904,10.2638,10.2919,10.3458,10.4071,10.4152,12.2678,12.1609,12.1609,12.1609,12.1609,12.1609,12.1609,12.1609,12.1571,12.0793,11.955,11.8878,11.7998,11.7182,11.6759,11.649,11.649,11.649,11.649,11.649,11.649,11.649,11.649,11.6528,11.649,11.672,11.7407,11.8251,11.9061,11.9988,12.0644,12.0914,12.0991,12.1222,12.1529,12.1609,12.1337,12.0875,11.9946,11.91,11.9138,11.7677,11.7102,11.7328,11.6643,11.6413,11.6031,11.5536,11.4954,11.4333,11.3753,11.3291,11.2945,11.2904,11.2904,11.2904,11.2868,11.2442,11.1547,11.0165,10.9087,10.8344,10.7729,10.7226,10.7133,10.6785,10.6362,10.6018,10.5905,10.5646,10.5638,10.5961,10.6497,10.6436,10.6349,10.6318,10.6144,10.5892,10.5554,10.5325,10.5251,10.5284,10.521,10.5095,10.4364,10.3671,10.3112,10.2629,10.2508,10.2527,10.2515,10.2705,10.2779,10.3017,10.3635,10.3599,10.3448,10.3463,10.348,10.3524,10.3634,10.4087,10.4567,10.5133,10.5833,10.6136,10.63,10.6364,10.5682,10.4369,10.3912,10.3925,10.4574,10.5372,10.5283,12.2408,12.1648,12.1609,12.1609,12.1609,12.1609,12.1609,12.1609,12.1609,12.0837,11.9449,11.9194,11.8309,11.7146,11.6569,11.649,11.6605,11.6759,11.6682,11.6682,11.6759,11.6679,11.6643,11.6795,11.7025,11.7141,11.8026,11.902,11.9562,12.0292,12.0949,12.1375,12.1571,12.1571,12.1571,12.1609,12.1609,12.1222,12.068,11.9831,11.9988,11.8526,11.7295,11.7674,11.6948,11.6528,11.6339,11.5957,11.5572,11.5143,11.4679,11.4253,11.406,11.3981,11.3981,11.3984,11.3948,11.3714,11.2849,11.1297,10.9866,10.8877,10.8426,10.8085,10.7903,10.748,10.7285,10.6826,10.6787,10.6803,10.6812,10.7108,10.7564,10.7493,10.7857,10.7869,10.7759,10.7559,10.7115,10.6754,10.6633,10.6477,10.6246,10.6054,10.5279,10.4462,10.3721,10.341,10.3374,10.3501,10.3767,10.4036,10.439,10.4705,10.5023,10.5254,10.5369,10.4869,10.4889,10.4837,10.4978,10.5315,10.5997,10.6908,10.7605,10.8249,10.8192,10.7751,10.6769,10.5561,10.5464,10.5527,10.5874,10.6517,10.6341,12.237,12.1606,12.1609,12.1609,12.1609,12.1609,12.1609,12.1609,12.1571,12.1068,12.01,11.9449,11.8677,11.7712,11.7067,11.6836,11.7064,11.7484,11.7484,11.7141,11.7292,11.7176,11.7176,11.7292,11.7635,11.8177,11.9023,11.9869,12.0177,12.0952,12.1452,12.1568,12.1609,12.1609,12.1609,12.1609,12.1609,12.1571,12.1414,12.0872,12.0334,11.926,11.8292,11.7946,11.7025,11.6528,11.6413,11.6374,11.5992,11.5566,11.5412,11.4986,11.4486,11.4407,11.433,11.4291,11.4264,11.4143,11.3813,11.1602,11.0396,10.9732,10.9633,10.9168,10.9008,10.8749,10.8364,10.7787,10.7675,10.7644,10.7677,10.7854,10.8344,10.8731,10.9058,10.921,10.9061,10.919,10.8744,10.8023,10.779,10.7634,10.7326,10.69,10.6121,10.5295,10.4418,10.4218,10.4558,10.4784,10.5236,10.5705,10.6174,10.639,10.6744,10.7213,10.7213,10.6672,10.622,10.6077,10.6043,10.6238,10.7133,10.8362,10.888,10.9149,10.907,10.892,10.8095,10.7471,10.7295,10.7395,10.7582,10.753,10.7275,12.1873,12.1609,12.1609,12.1609,12.1609,12.1609,12.1609,12.1609,12.1532,12.1106,12.0254,11.9446,11.8985,11.8446,11.7907,11.7602,11.8138,11.8331,11.8333,11.8177,11.802,11.81,11.8061,11.7981,11.8174,11.8831,11.9792,12.0369,12.0292,12.1183,12.1532,12.1609,12.1609,12.1609,12.1609,12.1609,12.1609,12.1455,12.1106,12.0757,12.0837,11.9411,11.8405,11.8482,11.7221,11.6528,11.649,11.649,11.6297,11.6028,11.5989,11.5797,11.5525,11.5487,11.5525,11.5564,11.5608,11.5368,11.4846,11.3481,11.2745,11.2011,11.1196,11.0657,11.0623,11.0021,10.9406,10.8829,10.8788,10.8713,10.8518,10.9135,10.965,10.9841,11.0094,11.0174,11.0182,11.0505,11.0365,10.937,10.8831,10.829,10.7905,10.7764,10.7105,10.6895,10.6218,10.6497,10.6864,10.6821,10.7059,10.7581,10.7994,10.8174,10.8426,10.8705,10.8636,10.8057,10.7491,10.7108,10.7146,10.7208,10.7799,10.8752,10.9378,10.9883,11.0024,11.0069,10.9967,10.9609,10.8976,10.8817,10.907,10.8687,10.8057,12.1609,12.1609,12.1609,12.1609,12.1609,12.1609,12.1609,12.1609,12.1571,12.126,12.068,11.9908,11.9523,11.9254,11.8751,11.8135,11.8712,11.8985,11.8751,11.8712,11.8479,11.8559,11.8712,11.8866,11.9138,11.9677,12.0257,12.0795,12.0834,12.1337,12.1568,12.1609,12.1609,12.1609,12.1609,12.1609,12.1571,12.1455,12.1183,12.0914,12.0529,11.9526,11.8443,11.8138,11.7372,11.649,11.649,11.649,11.649,11.649,11.649,11.649,11.649,11.649,11.649,11.649,11.6413,11.6176,11.5621,11.4906,11.4374,11.4626,11.3283,11.2475,11.2313,11.1945,11.1522,11.0944,11.0326,11.0398,11.0585,11.1158,11.0724,11.0918,11.0879,11.0997,11.0959,11.1244,11.1208,11.0252,10.9562,10.9024,10.8526,10.8432,10.8134,10.8154,10.8136,10.8614,10.8968,10.8726,10.86,10.902,10.9532,10.9717,10.9816,10.9936,10.9788,10.9403,10.8702,10.7977,10.8052,10.8061,10.86,10.9203,11.0087,11.0803,11.1121,11.1203,11.0846,11.0404,10.9811,10.991,11.0397,10.9705,10.8749,12.1609,12.1609,12.1609,12.1609,12.1609,12.1609,12.1609,12.1609,12.1609,12.1609,12.1494,12.0526,12.0065,12.0065,11.9408,11.8751,11.8559,11.91,11.8985,11.8674,11.8985,11.9215,11.9523,11.9834,12.0023,12.0485,12.0988,12.1298,12.1529,12.1568,12.1571,12.1609,12.1609,12.1609,12.1609,12.1609,12.1609,12.1494,12.1455,12.1145,12.0644,11.9638,11.8751,11.8138,11.7218,11.6605,11.649,11.649,11.649,11.649,11.649,11.649,11.649,11.649,11.649,11.649,11.649,11.641,11.6253,11.5577,11.5657,11.5789,11.4912,11.4299,11.389,11.3637,11.3253,11.2945,11.2519,11.3019,11.3445,11.2563,11.1758,11.1747,11.1632,11.159,11.1434,11.1475,11.1475,11.0978,11.0367,10.9796,10.9224,10.9011,10.926,10.9676,10.9847,11.0214,11.0411,11.0088,11.0003,11.0077,11.0602,11.1157,11.1206,11.0901,11.0443,10.9882,10.9204,10.8554,10.8701,10.8947,10.9464,11.0089,11.1022,11.1627,11.1841,11.1741,11.1489,11.0978,11.0428,11.0487,11.0826,11.0001,10.9239,12.1609,12.1609,12.1609,12.1609,12.1609,12.1609,12.1609,12.1609,12.1609,12.1571,12.1491,12.0062,11.9949,12.0183,11.9449,11.9372,11.9795,12.0334,12.0642,12.0449,11.9872,12.0334,12.0526,12.0565,12.0757,12.1103,12.1452,12.1648,12.1645,12.1606,12.1609,12.1609,12.1609,12.1609,12.1609,12.1609,12.1609,12.1609,12.1609,12.1337,12.0721,11.9757,11.9061,11.8292,11.7256,11.6759,11.6605,11.6605,11.6605,11.6567,11.6528,11.649,11.649,11.649,11.649,11.649,11.649,11.649,11.6451,11.6292,11.625,11.641,11.5896,11.5514,11.5176,11.4871,11.4679,11.4368,11.3981,11.4099,11.394,11.3244,11.2676,11.2489,11.2217,11.1752,11.167,11.167,11.1632,11.1321,11.0752,11.0447,10.9875,10.9971,11.0294,11.099,11.1479,11.1799,11.1865,11.1508,11.1157,11.1195,11.1275,11.1673,11.1552,11.1244,11.0833,11.0333,10.963,10.9102,10.9083,10.9387,11.0136,11.098,11.1932,11.2276,11.2426,11.2174,11.1651,11.144,11.096,11.1079,11.1006,11.0282,10.9941,12.1609,12.1609,12.1609,12.1609,12.1609,12.1609,12.1609,12.1609,12.1609,12.1452,12.1029,12.0449,12.018,12.0295,12.018,12.018,12.0254,12.0526,12.0795,12.0642,12.0606,12.0914,12.1068,12.118,12.1447,12.1719,12.1834,12.1799,12.1876,12.1683,12.1609,12.1609,12.1609,12.1609,12.1609,12.1609,12.1609,12.1609,12.1532,12.1375,12.0721,11.9834,11.9177,11.8523,11.741,11.7138,11.7025,11.7028,11.7025,11.691,11.6833,11.649,11.649,11.649,11.649,11.649,11.649,11.649,11.649,11.649,11.649,11.649,11.649,11.622,11.5987,11.5717,11.5525,11.5256,11.4871,11.4522,11.4168,11.3816,11.3483,11.3187,11.2527,11.1909,11.1868,11.187,11.1711,11.1478,11.117,11.0903,11.0799,11.0971,11.1325,11.1938,11.2535,11.3003,11.3091,11.2879,11.2337,11.2068,11.195,11.2027,11.1821,11.1663,11.1217,11.075,11.012,10.9681,10.9517,11.0135,11.1122,11.2,11.2864,11.2925,11.2789,11.2172,11.1699,11.1474,11.1271,11.1229,11.1124,11.0824,11.0632,12.1609,12.1609,12.1609,12.1609,12.1609,12.1609,12.1609,12.1609,12.1609,12.118,12.0721,12.1106,12.0837,12.0411,12.0488,12.0372,12.0257,12.0334,12.0526,12.0372,12.0642,12.1029,12.1414,12.1683,12.1908,12.2216,12.2293,12.2103,12.2296,12.2029,12.1609,12.1609,12.1609,12.1609,12.1609,12.1609,12.1609,12.1609,12.1532,12.1378,12.0606,11.968,11.8828,11.8325,11.8017,11.7902,11.7905,11.7905,11.7902,11.7635,11.733,11.6913,11.6718,11.6913,11.6913,11.6646,11.6688,11.6646,11.6569,11.649,11.649,11.649,11.649,11.6413,11.6297,11.6259,11.6028,11.5951,11.5605,11.5528,11.525,11.4508,11.4014,11.3805,11.3354,11.2829,11.2574,11.2624,11.264,11.2404,11.2247,11.198,11.1717,11.1889,11.2403,11.2928,11.3481,11.4063,11.4346,11.4231,11.3615,11.3035,11.2802,11.2665,11.2377,11.2124,11.1651,11.1156,11.0507,11.0043,10.9777,11.0813,11.2231,11.3221,11.4148,11.3383,11.296,11.24,11.1869,11.1389,11.1231,11.1213,11.1117,11.106,11.1012,12.1609,12.1609,12.1609,12.1609,12.1571,12.1609,12.1609,12.1609,12.1609,12.1455,12.1222,12.0837,12.0452,12.018,11.9988,11.9795,11.9718,12.0257,12.0292,12.0603,12.0914,12.1183,12.1683,12.2065,12.2296,12.2139,12.2177,12.237,12.1988,12.1722,12.1609,12.1609,12.1609,12.1609,12.1609,12.1609,12.1609,12.1609,12.1532,12.1494,12.1106,12.0526,11.9831,11.9446,11.9254,11.8828,11.8792,11.8789,11.8789,11.8677,11.8641,11.8177,11.7558,11.8061,11.7679,11.6916,11.7042,11.6886,11.6649,11.649,11.649,11.649,11.649,11.649,11.649,11.649,11.6451,11.6415,11.6415,11.6415,11.6143,11.5245,11.4547,11.4382,11.4214,11.3788,11.3327,11.3385,11.3522,11.3407,11.3327,11.306,11.2758,11.3,11.3472,11.4038,11.4552,11.511,11.5547,11.5569,11.4822,11.4245,11.3791,11.3533,11.3126,11.2585,11.2091,11.1444,11.0787,11.0377,11.0152,11.1602,11.3213,11.4631,11.5332,11.4163,11.3182,11.2751,11.2221,11.1497,11.1409,11.1487,11.1447,11.139,11.1269,12.1029,12.1068,12.1452,12.1375,12.1145,12.1414,12.1609,12.1609,12.1609,12.1609,12.1455,12.068,11.9946,11.96,11.9408,11.9603,11.9754,12.0526,12.0872,12.1145,12.1222,12.1455,12.1876,12.2257,12.2716,12.2678,12.2982,12.2947,12.1799,12.1609,12.1609,12.1609,12.1609,12.1609,12.1609,12.1609,12.1609,12.1609,12.1609,12.1609,12.1491,12.0872,12.0331,12.0103,11.9949,11.9638,11.9638,11.9636,11.9638,11.9446,11.9257,11.8523,11.802,11.8058,11.7907,11.7374,11.7114,11.7004,11.6649,11.649,11.649,11.649,11.649,11.649,11.649,11.649,11.649,11.6451,11.6451,11.6451,11.6262,11.5522,11.5124,11.4904,11.4813,11.4574,11.4201,11.4044,11.394,11.3753,11.3673,11.3637,11.3571,11.4014,11.4483,11.4747,11.5333,11.5701,11.6253,11.649,11.5855,11.5343,11.4819,11.4203,11.3665,11.3056,11.2444,11.1784,11.1128,11.15,11.1771,11.2913,11.4199,11.5074,11.52,11.416,11.3347,11.2797,11.2142,11.1371,11.1533,11.182,11.1825,11.1915,11.2095,12.0455,12.0449,12.1222,12.1106,12.0526,12.1222,12.1609,12.1609,12.1609,12.1491,12.1222,12.0449,11.9292,11.9251,11.9482,11.9985,12.0408,12.068,12.1145,12.1298,12.1491,12.1571,12.1722,12.2026,12.2908,12.3332,12.3444,12.2678,12.1648,12.1609,12.1609,12.1609,12.1686,12.1725,12.1648,12.1725,12.1837,12.1648,12.1609,12.1609,12.1298,12.0911,12.068,12.0526,12.0488,12.0449,12.0449,12.0446,12.0446,12.0292,11.9988,11.9292,11.8751,11.8597,11.8097,11.7756,11.7221,11.6916,11.6569,11.649,11.649,11.649,11.649,11.649,11.649,11.6528,11.6528,11.6528,11.6528,11.6451,11.6262,11.6066,11.5706,11.547,11.5454,11.5393,11.5066,11.478,11.4594,11.4368,11.4368,11.4333,11.4497,11.4981,11.5292,11.5558,11.5819,11.619,11.649,11.649,11.6212,11.5934,11.5668,11.5008,11.45,11.3589,11.2911,11.2481,11.2057,11.2705,11.326,11.3695,11.4197,11.4785,11.4614,11.3887,11.3143,11.2489,11.1828,11.1563,11.2077,11.2554,11.2638,11.2782,11.3159,12.0937,12.0369,12.1222,12.1103,12.0526,12.1222,12.1609,12.1609,12.1571,12.1222,12.0603,11.9908,11.9677,12.0798,12.0292,12.0254,12.0177,12.0565,12.0565,12.0565,12.1334,12.1529,12.1876,12.2488,12.3601,12.3562,12.2947,12.1991,12.1686,12.1648,12.1648,12.1686,12.2485,12.237,12.1837,12.1991,12.2334,12.2026,12.1683,12.1606,12.1683,12.1452,12.1414,12.1337,12.1337,12.1375,12.1375,12.1337,12.1337,12.1296,12.1065,12.0452,11.9834,11.9328,11.8828,11.8058,11.7523,11.699,11.6682,11.6528,11.649,11.649,11.649,11.649,11.6528,11.6605,11.6643,11.6682,11.6682,11.6643,11.649,11.6374,11.6135,11.6135,11.611,11.6113,11.5948,11.5907,11.5794,11.5717,11.5717,11.5487,11.5143,11.5503,11.5742,11.5968,11.6042,11.6377,11.649,11.649,11.649,11.6371,11.625,11.6327,11.5986,11.4293,11.3443,11.3036,11.2688,11.2809,11.3086,11.3696,11.4238,11.4825,11.4572,11.3891,11.3113,11.2597,11.2702,11.2627,11.3031,11.3404,11.3452,11.3689,11.4076]},{"header":{"parameterUnit":"m.s-1","parameterCategory":1,"la1":31.0,"la2":29.5877,"lo1":-88.7671,"lo2":-86.6584,"dx":0.0162,"dy":0.0185,"nx":115,"ny":88,"refTime":"2023-02-02T06:00:00:Z","depth":0,"parameterNumber":3,"parameterNumberName":"V-component_of_WINDS"},"data":[0.0,0.0,0.0,0.0,0.0,0.0,0.0,0.0,0.0,0.0,0.0,0.0,0.0,0.0,0.0,0.0,0.0,0.0,0.0,0.0,0.0,0.0,0.0,0.0,0.0,0.0,0.0,0.0,0.0,0.0,0.0,0.0,0.0,0.0,0.0,0.0,0.0,0.0,0.0,0.0,0.0,0.0,0.0,0.0,0.0,0.0,0.0,0.0,0.0,0.0,0.0,0.0,0.0,0.0,0.0,0.0,0.0,0.0,0.0,0.0,0.0,0.0,0.0,0.0,0.0,0.0,0.0,0.0,0.0,0.0,0.0,0.0,0.0,0.0,0.0,0.0,0.0,0.0,0.0,0.0,0.0,0.0,0.0,0.0,0.0,0.0,0.0,0.0,0.0,0.0,0.0,0.0,0.0,0.0,0.0,0.0,0.0,0.0,0.0,0.0,0.0,0.0,0.0,0.0,0.0,0.0,0.0,0.0,0.0,0.0,0.0,0.0,0.0,0.0,0.0,0.0,0.0,0.0,0.0,0.0,0.0,0.0,0.0,0.0,0.0,0.0,0.0,0.0,0.0,0.0,0.0,0.0,0.0,0.0,0.0,0.0,0.0,0.0,0.0,0.0,0.0,0.0,0.0,0.0,0.0,0.0,0.0,0.0,0.0,0.0,0.0,0.0,0.0,0.0,0.0,0.0,0.0,0.0,0.0,0.0,0.0,0.0,0.0,0.0,0.0,0.0,0.0,0.0,0.0,0.0,0.0,0.0,0.0,0.0,0.0,0.0,0.0,0.0,0.0,0.0,0.0,0.0,0.0,0.0,0.0,0.0,0.0,0.0,0.0,0.0,0.0,0.0,0.0,0.0,0.0,0.0,0.0,0.0,0.0,0.0,0.0,0.0,0.0,0.0,0.0,0.0,0.0,0.0,0.0,0.0,0.0,0.0,0.0,0.0,0.0,0.0,0.0,0.0,0.0,0.0,0.0,0.0,0.0,0.0,0.0,0.0,0.0,0.0,0.0,0.0,0.0,0.0,0.0,0.0,0.0,0.0,0.0,0.0,0.0,0.0,0.0,0.0,0.0,0.0,0.0,0.0,0.0,0.0,0.0,0.0,0.0,0.0,0.0,0.0,0.0,0.0,0.0,0.0,0.0,0.0,0.0,0.0,0.0,0.0,0.0,0.0,0.0,0.0,0.0,0.0,0.0,0.0,0.0,0.0,0.0,0.0,0.0,0.0,0.0,0.0,0.0,0.0,0.0,0.0,0.0,0.0,0.0,0.0,0.0,0.0,0.0,0.0,0.0,0.0,0.0,0.0,0.0,0.0,0.0,0.0,0.0,0.0,0.0,0.0,0.0,0.0,0.0,0.0,0.0,0.0,0.0,0.0,0.0,0.0,0.0,0.0,0.0,0.0,0.0,0.0,0.0,0.0,0.0,0.0,0.0,0.0,0.0,0.0,0.0,0.0,0.0,0.0,0.0,0.0,0.0,0.0,0.0,0.0,0.0,0.0,0.0,0.0,0.0,0.0,0.0,0.0,0.0,0.0,0.0,0.0,0.0,0.0,0.0,0.0,0.0,0.0,0.0,0.0,0.0,0.0,0.0,0.0,0.0,0.0,0.0,0.0,0.0,0.0,0.0,0.0,0.0,0.0,0.0,0.0,0.0,0.0,0.0,0.0,0.0,0.0,0.0,0.0,0.0,0.0,0.0,0.0,0.0,0.0,0.0,0.0,0.0,0.0,0.0,0.0,0.0,0.0,0.0,0.0,0.0,0.0,0.0,0.0,0.0,0.0,0.0,0.0,0.0,0.0,0.0,0.0,0.0,0.0,0.0,0.0,0.0,0.0,0.0,0.0,0.0,0.0,0.0,0.0,0.0,0.0,0.0,0.0,0.0,0.0,0.0,0.0,0.0,0.0,0.0,0.0,0.0,0.0,0.0,0.0,0.0,0.0,0.0,0.0,0.0,0.0,0.0,0.0,0.0,0.0,0.0,0.0,0.0,0.0,0.0,0.0,0.0,0.0,0.0,0.0,0.0,0.0,0.0,0.0,0.0,0.0,0.0,0.0,0.0,0.0,0.0,0.0,0.0,0.0,0.0,0.0,0.0,0.0,0.0,0.0,0.0,0.0,0.0,0.0,0.0,0.0,0.0,0.0,0.0,0.0,0.0,0.0,0.0,0.0,0.0,0.0,0.0,0.0,0.0,0.0,0.0,0.0,0.0,0.0,0.0,0.0,0.0,0.0,0.0,0.0,0.0,0.0,0.0,0.0,0.0,0.0,0.0,0.0,0.0,0.0,0.0,0.0,0.0,0.0,0.0,0.0,0.0,0.0,0.0,0.0,0.0,0.0,0.0,0.0,0.0,0.0,0.0,0.0,0.0,0.0,0.0,0.0,0.0,0.0,0.0,0.0,0.0,0.0,0.0,0.0,0.0,0.0,0.0,0.0,0.0,0.0,0.0,0.0,0.0,0.0,0.0,0.0,0.0,0.0,0.0,0.0,0.0,0.0,0.0,0.0,0.0,0.0,0.0,0.0,0.0,0.0,0.0,0.0,0.0,0.0,0.0,0.0,0.0,0.0,0.0,0.0,0.0,0.0,0.0,0.0,0.0,0.0,0.0,0.0,0.0,0.0,0.0,0.0,0.0,0.0,0.0,0.0,0.0,0.0,0.0,0.0,0.0,0.0,0.0,0.0,0.0,0.0,0.0,0.0,0.0,0.0,0.0,0.0,0.0,0.0,0.0,0.0,0.0,0.0,0.0,0.0,0.0,0.0,0.0,0.0,0.0,0.0,0.0,0.0,0.0,0.0,0.0,0.0,0.0,0.0,0.0,0.0,0.0,0.0,0.0,0.0,0.0,0.0,0.0,0.0,0.0,0.0,0.0,0.0,0.0,0.0,0.0,0.0,0.0,0.0,0.0,0.0,0.0,0.0,0.0,0.0,0.0,0.0,0.0,0.0,0.0,0.0,0.0,0.0,0.0,0.0,0.0,0.0,0.0,0.0,0.0,0.0,0.0,0.0,0.0,0.0,0.0,0.0,0.0,0.0,0.0,0.0,0.0,0.0,0.0,0.0,0.0,0.0,0.0,0.0,0.0,0.0,0.0,0.0,0.0,0.0,0.0,0.0,0.0,0.0,0.0,0.0,0.0,0.0,0.0,0.0,0.0,0.0,0.0,0.0,0.0,0.0,0.0,0.0,0.0,0.0,0.0,0.0,0.0,0.0,0.0,0.0,0.0,0.0,0.0,0.0,0.0,0.0,0.0,0.0,0.0,0.0,0.0,0.0,0.0,0.0,0.0,0.0,0.0,0.0,0.0,0.0,0.0,0.0,0.0,0.0,0.0,0.0,0.0,0.0,0.0,0.0,0.0,0.0,0.0,0.0,0.0,0.0,0.0,0.0,0.0,0.0,0.0,0.0,0.0,0.0,0.0,0.0,0.0,0.0,0.0,0.0,0.0,0.0,0.0,0.0,0.0,0.0,0.0,0.0,0.0,0.0,0.0,0.0,0.0,0.0,0.0,0.0,0.0,0.0,0.0,0.0,0.0,0.0,0.0,0.0,0.0,0.0,0.0,0.0,0.0,0.0,0.0,0.0,0.0,0.0,0.0,0.0,0.0,0.0,0.0,0.0,0.0,0.0,0.0,0.0,0.0,0.0,0.0,0.0,0.0,0.0,0.0,0.0,0.0,0.0,0.0,0.0,0.0,0.0,0.0,0.0,0.0,0.0,0.0,0.0,0.0,0.0,0.0,0.0,0.0,0.0,0.0,0.0,0.0,0.0,0.0,0.0,0.0,0.0,0.0,0.0,0.0,0.0,0.0,0.0,0.0,0.0,0.0,0.0,0.0,0.0,0.0,0.0,0.0,0.0,0.0,0.0,0.0,0.0,0.0,0.0,0.0,0.0,0.0,0.0,0.0,0.0,0.0,0.0,0.0,0.0,0.0,0.0,0.0,0.0,0.0,0.0,0.0,0.0,0.0,0.0,0.0,0.0,0.0,0.0,0.0,0.0,0.0,0.0,0.0,0.0,0.0,0.0,0.0,0.0,0.0,0.0,0.0,0.0,0.0,0.0,0.0,0.0,0.0,0.0,0.0,0.0,0.0,0.0,0.0,0.0,0.0,0.0,0.0,0.0,0.0,0.0,0.0,0.0,0.0,0.0,0.0,0.0,0.0,0.0,0.0,0.0,0.0,0.0,0.0,0.0,0.0,0.0,0.0,0.0,0.0,0.0,0.0,0.0,0.0,0.0,0.0,0.0,0.0,0.0,0.0,0.0,1.0946,0.0,0.0,0.0,0.0,0.0,0.0,0.0,0.0,0.0,0.0,0.0,0.0,0.0,0.0,0.0,0.0,0.0,0.0,0.0,0.0,0.0,0.0,0.0,0.0,0.0,0.0,0.0,0.0,0.0,0.0,0.0,0.0,0.0,0.0,0.0,0.0,0.0,0.0,0.0,0.0,0.0,0.0,0.0,0.0,0.0,0.0,0.0,0.0,0.0,0.0,0.0,0.0,0.0,0.0,0.0,0.0,0.0,0.0,0.0,0.0,0.0,0.0,0.0,0.0,0.0,0.0,0.0,0.0,0.0,0.0,0.0,0.0,0.0,0.0,0.0,0.0,0.0,0.0,0.0,0.0,0.0,0.0,0.0,0.0,0.0,0.0,0.0,0.0,0.0,0.0,0.0,0.0,0.0,0.0,0.0,0.0,0.0,0.0,0.0,0.0,0.0,0.0,0.0,0.0,0.0,0.0,0.0,0.0,0.0,0.0,1.2509,1.2514,1.2381,1.2262,1.2046,0.0,0.0,0.0,0.0,0.0,0.0,0.0,0.0,0.0,0.0,0.0,0.0,0.0,0.0,0.0,0.0,0.0,0.0,0.0,0.0,0.0,0.0,0.0,0.0,0.0,0.0,0.0,0.0,0.0,0.0,0.0,0.0,0.0,0.0,0.0,0.0,0.0,0.0,0.0,0.0,0.0,0.0,0.0,0.0,0.0,0.0,0.0,0.0,0.0,0.0,0.0,0.0,0.0,0.0,0.0,0.0,0.0,0.0,0.0,0.0,0.0,0.0,0.0,0.0,0.0,0.0,0.0,0.0,0.0,0.0,0.0,0.0,0.0,0.0,0.0,0.0,0.0,0.0,0.0,0.0,0.0,0.0,0.0,0.0,0.0,0.0,0.0,0.0,0.0,0.0,0.0,0.0,0.0,0.0,0.0,0.0,0.0,0.0,0.0,0.0,0.0,0.0,0.0,0.0,0.0,0.0,0.0,0.0,0.0,0.0,0.0,0.0,1.2339,1.2342,1.24,0.0,0.0,0.0,0.0,0.0,0.0,0.0,0.0,0.0,0.0,0.0,0.0,0.0,0.0,0.0,0.0,0.0,0.0,0.0,0.0,0.0,0.0,0.0,0.0,0.0,0.0,0.0,0.0,0.0,0.0,0.0,0.0,0.0,0.0,0.0,0.0,0.0,0.0,0.0,0.0,0.0,0.0,0.0,0.0,0.0,0.0,0.0,0.0,0.0,0.0,0.0,0.0,0.0,0.0,0.0,0.0,0.0,0.0,0.0,0.0,0.0,0.0,0.0,0.0,0.0,0.0,0.0,0.0,0.0,0.0,0.0,0.0,0.0,0.0,0.0,0.0,0.0,0.0,0.0,0.0,0.0,0.0,0.0,0.0,0.0,0.0,0.0,0.0,0.0,0.0,0.0,0.0,0.0,0.0,0.0,0.0,0.0,0.0,0.0,0.0,0.0,0.0,0.0,0.0,0.0,0.0,0.0,0.0,0.0,0.0,1.2818,1.2525,1.2463,0.0,1.2466,0.0,0.0,0.0,0.0,0.0,0.0,0.0,0.0,0.0,0.0,0.0,0.0,0.0,0.0,0.0,0.0,0.0,0.0,0.0,0.0,0.0,0.0,0.0,0.0,0.0,0.0,0.0,0.0,0.0,0.0,0.0,0.0,0.0,0.0,0.0,0.0,0.0,0.0,0.0,0.0,0.0,0.0,0.0,0.0,0.0,0.0,0.0,0.0,0.0,0.0,0.0,0.0,0.0,0.0,0.0,0.0,0.0,0.0,0.0,0.0,0.0,0.0,0.0,0.0,0.0,0.0,0.0,0.0,0.0,0.0,0.0,0.0,0.0,0.0,0.0,0.0,0.0,0.0,0.0,0.0,0.0,0.0,0.0,0.0,0.0,0.0,0.0,0.0,0.0,0.0,0.0,0.0,0.0,0.0,0.0,0.0,0.0,0.0,0.0,0.0,0.0,0.0,0.0,0.0,0.0,0.0,0.0,0.0,0.0,0.0,1.3127,1.3271,1.0379,0.9991,0.0,0.0,0.0,0.0,0.0,0.0,0.0,0.0,0.0,0.0,0.0,0.0,0.0,0.0,0.0,0.0,0.0,0.0,0.0,0.0,0.0,0.0,0.0,0.0,0.0,0.0,0.0,0.0,0.0,0.0,0.0,0.0,0.0,0.0,0.0,0.0,0.0,0.0,0.0,0.0,0.0,0.0,0.0,0.0,0.0,0.0,0.0,0.0,0.0,0.0,0.0,0.0,0.0,0.0,0.0,0.0,0.0,0.0,0.0,0.0,0.0,0.0,0.0,0.0,0.0,0.0,0.0,0.0,0.0,0.0,0.0,0.0,0.0,0.0,0.0,0.0,0.0,0.0,0.0,0.0,0.0,0.0,0.0,0.0,0.0,0.0,0.0,0.0,0.0,0.0,0.0,0.0,0.0,0.0,0.0,0.0,0.0,0.0,0.0,0.0,0.0,0.0,0.0,0.0,0.0,0.0,0.0,0.0,0.0,0.0,1.2133,1.219,1.3466,0.8928,0.7188,0.9012,0.0,0.0,0.0,0.0,0.0,0.0,0.0,0.0,0.0,0.0,0.0,0.0,0.0,0.0,0.0,0.0,0.0,0.0,0.0,0.0,0.0,0.0,0.0,0.0,0.0,0.0,0.0,0.0,0.0,0.0,0.0,0.0,0.0,0.0,0.0,0.0,0.0,0.0,0.0,0.0,0.0,0.0,0.0,0.0,0.0,0.0,0.0,0.0,0.0,0.0,0.0,0.0,0.0,0.0,0.0,0.0,0.0,0.0,0.0,0.0,0.0,0.0,0.0,0.0,0.0,0.0,0.0,0.0,0.0,0.0,0.0,0.0,0.0,0.0,0.0,0.0,0.0,0.0,0.0,0.0,0.0,0.0,0.0,0.0,0.0,0.0,0.0,0.0,0.0,0.0,0.0,0.0,0.0,0.0,0.0,0.0,0.0,0.0,0.0,0.0,0.0,0.0,0.0,0.0,0.0,0.0,0.0,0.0,0.0,0.9533,0.9477,1.3541,0.8952,0.4534,0.0,0.0,0.0,0.0,0.0,0.0,0.0,0.0,0.0,0.0,0.0,0.0,0.0,0.0,0.0,0.0,0.0,0.0,0.0,0.0,0.0,0.0,0.0,0.0,0.0,0.0,0.0,0.0,0.0,0.0,0.0,0.0,0.0,0.0,0.0,0.0,0.0,0.0,0.0,0.0,0.0,0.0,0.0,0.0,0.0,0.0,0.0,0.0,0.0,0.0,0.0,0.0,0.0,0.0,0.0,0.0,0.0,0.0,0.0,0.0,0.0,0.0,0.0,0.0,0.0,0.0,0.0,0.0,0.0,0.0,0.0,0.0,0.0,0.0,0.0,0.0,0.0,0.0,0.0,0.0,0.0,0.0,0.0,0.0,0.0,0.0,0.0,0.0,0.0,0.0,0.0,0.0,0.0,0.0,0.0,0.0,0.0,0.0,0.0,0.0,0.0,0.0,0.0,0.0,0.0,0.0,0.0,0.0,0.0,0.9025,1.0789,1.2285,1.3439,1.2144,0.7847,0.0,0.0,0.0,0.0,0.0,0.0,0.0,0.0,0.0,0.0,0.0,0.0,0.0,0.0,0.0,0.0,0.0,0.0,0.0,0.0,0.0,0.0,0.0,0.0,0.0,0.0,0.0,0.0,0.0,0.0,0.0,0.0,0.0,0.0,0.0,0.0,0.0,0.0,0.0,0.0,0.0,0.0,0.0,0.0,0.0,0.0,0.0,0.0,0.0,0.0,0.0,0.0,0.0,0.0,0.0,0.0,0.0,0.0,0.0,0.0,0.0,0.0,0.0,0.0,0.0,0.0,0.0,0.0,0.0,0.0,0.0,0.0,0.0,0.0,0.0,0.0,0.0,0.0,0.0,0.0,0.0,0.0,0.0,0.0,0.0,0.0,0.0,0.0,0.0,0.0,0.0,0.0,0.0,0.0,0.0,0.0,0.0,0.0,0.0,0.0,0.0,0.0,0.0,0.0,0.0,0.0,0.0,0.0,0.0,0.4504,0.0,1.0918,1.3587,1.3891,1.0868,0.0,0.0,0.0,0.0,0.0,0.0,0.0,0.0,0.0,0.0,0.0,0.0,0.0,0.0,0.0,0.0,0.0,0.0,0.0,0.0,0.0,0.0,0.0,0.0,0.0,0.0,0.0,0.0,0.0,0.0,0.0,0.0,0.0,0.0,0.0,0.0,0.0,0.0,0.0,0.0,0.0,0.0,0.0,0.0,0.0,0.0,0.0,0.0,0.0,0.0,0.0,0.0,0.0,0.0,0.0,0.0,0.0,0.0,0.0,0.0,0.0,0.0,0.0,0.0,0.0,0.0,0.0,0.0,0.0,0.0,0.0,0.0,0.0,0.0,0.0,0.0,0.0,0.0,0.0,0.0,0.0,0.0,0.0,0.0,0.0,0.0,0.0,0.0,0.0,0.0,0.0,0.0,0.0,0.0,0.0,0.0,0.0,0.0,0.0,0.0,0.0,0.0,0.0,0.0,0.0,0.0,0.0,0.0,0.0,0.0,0.0,0.4741,1.3667,1.3514,1.3047,0.0,0.0,0.0,0.0,0.0,0.0,0.0,0.0,0.0,0.0,0.0,0.0,0.0,0.0,0.0,0.0,0.0,0.0,0.0,0.0,0.0,0.0,0.0,0.0,0.0,0.0,0.0,0.0,0.0,0.0,0.0,0.0,0.0,0.0,0.0,0.0,0.0,0.0,0.0,0.0,0.0,0.0,0.0,0.0,0.0,0.0,0.0,0.0,0.0,0.0,0.0,0.0,0.0,0.0,0.0,0.0,0.0,0.0,0.0,0.0,0.0,0.0,0.0,0.0,0.0,0.0,0.0,0.0,0.0,0.0,0.0,0.0,0.0,0.0,0.0,0.0,0.0,0.0,0.0,0.0,0.0,0.0,0.0,0.0,0.0,0.0,0.0,0.0,0.0,0.0,0.0,0.0,0.0,0.0,0.0,0.0,0.0,0.0,0.0,0.0,0.0,0.0,0.0,0.0,0.0,0.0,0.0,0.0,0.0,0.0,0.0,0.1405,0.4451,0.9879,1.2683,0.0,0.0,0.0,0.0,0.0,0.0,0.0,0.0,0.0,0.0,0.0,0.0,0.0,0.0,0.0,0.0,0.0,0.0,0.0,0.0,0.0,0.0,0.0,0.0,0.0,0.0,0.0,0.0,0.0,0.0,0.0,0.0,0.0,0.0,0.0,0.0,0.0,0.0,0.0,0.0,0.0,0.0,0.0,0.0,0.0,0.0,0.0,0.0,0.0,0.0,0.0,0.0,0.0,0.0,0.0,0.0,0.0,0.0,0.0,0.0,0.0,0.0,0.0,0.0,0.0,0.0,0.0,0.0,0.0,0.0,0.0,0.0,0.0,0.0,0.0,0.0,0.0,0.0,0.0,0.0,0.0,0.0,0.0,0.0,0.0,0.0,0.0,0.0,0.0,0.0,0.0,0.0,0.0,0.0,0.0,0.0,0.0,0.0,0.0,0.0,0.0,0.0,0.0,0.0,0.0,0.0,0.0,0.0,0.0,0.0,0.0,0.0,0.0,0.5114,0.934,1.2334,0.0,0.0,0.0,0.0,0.0,0.0,0.0,0.0,0.0,0.0,0.0,0.0,0.0,0.0,0.0,0.0,0.0,0.0,0.0,0.0,0.0,0.0,0.0,0.0,0.0,0.0,0.0,0.0,0.0,0.0,0.0,0.0,0.0,0.0,0.0,0.0,0.0,0.0,0.0,0.0,0.0,0.0,0.0,0.0,0.0,0.0,0.0,0.0,0.0,0.0,0.0,0.0,0.0,0.0,0.0,0.0,0.0,0.0,0.0,0.0,0.0,0.0,0.0,0.0,0.0,0.0,0.0,0.0,0.0,0.0,0.0,0.0,0.0,0.0,0.0,0.0,0.0,0.0,0.0,0.0,0.0,0.0,0.0,0.0,0.0,0.0,0.0,0.0,0.0,0.0,0.0,0.0,0.0,0.0,0.0,0.0,0.0,0.0,0.0,0.0,0.0,0.0,0.0,0.0,0.0,0.0,0.0,0.0,0.0,0.0,0.0,0.0,0.0,0.3825,0.0,0.0,0.0,0.0,0.0,0.0,0.0,0.0,0.0,0.0,0.0,0.0,0.0,0.0,0.0,0.0,0.0,0.0,0.0,0.0,0.0,0.0,0.0,0.0,0.0,0.0,0.0,0.0,0.0,0.0,0.0,0.0,0.0,0.0,0.0,0.0,0.0,0.0,0.0,0.0,0.0,0.0,0.0,0.0,0.0,0.0,0.0,0.0,0.0,0.0,0.0,0.0,0.0,0.0,0.0,0.0,0.0,0.0,0.0,0.0,0.0,0.0,0.0,0.0,0.0,0.0,0.0,0.0,0.0,0.0,0.0,0.0,0.0,0.0,0.0,0.0,0.0,0.0,0.0,0.0,0.0,0.0,0.0,0.0,0.0,0.0,0.0,0.0,0.0,0.0,0.0,0.0,0.0,0.0,0.0,0.0,0.0,0.0,0.0,0.0,0.0,0.0,0.0,0.0,0.0,0.0,0.0,0.0,0.0,0.0,0.0,0.0,0.0,0.0,0.2486,0.0,0.0,0.0,0.0,0.0,0.0,0.0,0.0,0.0,0.0,0.0,0.0,0.0,0.0,0.0,0.0,0.0,0.0,0.0,0.0,0.0,0.0,0.0,0.0,0.0,0.0,0.0,0.0,0.0,0.0,0.0,0.0,0.0,0.0,0.0,0.0,0.0,0.0,0.0,0.0,0.0,0.0,0.0,0.0,0.0,0.0,0.0,0.0,0.0,0.0,0.0,0.0,0.0,0.0,0.0,0.0,0.0,0.0,0.0,0.0,0.0,0.0,0.0,0.0,0.0,0.0,0.0,0.0,0.0,0.0,0.0,0.0,0.0,0.0,0.0,0.0,0.0,0.0,0.0,0.0,0.0,0.0,0.0,0.0,0.0,0.0,0.0,0.0,0.0,0.0,0.0,0.0,0.0,0.0,0.0,0.0,0.0,0.0,0.0,0.0,0.0,0.0,0.0,0.0,0.0,0.0,0.0,0.0,0.0,0.0,0.0,0.0,0.0,0.0,0.1138,0.0,0.0,0.0,0.0,0.0,0.0,0.0,0.0,0.0,0.0,0.0,0.0,0.0,0.0,0.0,0.0,0.0,0.0,0.0,0.0,0.0,0.0,0.0,0.0,0.0,0.0,0.0,0.0,0.0,0.0,0.0,0.0,0.0,0.0,0.0,0.0,0.0,0.0,0.0,0.0,0.0,0.0,0.0,0.0,0.0,0.0,0.0,0.0,0.0,0.0,0.0,0.0,0.0,0.0,0.0,0.0,0.0,0.0,0.0,0.0,0.0,0.0,0.0,0.0,0.0,0.0,0.0,0.0,0.0,0.0,0.0,0.0,0.0,0.0,0.0,0.0,0.0,0.0,0.0,0.0,0.0,0.0,0.0,0.0,0.0,0.0,0.0,0.0,0.0,0.0,0.0,0.0,0.0,0.0,0.0,0.0,0.0,0.0,0.0,0.0,0.0,0.0,0.0,0.0,0.0,0.0,0.0,0.0,0.0,0.0,0.0,0.0,0.0,0.0,0.0,0.0,0.0,0.0,0.0,0.0,0.0,0.0,0.0,0.0,0.0,0.0,0.0,0.0,0.0,0.0,0.0,0.0,0.0,0.0,0.0,0.0,0.0,0.0,0.0,0.0,0.0,0.0,0.0,0.0,0.0,0.0,0.0,0.0,0.0,0.0,0.0,0.0,0.0,0.0,0.0,0.0,0.0,0.0,0.0,0.0,0.0,0.0,0.0,0.0,0.0,0.0,0.0,0.0,0.0,0.0,0.0,0.0,0.0,0.0,0.0,0.0,0.0,0.0,0.0,0.0,0.0,0.0,0.0,0.0,0.0,0.0,0.0,0.0,0.0,0.0,0.0,0.0,0.0,0.0,0.0,0.0,0.0,0.0,0.0,0.0,0.0,0.0,0.0,0.0,0.0,0.0,0.0,0.0,0.0,0.0,0.0,0.0,0.0,0.0,0.0,0.0,0.0,0.0,0.0,0.0,0.0,0.0,0.0,1.0445,0.0,0.0,0.0,0.0,0.0,0.0,0.0,0.0,0.0,0.0,0.0,0.0,0.0,0.0,0.0,0.0,0.0,0.0,0.0,0.0,0.0,0.0,0.0,0.0,0.0,0.0,0.0,0.0,0.0,0.0,0.0,0.0,0.0,0.0,0.0,0.0,0.0,0.0,0.0,0.0,0.0,0.0,0.0,0.0,0.0,0.0,0.0,0.0,0.0,0.0,0.0,0.0,0.0,0.0,0.0,0.0,0.0,0.0,0.0,0.0,0.0,0.0,0.0,0.0,0.0,0.0,0.0,0.0,0.0,0.0,0.0,0.0,0.0,0.0,0.0,0.0,0.0,0.0,0.0,0.0,0.0,0.0,0.0,0.0,0.0,0.0,0.0,0.0,0.0,0.0,0.0,0.0,0.0,0.0,0.0,0.0,0.0,0.0,0.0,0.0,0.0,0.0,0.0,0.0,0.0,0.0,0.0,0.0,0.0,0.0,0.0,0.0,0.0,0.0,1.5429,0.9357,0.3197,0.0,0.0,0.0,0.0,0.0,0.0,0.0,0.0,0.0,0.0,0.0,0.0,0.0,0.0,0.0,0.0,0.0,0.0,0.0,0.0,0.0,0.0,0.0,0.0,0.0,0.0,0.0,0.0,0.0,0.0,0.0,0.0,0.0,0.0,0.0,0.0,0.0,0.0,0.0,0.0,0.0,0.0,0.0,0.0,0.0,0.0,0.0,0.0,0.0,0.0,0.0,0.0,0.0,0.0,0.0,0.0,0.0,0.0,0.0,0.0,0.0,0.0,0.0,0.0,0.0,0.0,0.0,0.0,0.0,0.0,0.0,0.0,0.0,0.0,0.0,0.0,0.0,0.0,0.0,0.0,0.0,0.0,0.0,0.0,0.0,0.0,0.0,0.0,0.0,0.0,0.0,0.0,0.0,0.0,0.0,0.0,0.0,0.0,0.0,0.0,0.0,0.0,0.0,0.0,0.0,0.0,0.0,0.0,0.0,0.0,0.0,1.686,1.8011,1.9173,0.7781,0.1029,0.0,0.0,0.0,0.0,0.0,0.0,0.0,0.0,0.0,0.0,0.0,0.0,0.0,0.0,0.0,0.0,0.0,0.0,0.0,0.0,0.0,0.0,0.0,0.0,0.0,0.0,0.0,0.0,0.0,0.0,0.0,0.0,0.0,0.0,0.0,0.0,0.0,0.0,0.0,0.0,0.0,0.0,0.0,0.0,0.0,0.0,0.0,0.0,0.0,0.0,0.0,0.0,0.0,0.0,0.0,0.0,0.0,0.0,0.0,0.0,0.0,0.0,0.0,0.0,0.0,0.0,0.0,0.0,0.0,0.0,0.0,0.0,0.0,0.0,0.0,0.0,0.0,0.0,0.0,0.0,0.0,0.0,0.0,0.0,0.0,0.0,0.0,0.0,0.0,0.0,0.0,0.0,0.0,0.0,0.0,0.0,0.0,0.0,0.0,0.0,0.0,0.0,0.0,0.0,0.0,0.0,0.0,0.0,0.0,1.6766,1.7615,1.8559,1.9546,1.2183,0.558,0.0,0.0,0.0,0.0,0.0,0.0,0.0,0.0,0.0,0.0,0.0,0.0,0.0,0.0,0.0,0.0,0.0,0.0,0.0,0.0,0.0,0.0,0.0,0.0,0.0,0.0,0.0,0.0,0.0,0.0,0.0,0.0,0.0,0.0,0.0,0.0,0.0,0.0,0.0,0.0,0.0,0.0,0.0,0.0,0.0,0.0,0.0,0.0,0.0,0.0,0.0,0.0,0.0,0.0,0.0,0.0,0.0,0.0,0.0,0.0,0.0,0.0,0.0,0.0,0.0,0.0,0.0,0.0,0.0,0.0,0.0,0.0,0.0,0.0,0.0,0.0,0.0,0.0,0.0,0.0,0.0,0.0,0.0,0.0,0.0,0.0,0.0,0.0,0.0,0.0,0.0,0.0,0.0,0.0,0.0,0.0,0.0,0.0,0.0,0.0,0.0,0.0,0.0,0.0,0.0,0.0,0.0,0.0,0.0,1.7255,1.8595,1.9413,1.9761,1.6908,1.0434,0.0,0.0,0.0,0.0,0.0,0.0,0.0,0.0,0.0,0.0,0.0,0.0,0.0,0.0,0.0,0.0,0.0,0.0,0.0,0.0,0.0,0.0,0.0,0.0,0.0,0.0,0.0,0.0,0.0,0.0,0.0,0.0,0.0,0.0,0.0,0.0,0.0,0.0,0.0,0.0,0.0,0.0,0.0,0.0,0.0,0.0,0.0,0.0,0.0,0.0,0.0,0.0,0.0,0.0,0.0,0.0,0.0,0.0,0.0,0.0,0.0,0.0,0.0,0.0,0.0,0.0,0.0,0.0,0.0,0.0,0.0,0.0,0.0,0.0,0.0,0.0,0.0,0.0,0.0,0.0,0.0,0.0,0.0,0.0,0.0,0.0,0.0,0.0,0.0,0.0,0.0,0.0,0.0,0.0,0.0,0.0,0.0,0.0,0.0,0.0,0.0,0.0,0.0,0.0,0.0,0.0,0.0,0.0,0.0,1.7659,1.9036,1.9844,2.0033,2.0336,1.5269,0.4564,0.3682,0.2356,0.0,0.0,0.0,0.0,0.0,0.0,0.0,0.0,0.0,0.0,0.0,0.0,0.0,0.0,0.0,0.0,0.0,0.0,0.0,0.0,0.0,0.0,0.0,0.0,0.0,0.0,0.0,0.0,0.0,0.0,0.0,0.0,0.0,0.0,0.0,0.0,0.0,0.0,0.0,0.0,0.0,0.0,0.0,0.0,0.0,0.0,0.0,0.0,0.0,0.0,0.0,0.0,0.0,0.0,0.0,0.0,0.0,0.0,0.0,0.0,0.0,0.0,0.0,0.0,0.0,0.0,0.0,0.0,0.0,0.0,0.0,0.0,0.0,0.0,0.0,0.0,0.0,0.0,0.0,0.0,0.0,0.0,0.0,0.0,0.0,0.0,0.0,0.0,0.0,0.0,0.0,0.0,0.0,0.0,0.0,0.0,0.0,0.0,0.0,0.0,0.0,0.0,0.0,0.0,0.0,0.0,1.7055,1.8018,1.9047,2.0122,2.0374,1.9713,1.8138,1.6131,1.0286,0.0,0.0,0.0,0.0,0.0,0.0,0.0,0.0,0.0,0.0,0.0,0.0,0.0,0.0,0.0,0.0,0.0,0.0,0.0,0.0,0.0,0.0,0.0,0.0,0.0,0.0,0.0,0.0,0.0,0.0,0.0,0.0,0.0,0.0,0.0,0.0,0.0,0.0,0.0,0.0,0.0,0.0,0.0,0.0,0.0,0.0,0.0,0.0,0.0,0.0,0.0,0.0,0.0,0.0,0.0,0.0,0.0,0.0,0.0,0.0,0.0,0.0,0.0,0.0,0.0,0.0,0.0,0.0,0.0,0.0,0.0,0.0,0.0,0.0,0.0,0.0,0.0,0.0,0.0,0.0,0.0,0.0,0.0,0.0,0.0,0.0,0.0,0.0,0.0,0.0,0.0,0.0,0.0,0.0,0.0,0.0,0.0,0.0,0.0,0.0,0.0,0.0,0.0,0.0,0.0,0.0,1.7222,1.8581,1.9632,2.0234,1.7819,1.6406,1.6283,1.3442,1.1204,0.0,0.0,0.0,0.0,0.0,0.0,0.0,0.0,0.0,0.0,0.0,0.0,0.0,0.0,0.0,0.0,0.0,0.0,0.0,0.0,0.0,0.0,0.0,0.0,0.0,0.0,0.0,0.0,0.0,0.0,0.0,0.0,0.0,0.0,0.0,0.0,0.0,0.0,0.0,0.0,0.0,0.0,0.0,0.0,0.0,0.0,0.0,0.0,0.0,0.0,0.0,0.0,0.0,0.0,0.0,0.0,0.0,0.0,0.0,0.0,0.0,0.0,0.0,0.0,0.0,0.0,0.0,0.0,0.0,0.0,0.0,0.0,0.0,0.0,0.0,0.0,0.0,0.0,0.0,0.0,0.0,0.0,0.0,0.0,0.0,0.0,0.0,0.0,0.0,0.0,0.0,0.0,0.0,0.0,0.0,0.0,0.0,0.0,0.0,0.0,0.0,0.0,0.0,0.0,0.0,0.0,1.7534,1.9016,2.0036,2.0392,1.7015,1.4906,1.4283,1.1739,0.0,0.0,0.0,0.0,0.0,0.0,0.0,0.0,0.0,0.0,0.0,0.0,0.0,0.0,0.0,0.0,0.0,0.0,0.0,0.0,0.0,0.0,0.0,0.0,0.0,0.0,0.0,0.0,0.0,0.0,0.0,0.0,0.0,0.0,0.0,0.0,0.0,0.0,0.0,0.0,0.0,0.0,0.0,0.0,0.0,0.0,0.0,0.0,0.0,0.0,0.0,0.0,0.0,0.0,0.0,0.0,0.0,0.0,0.0,0.0,0.0,0.0,0.0,0.0,0.0,0.0,0.0,0.0,0.0,0.0,0.0,0.0,0.0,0.0,0.0,0.0,0.0,0.0,0.0,0.0,0.0,0.0,0.0,0.0,0.0,0.0,0.0,0.0,0.0,0.0,0.0,0.0,0.0,0.0,0.0,0.0,0.0,0.0,0.0,0.0,0.0,0.0,0.0,0.0,0.0,0.0,0.0,1.7858,1.8792,1.9647,2.0446,2.0194,1.924,1.7635,1.7046,1.655,0.0,0.0,0.0,0.0,0.0,0.0,0.0,0.0,0.0,0.0,0.0,0.0,0.0,0.0,0.0,0.0,0.0,0.0,0.0,0.0,0.0,0.0,0.0,0.0,0.0,0.0,0.0,0.0,0.0,0.0,0.0,0.0,0.0,0.0,0.0,0.0,0.0,0.0,0.0,0.0,0.0,0.0,0.0,0.0,0.0,0.0,0.0,0.0,0.0,0.0,0.0,0.0,0.0,0.0,0.0,0.0,0.0,0.0,0.0,0.0,0.0,0.0,0.0,0.0,0.0,0.0,0.0,0.0,0.0,0.0,0.0,0.0,0.0,0.0,0.0,0.0,0.0,0.0,0.0,0.0,0.0,0.0,0.0,0.0,0.0,0.0,0.0,0.0,0.0,0.0,0.0,0.0,0.0,0.0,0.0,0.0,0.0,0.0,0.0,0.0,0.0,0.0,0.0,0.0,0.0,1.6883,1.7471,1.8697,1.9652,2.0271,2.0277,1.8575,1.5018,1.6972,1.7711,0.0,0.0,0.0,0.0,0.0,0.0,0.0,0.0,0.0,0.0,0.0,0.0,0.0,0.0,0.0,0.0,0.0,0.0,0.0,0.0,0.0,0.0,0.0,0.0,0.0,0.0,0.0,0.0,0.0,0.0,0.0,0.0,0.0,0.0,0.0,0.0,0.0,0.0,0.0,0.0,0.0,0.0,0.0,0.0,0.0,0.0,0.0,0.0,0.0,0.0,0.0,0.0,0.0,0.0,0.0,0.0,0.0,0.0,0.0,0.0,0.0,0.0,0.0,0.0,0.0,0.0,0.0,0.0,0.0,0.0,0.0,0.0,0.0,0.0,0.0,0.0,0.0,0.0,0.0,0.0,0.0,0.0,0.0,0.0,0.0,0.0,0.0,0.0,0.0,0.0,0.0,0.0,0.0,0.0,0.0,0.0,0.0,0.0,0.0,0.0,0.0,0.0,0.0,0.0,0.0,1.7012,1.7508,1.8753,1.9705,2.0286,2.0141,1.84,1.5033,1.6982,1.7129,0.0,0.0,0.0,0.0,0.0,0.0,0.0,0.0,0.0,0.0,0.0,0.0,0.0,0.0,0.0,0.0,0.0,0.0,0.0,0.0,0.0,0.0,0.0,0.0,0.0,0.0,0.0,0.0,0.0,0.0,0.0,0.0,0.0,0.0,0.0,0.0,0.0,0.0,0.0,0.0,0.0,0.0,0.0,0.0,0.0,0.0,0.2753,0.3717,0.0496,0.0,0.0,0.0,0.0,0.0,0.0,0.0,0.0,0.0,0.0,0.0,0.0,0.0,0.0,0.0,0.0,0.0,0.0,0.0,0.0,0.0,0.0,0.0,0.0,0.0,0.0,0.0,0.0,0.0,0.0,0.0,0.0,0.0,0.0,0.0,0.0,0.0,0.0,0.0,0.0,0.0,0.0,0.0,0.0,0.0,0.0,0.0,0.0,0.0,0.0,0.0,0.0,0.0,0.0,0.0,0.0,0.0,1.8158,1.8969,1.9742,2.044,2.0172,1.9536,1.8593,1.7812,1.4746,0.9256,0.0,0.0,0.0,0.0,0.0,0.0,0.0,0.0,0.0,0.0,0.0,0.0,0.0,0.0,0.0,0.0,0.0,0.0,0.0,0.0,0.0,0.0,0.0,0.0,0.0,0.0,0.0,0.0,0.0,0.0,0.0,0.0,0.0,0.0,0.0,0.0,0.0,0.0,0.0,0.0,0.0,0.0,0.0,0.0,0.0,0.8811,1.2047,0.188,0.0,0.0,0.0,0.0,0.0,0.0,0.0,0.0,0.0,0.0,0.0,0.0,0.0,0.0,0.0,0.0,0.0,0.0,0.0,0.0,0.0,0.0,0.0,0.0,0.0,0.0,0.0,0.0,0.0,0.0,0.0,0.0,0.0,0.0,0.0,0.0,0.0,0.0,0.0,0.0,0.0,0.0,1.4107,1.4204,0.0,0.0,0.0,0.0,0.0,0.0,0.0,0.0,0.0,0.0,0.0,0.0,1.6702,1.7543,1.8665,1.9577,2.0204,2.003,1.9468,1.8485,1.8087,1.32,0.3402,0.0,0.0,0.0,0.0,0.0,0.0,0.0,0.0,0.0,0.0,0.0,0.0,0.0,0.0,0.0,0.0,0.0,0.0,0.0,0.0,0.0,0.0,0.0,0.0,0.0,0.6056,0.0,0.0,0.0,0.0,0.0,0.0,0.0,0.0,0.0,0.0,0.0,0.0,0.0,0.6177,0.8092,0.102,0.0,0.0,0.0,0.0,0.0,0.0,0.0,0.0,0.0,0.0,0.0,0.0,0.0,0.0,0.0,0.0,1.1239,1.3836,1.1517,0.8254,0.5284,0.0,0.0,0.0,0.0,0.0,0.0,0.0,0.0,0.0,0.0,0.0,0.0,0.0,0.0,0.0,0.0,1.4313,0.0,0.0,0.0,0.0,0.0,0.0,0.0,0.0,1.4533,1.4514,1.4546,1.4647,1.4652,0.0,1.4509,1.4288,0.0,0.0,0.0,0.0,0.0,0.0,0.0,0.0,1.6598,1.7216,1.8532,1.9445,1.9917,1.9876,1.944,1.8633,1.8144,1.3192,0.3317,0.9705,1.3513,0.0,0.0,0.0,0.0,0.0,0.0,0.0,0.0,0.0,0.0,0.0,0.0,0.0,0.0,0.0,0.0,0.0,0.0,0.0,0.0,0.0,0.0,0.0,0.9272,0.0,0.0,0.0,0.0,0.0,0.0,0.0,0.0,0.0,0.0,0.0,0.0,0.0,0.6074,0.9261,0.6061,0.0,0.0,0.0,0.0,0.0,0.0,0.0,0.6043,0.7662,0.6483,0.5355,0.5552,0.5605,0.5531,0.5311,0.0,0.0,1.414,1.443,1.3361,1.0393,1.0043,1.1159,1.4117,1.426,1.3793,0.0,0.0,0.0,0.0,0.0,0.0,0.0,0.0,1.4346,1.435,0.0,0.0,0.0,0.0,0.0,0.0,0.0,0.0,0.0,0.0,1.5011,1.4958,1.5021,1.5034,1.493,0.0,1.4739,1.4584,1.4333,1.4006,0.0,0.0,0.0,0.0,0.0,0.0,1.6612,1.7243,1.8539,1.936,1.9696,1.9688,1.9509,1.9135,1.7971,1.4622,0.9253,1.2864,1.4386,1.2697,1.3359,0.0,0.0,0.0,0.0,0.0,0.0,0.0,0.0,0.0,0.0,0.0,0.0,0.0,0.0,0.0,0.0,0.0,0.0,0.0,0.0,1.0403,0.0,0.0,0.0,0.0,0.0,0.0,0.0,0.0,0.0,0.0,0.0,0.0,0.0,0.0,0.0,0.0,0.0,0.0,0.0,0.0,0.485,1.0527,1.6105,1.6229,1.408,0.9546,0.0,0.0,1.5909,1.6014,1.56,1.5266,1.5388,1.5935,1.5341,1.5262,1.5092,1.4777,1.4756,1.5214,1.5415,1.5091,1.4737,1.5438,0.0,0.0,0.0,0.0,1.4912,1.4991,1.5081,1.5081,1.5025,1.493,1.4688,0.0,0.0,0.0,0.0,0.0,0.0,1.5053,1.5608,1.5472,1.5496,1.5637,1.5746,1.5707,1.5551,1.5304,1.5108,1.4934,1.4602,1.4378,1.4249,0.0,0.0,0.0,0.0,1.6754,1.7691,1.8593,1.9265,1.9681,1.9556,1.9183,1.8568,1.7889,1.6518,1.4413,1.4773,1.4756,1.422,1.3767,0.0,0.0,0.0,0.0,0.0,0.0,0.0,0.0,0.0,0.0,0.0,0.0,0.0,0.0,0.0,0.0,0.0,0.0,0.0,1.0874,1.1895,0.9256,0.0,0.0,0.0,0.0,0.0,0.0,0.0,0.0,0.0,0.0,0.0,0.0,0.0,0.0,1.3059,1.574,1.3435,0.8783,0.1133,0.0,0.0,0.0,1.6689,1.5829,1.406,1.4756,1.5763,1.6601,1.6736,1.6697,1.6514,1.6617,1.6669,1.6522,1.6279,1.5968,1.5544,1.5566,1.5734,1.5872,1.5791,1.5753,1.6361,1.5761,1.5396,1.5223,1.5253,1.5311,1.5406,1.5494,1.5475,1.5372,1.5184,1.5041,1.4717,1.4286,1.4251,0.0,0.0,0.0,1.5583,1.6139,1.596,1.6003,1.6217,1.6307,1.6287,1.6198,1.5906,1.5701,1.5545,1.5296,1.5059,0.0,0.0,0.0,1.5495,1.6211,1.7046,1.7948,1.8648,1.9225,1.9674,1.9228,1.8815,1.8504,1.7908,1.7383,1.6936,1.5893,1.5127,1.4785,1.4129,1.3631,0.0,0.0,0.0,0.0,0.0,0.0,0.0,0.0,0.0,0.0,0.0,1.2216,0.0,0.0,0.0,0.0,1.1542,1.2828,1.2513,1.1027,0.0,0.0,0.0,0.0,0.0,0.0,0.0,0.0,0.0,0.0,0.0,0.3946,0.5098,0.0625,0.9823,1.6872,1.6506,0.0,1.4125,0.7653,0.7734,1.0475,1.606,1.6904,1.6714,1.6389,1.6237,1.6321,1.6858,1.6997,1.7004,1.7002,1.7006,1.7004,1.699,1.6821,1.6549,1.6071,1.6043,1.6177,1.6313,1.6284,1.6343,1.7331,1.7004,1.6152,1.5754,1.5681,1.5707,1.5708,1.5727,1.5746,1.5591,1.535,1.5432,1.5201,1.4759,1.4678,0.0,0.0,1.5653,1.6133,1.6681,1.6459,1.6485,1.673,1.673,1.6749,1.6749,1.6464,1.626,1.6155,1.5999,1.5839,1.5666,1.5452,1.5544,1.5957,1.6672,1.7392,1.8132,1.8722,1.9239,1.964,1.8795,1.8488,1.8736,1.8016,1.7493,1.725,1.6412,1.5523,1.4706,1.4433,1.3981,1.3268,0.0,0.0,0.0,0.0,0.0,0.0,0.0,0.0,0.0,0.0,0.0,0.0,0.0,0.0,0.0,1.2008,0.0,1.2516,0.907,0.0,0.0,0.0,0.376,1.326,0.6532,0.1059,0.0681,0.0,0.0,0.0,0.0,1.3129,0.2718,1.0405,1.7001,1.7,1.6977,1.6996,1.6327,1.2498,1.1153,1.6105,1.6991,1.6962,1.693,1.6994,1.6963,1.6997,1.7007,1.6991,1.6997,1.6998,1.6998,1.6998,1.6983,1.689,1.6579,1.6532,1.6586,1.6683,1.6629,1.6637,1.7928,1.7677,1.7446,1.6999,1.6458,1.6612,1.672,1.6809,1.6835,1.6717,1.6551,1.6215,1.5765,1.5238,1.5225,1.5403,1.5735,1.5938,1.6257,1.6704,1.6805,1.693,1.7067,1.7073,1.7087,1.7053,1.6762,1.6587,1.6559,1.6423,1.6335,1.6295,1.6482,1.649,1.6388,1.6985,1.767,1.8394,1.8905,1.9203,1.9305,1.8902,1.8599,1.8415,1.7879,1.7433,1.7084,1.6425,1.5749,1.5078,1.4572,1.4018,1.3383,1.3353,0.0,0.0,0.0,0.0,0.0,0.0,0.0,0.0,0.0,1.2245,1.1829,0.0,1.1378,0.0,1.2396,1.2391,1.2822,1.1775,0.0,0.0,0.5291,0.376,1.3187,1.2687,1.0178,0.6501,0.6104,0.4547,0.0502,0.9774,1.5894,1.3312,1.5233,1.6994,1.6995,1.7002,1.7002,1.6866,1.5765,1.5476,1.6624,1.7005,1.6998,1.7003,1.6997,1.6991,1.6996,1.699,1.7004,1.7004,1.7004,1.7004,1.7004,1.7004,1.6984,1.691,1.6958,1.7013,1.6948,1.6903,1.6915,1.8532,1.839,1.8337,1.7982,1.7494,1.7419,1.7446,1.75,1.7412,1.7295,1.7159,1.6782,1.6329,1.5806,1.5799,1.5962,1.6265,1.6428,1.6674,1.702,1.7134,1.7222,1.729,1.7297,1.729,1.7283,1.7101,1.6986,1.6912,1.6904,1.687,1.6816,1.7114,1.7256,1.7236,1.7609,1.8124,1.8794,1.921,1.9388,1.9283,1.8879,1.859,1.8381,1.7758,1.7256,1.689,1.6226,1.5657,1.5213,1.4679,1.4122,1.3529,1.3376,1.3057,0.0,0.0,0.0,0.0,0.0,0.0,0.0,0.0,0.0,0.0,0.0,1.21,0.0,0.0,0.0,1.0309,1.1728,1.3023,1.3705,0.9349,0.8522,1.3932,1.514,1.4462,1.1571,1.1451,1.0536,0.7895,1.2771,1.6771,1.6969,1.7002,1.7002,1.7004,1.7004,1.7005,1.7005,1.7005,1.6998,1.6992,1.6992,1.7004,1.7004,1.7004,1.7004,1.7004,1.7004,1.7004,1.7004,1.7004,1.7004,1.7004,1.7004,1.7004,1.7012,1.7107,1.7142,1.7016,1.7089,1.7148,1.9075,1.9033,1.8913,1.8756,1.8564,1.8213,1.8017,1.7942,1.7778,1.7609,1.7439,1.7177,1.6834,1.6443,1.6449,1.6566,1.679,1.6978,1.7175,1.7392,1.7426,1.7419,1.7406,1.7419,1.7433,1.7412,1.7406,1.7338,1.7216,1.7331,1.7338,1.7256,1.75,1.7791,1.8145,1.8307,1.8687,1.925,1.9559,1.9598,1.9397,1.8839,1.8508,1.8422,1.7677,1.7044,1.6621,1.593,1.5426,1.5145,1.4733,1.4247,1.3694,1.3431,1.3156,0.0,1.2711,0.0,0.0,0.0,0.0,0.0,0.0,0.0,0.0,1.1648,1.2234,1.238,1.2091,1.0689,0.7672,1.0729,1.3195,1.3927,1.4275,1.4509,1.4803,1.5539,1.5836,1.5304,1.5751,1.619,1.6083,1.6602,1.6772,1.6965,1.6992,1.6998,1.7004,1.7004,1.6991,1.7004,1.7004,1.6991,1.6998,1.6991,1.7004,1.7004,1.7004,1.7004,1.7004,1.7004,1.7004,1.7004,1.7004,1.7004,1.7004,1.7004,1.7004,1.6991,1.7107,1.7155,1.7109,1.7291,1.7363,1.9476,1.9317,1.9183,1.9101,1.9067,1.8986,1.8674,1.8219,1.8178,1.8036,1.7786,1.7574,1.7376,1.7189,1.7182,1.7216,1.727,1.7311,1.7338,1.7399,1.7507,1.7561,1.7582,1.7561,1.7568,1.7561,1.7453,1.7392,1.7378,1.7392,1.7392,1.7372,1.769,1.803,0.0,0.0,0.0,0.0,1.9661,1.9598,1.939,1.8963,1.8558,1.8172,1.7746,0.0,1.6237,1.5601,1.5133,1.48,1.4602,0.0,0.0,0.0,0.0,0.0,0.0,0.0,0.0,0.0,0.0,0.0,1.2201,1.1633,1.1395,1.178,1.2115,1.2298,1.2105,1.179,1.1303,1.1864,1.2411,1.2633,1.4047,1.5143,1.5395,1.5594,1.5635,1.5557,1.5869,1.6163,1.6407,1.6575,1.6769,1.6979,1.7005,1.6991,1.7004,1.7004,1.7004,1.7004,1.7004,1.7004,1.7004,1.7004,1.7004,1.7004,1.7004,1.7004,1.7004,1.7004,1.7004,1.7004,1.7004,1.7004,1.7004,1.7004,1.7004,1.7004,1.7107,1.7229,1.7324,1.7589,1.7793,1.9834,0.0,1.9678,1.9578,0.0,0.0,1.9176,1.8742,1.8599,1.8301,1.7895,1.7704,1.7534,1.7392,1.7392,1.744,1.7494,1.7507,1.7555,1.7643,1.7717,1.7744,1.7738,1.7738,1.7751,1.7738,1.7677,1.7602,1.7514,1.7663,1.7663,1.7514,1.7907,1.8274,1.8647,1.9109,1.9464,1.9703,1.971,1.9564,1.9318,1.8967,1.86,1.8199,0.0,0.0,0.0,0.0,0.0,0.0,0.0,0.0,0.0,0.0,0.0,1.3518,1.3517,1.3531,1.3505,1.3428,1.3337,1.3236,1.4004,1.3885,1.2377,1.2095,1.2066,1.2244,1.2215,1.2158,1.206,1.2131,1.2208,1.2293,1.399,1.5294,1.557,1.5742,1.5837,1.5874,1.6043,1.6276,1.651,1.6636,1.6763,1.6958,1.6992,1.7004,1.7004,1.7004,1.7004,1.7004,1.7004,1.7004,1.7004,1.7004,1.7004,1.7004,1.7004,1.7004,1.7004,1.7004,1.7004,1.7004,1.7004,1.7004,1.7004,1.7004,1.7004,1.7011,1.7066,1.7121,1.7217,1.7575,1.7909,2.0139,2.0123,2.0112,1.9965,1.9729,1.9744,1.9544,1.9208,0.0,0.0,0.0,1.7785,1.7629,1.7528,1.75,1.7541,1.7643,1.769,1.7758,1.7908,1.7935,1.7929,1.7922,1.7915,1.7915,1.7915,1.7915,1.7819,1.767,1.7962,1.7955,1.7744,1.8124,1.8518,1.8879,1.9431,1.971,1.971,1.9667,1.9538,1.9284,1.8947,1.8607,1.8314,1.7677,1.7124,1.6718,1.6244,1.5863,1.5577,1.5237,1.4975,1.4758,1.4439,1.4099,1.3748,1.3634,1.3603,1.3715,1.3727,1.377,1.3862,1.5287,1.5333,1.3376,1.2609,1.2299,1.2444,1.2425,1.2283,1.1965,1.2268,1.2577,1.2862,1.4358,1.5467,1.5683,1.597,1.6169,1.616,1.6279,1.6444,1.6655,1.6742,1.681,1.6957,1.6991,1.7004,1.7004,1.7004,1.7004,1.7004,1.7004,1.7004,1.7004,1.7004,1.7004,1.7004,1.7004,1.7004,1.7004,1.7004,1.7004,1.7004,1.7004,1.7004,1.7004,1.7004,1.7004,1.7004,1.7004,1.6999,1.7048,1.7385,1.7738,2.0264,2.0257,2.0159,2.0019,1.9871,1.9878,1.9686,1.9351,1.8981,1.8758,1.8656,1.822,1.803,1.7989,1.7874,1.784,1.7867,1.7968,1.7982,0.0,1.801,1.8003,1.7922,1.7915,1.7915,1.7915,1.7922,1.7881,1.7867,1.8009,1.8077,1.8056,1.832,1.8692,1.9135,1.9518,1.971,1.971,1.9529,1.9508,1.9613,1.8925,1.847,1.8294,1.798,1.7342,1.6426,1.6354,1.6053,1.5471,1.5372,1.5228,1.4968,1.4917,1.4681,1.4251,1.4173,1.4183,1.4211,1.4676,1.5168,1.568,1.6187,1.5753,1.4191,1.353,1.3262,1.3377,1.2898,1.248,1.2439,1.306,1.3988,1.5245,1.5766,1.5989,1.6015,1.6258,1.6385,1.6298,1.6504,1.6635,1.6728,1.6837,1.6951,1.6984,1.6992,1.6998,1.7005,1.7004,1.7004,1.7004,1.7004,1.7004,1.7004,1.7004,1.7011,1.7004,1.7005,1.7012,1.6998,1.6998,1.7005,1.6998,1.7004,1.7004,1.7004,1.7004,1.7004,1.7004,1.7004,1.6992,1.6999,1.7115,1.7324,2.0413,2.0406,2.0338,2.0239,2.0112,1.9958,1.9808,1.9629,1.9284,1.8986,1.8764,1.8375,1.8213,1.8199,1.8071,1.8017,1.8017,1.8003,1.8003,1.801,1.8071,1.8097,1.8111,1.8111,1.8125,1.8125,1.8111,1.8063,1.8023,1.8219,1.8273,1.8253,1.8667,1.9025,1.931,1.9564,1.971,1.9688,1.9605,1.9564,1.9529,1.904,1.8708,1.8573,1.815,1.7674,1.7188,1.6895,1.6586,1.6291,1.6029,1.5798,1.5612,1.5425,1.5201,1.4911,1.4718,1.4682,1.4792,1.5046,1.5527,1.6253,1.6443,1.6317,1.5772,1.4806,1.4255,1.4303,1.3979,1.3693,1.3464,1.3857,1.4669,1.5981,1.6112,1.6163,1.6312,1.6411,1.6495,1.653,1.6608,1.6742,1.6863,1.6937,1.7004,1.6998,1.7,1.7008,1.7009,1.7009,1.7002,1.6993,1.7004,1.7004,1.7011,1.7004,1.7025,1.708,1.7093,1.708,1.7014,1.7001,1.6994,1.6998,1.6991,1.7004,1.7004,1.7004,1.7004,1.7004,1.7004,1.7004,1.6992,1.6994,1.7223,2.0508,2.0508,2.0508,2.0426,2.0286,2.0019,1.9905,1.9856,1.9556,1.9222,1.8912,1.8565,1.8409,1.8403,1.8212,1.8159,1.8145,1.8057,1.8077,1.8138,1.8165,1.824,1.8286,1.8307,1.8307,1.8307,1.8307,1.8246,1.8171,1.8429,1.8551,1.8558,1.8998,1.931,1.9466,1.9667,1.9742,1.9742,1.9742,1.9652,1.9466,1.9128,1.8927,1.8818,1.8269,1.7956,1.7881,1.7459,1.714,1.6984,1.6646,1.6348,1.6156,1.5908,1.5699,1.5543,1.5232,1.5165,1.5356,1.5272,1.5606,1.6536,1.668,1.6784,1.6885,1.6074,1.5375,1.5222,1.4961,1.4752,1.4555,1.4599,1.511,1.6141,1.6166,1.6241,1.6555,1.6602,1.6612,1.6688,1.6723,1.685,1.6998,1.7039,1.704,1.7021,1.7108,1.7197,1.7217,1.721,1.7203,1.7175,1.7133,1.7093,1.7093,1.7113,1.7154,1.7229,1.7243,1.7203,1.7123,1.7063,1.6996,1.6994,1.6993,1.7006,1.7005,1.7004,1.7004,1.7004,1.7004,1.7004,1.6998,1.7,1.7156,2.0508,2.0508,2.0508,2.0426,2.0277,2.0019,1.9912,1.9856,1.9547,1.9383,1.9312,1.8926,1.875,1.871,1.8415,1.8293,1.83,1.8388,1.8374,1.8314,1.8401,1.8415,1.8341,1.8306,1.8307,1.8335,1.8334,1.8348,1.8327,1.862,1.89,1.9108,1.9303,1.9473,1.9674,1.9795,1.9885,1.9885,1.99,1.9802,1.9662,1.9125,1.8873,1.8973,1.846,1.8086,1.7915,1.7855,1.7567,1.7065,1.6964,1.6727,1.6347,1.6259,1.6178,1.6034,1.5725,1.568,1.5946,1.5514,1.574,1.6815,1.7165,1.7214,1.7038,1.7096,1.6829,1.6177,1.5381,1.5192,1.5411,1.5353,1.5718,1.6655,1.6436,1.6325,1.6808,1.6949,1.6883,1.6722,1.6863,1.7038,1.7127,1.7168,1.7136,1.7063,1.7446,1.7709,1.7723,1.7716,1.7723,1.7702,1.752,1.7331,1.7331,1.7365,1.7351,1.7378,1.7372,1.7372,1.7331,1.7197,1.7016,1.7176,1.7002,1.7001,1.7006,1.7004,1.7004,1.7004,1.7004,1.7004,1.6998,1.6998,1.7147,2.0508,2.0508,2.0508,2.0465,2.0386,2.0132,2.0019,1.9983,1.9707,1.9563,1.9535,1.9293,1.9123,1.9028,1.8795,1.8667,1.8607,1.8654,1.864,1.8607,1.8735,1.8802,1.8843,1.8829,1.8822,1.8843,1.8843,1.8781,1.8762,1.894,1.9128,1.933,1.9569,1.9741,1.9839,1.9966,2.0026,2.001,2.0019,1.9951,1.979,1.9379,1.9157,1.9074,1.8751,1.8418,1.8152,1.7977,1.7732,1.7378,1.7263,1.7093,1.6727,1.672,1.6611,1.6355,1.6053,1.6122,1.66,1.6394,1.6542,1.7197,1.7333,1.7368,1.7358,1.7379,1.7264,1.7022,1.663,1.6439,1.6518,1.6407,1.6511,1.6893,1.6762,1.6723,1.6958,1.6993,1.6968,1.691,1.7012,1.7134,1.7188,1.727,1.7291,1.7297,1.7643,1.7901,1.7909,1.7923,1.7909,1.7896,1.7752,1.7595,1.746,1.7392,1.7433,1.75,1.7514,1.7541,1.7643,1.7629,1.7534,1.7519,1.7236,1.7042,1.7001,1.6999,1.7004,1.7004,1.7004,1.7004,1.7004,1.7004,1.7066,2.0508,2.0508,2.0508,2.0508,2.0487,2.0259,2.0166,2.0126,1.9863,1.9749,1.9735,1.9563,1.9434,1.9326,1.915,1.9001,1.8906,1.8913,1.8899,1.892,1.9014,1.9101,1.9196,1.9203,1.9203,1.9203,1.9189,1.9177,1.9136,1.921,1.9344,1.9556,1.9781,1.9931,2.0003,2.0112,2.0166,2.0166,2.0166,2.0071,1.989,1.9664,1.9425,1.9203,1.8933,1.8654,1.8382,1.8056,1.7832,1.7683,1.7534,1.7351,1.7121,1.71,1.6985,1.6735,1.6495,1.6534,1.6979,1.6999,1.7116,1.7351,1.7469,1.7547,1.7589,1.7595,1.7643,1.7697,1.7643,1.748,1.727,1.7143,1.7069,1.7021,1.6994,1.7014,1.71,1.7113,1.712,1.7114,1.7182,1.7277,1.7324,1.7439,1.7555,1.7588,1.7738,1.7923,1.7916,1.7922,1.7922,1.7915,1.7895,1.7799,1.7582,1.7568,1.7589,1.7622,1.7683,1.7738,1.7875,1.7889,1.7895,1.7677,1.7358,1.7116,1.7022,1.7,1.7004,1.7004,1.7004,1.7004,1.7004,1.7004,1.7004,2.0508,2.0514,2.0508,2.0508,2.0494,2.0361,2.03,2.0266,1.9997,1.9876,1.9878,1.9749,1.9681,1.9654,1.9374,1.9211,1.9183,1.9183,1.9197,1.9189,1.9218,1.9203,1.9203,1.9203,1.9208,1.9284,1.9291,1.9318,1.9376,1.9404,1.9569,1.9865,1.9897,2.0039,2.0216,2.027,2.0291,2.03,2.0284,2.0164,1.9953,1.9892,1.9659,1.9237,1.894,1.8701,1.8482,1.812,1.7918,1.7888,1.7717,1.7534,1.7406,1.7365,1.733,1.7221,1.7063,1.6963,1.7002,1.7036,1.7163,1.7399,1.769,1.7786,1.7683,1.7853,1.8009,1.8063,1.8023,1.7846,1.75,1.7372,1.723,1.7069,1.7022,1.7157,1.7372,1.7391,1.7378,1.7351,1.7365,1.7453,1.7575,1.7765,1.7826,1.786,1.7888,1.7908,1.7908,1.7915,1.7915,1.7915,1.7915,1.7908,1.7867,1.7799,1.7826,1.7847,1.7819,1.786,1.7895,1.7909,1.7909,1.7868,1.7595,1.7351,1.7102,1.6994,1.6992,1.7004,1.7004,1.7004,1.7004,1.6998,1.6998,2.0761,2.0675,2.0564,2.0508,2.0494,2.0343,2.0298,2.0293,2.0105,2.0017,2.001,1.9978,1.9958,1.9951,1.9827,1.9693,1.9523,1.9525,1.9517,1.9523,1.962,1.9646,1.9659,1.9741,1.978,1.9764,1.978,1.9752,1.9725,1.9813,1.9854,1.9917,2.0094,2.0212,2.0298,2.0386,2.0433,2.0417,2.0433,2.0307,2.006,2.0039,1.98,1.9343,1.9104,1.8834,1.8495,1.8352,1.8237,1.8158,1.809,1.7955,1.7738,1.7507,1.7399,1.7365,1.7304,1.7244,1.7271,1.7446,1.7608,1.7718,1.7827,1.7909,1.7942,1.803,1.8131,1.8185,1.8138,1.7996,1.7901,1.7759,1.7568,1.7345,1.7453,1.7588,1.7682,1.7709,1.7641,1.7473,1.7487,1.7595,1.7731,1.7847,1.7901,1.7915,1.7915,1.7915,1.7915,1.7915,1.7915,1.7915,1.7915,1.7915,1.7915,1.7901,1.7915,1.7915,1.7895,1.7895,1.7915,1.7915,1.7909,1.7923,1.7731,1.7493,1.7203,1.7001,1.6992,1.7004,1.7004,1.7004,1.7004,1.7005,1.6999,2.0888,2.0772,2.0591,2.0508,2.0478,2.0406,2.0365,2.0352,2.0225,2.0173,2.0151,2.0126,2.0114,2.0114,2.0114,2.0037,1.9897,1.9865,1.9831,1.9829,1.9917,1.998,1.9978,2.0051,2.0114,2.0107,2.0114,2.0044,1.9985,2.0066,2.0064,2.0044,2.0225,2.034,2.0372,2.0451,2.0508,2.0508,2.0508,2.0381,2.017,2.0114,1.9903,1.9533,1.9255,1.8981,1.8665,1.8557,1.8462,1.8382,1.8334,1.8199,1.7976,1.7745,1.7609,1.7555,1.7555,1.7561,1.7575,1.7772,1.7909,1.7909,1.7971,1.806,1.8105,1.8179,1.8266,1.8335,1.8308,1.8219,1.8131,1.8011,1.7813,1.7636,1.7772,1.7915,1.7915,1.7908,1.7786,1.765,1.7656,1.7758,1.7867,1.7895,1.7915,1.7915,1.7915,1.7915,1.7915,1.7915,1.7915,1.7915,1.7915,1.7915,1.7915,1.7915,1.7915,1.7915,1.7915,1.7915,1.7915,1.7915,1.7909,1.7916,1.7779,1.7534,1.7303,1.7074,1.6999,1.6998,1.7004,1.7004,1.7005,1.7006,1.7026,2.0816,2.0779,2.0591,2.0514,2.0508,2.0494,2.0501,2.0467,2.0352,2.0298,2.0277,2.0171,2.0153,2.0126,2.0153,2.0171,2.0239,2.0144,2.0092,2.0085,2.0083,2.0083,2.009,2.0132,2.0153,2.0146,2.0134,2.0112,2.009,2.0123,2.02,2.0279,2.0291,2.0379,2.0485,2.0501,2.0508,2.0508,2.0508,2.0397,2.0224,2.0129,1.9972,1.9676,1.9366,1.9114,1.8979,1.8687,1.8516,1.8496,1.8388,1.8246,1.8138,1.8063,1.8037,1.7887,1.7867,1.7888,1.7888,1.7881,1.7915,1.797,1.8156,1.8216,1.82,1.8355,1.8483,1.851,1.849,1.8414,1.8265,1.8061,1.7899,1.7894,1.7909,1.7909,1.7909,1.7922,1.7908,1.7888,1.7874,1.7908,1.7915,1.7915,1.7915,1.7915,1.7915,1.7915,1.7915,1.7915,1.7915,1.7915,1.7915,1.7915,1.7915,1.7915,1.7915,1.7915,1.7915,1.7915,1.7915,1.7915,1.7909,1.7889,1.767,1.7425,1.7194,1.6999,1.7005,1.7004,1.7004,1.6991,1.7005,1.7019,1.7099,2.1021,2.0929,2.0763,2.0618,2.0514,2.0508,2.0508,2.0508,2.046,2.0447,2.0417,2.0392,2.0372,2.0388,2.0372,2.0408,2.0424,2.0386,2.0325,2.0252,2.0223,2.0239,2.0259,2.034,2.0372,2.0388,2.0388,2.0334,2.0273,2.0318,2.0359,2.0325,2.0383,2.0444,2.0508,2.0508,2.0508,2.0508,2.0508,2.0397,2.021,2.0129,1.9975,1.9701,1.9375,1.9176,1.9114,1.8865,1.8709,1.8702,1.8661,1.8566,1.8395,1.8287,1.8165,1.8043,1.7946,1.7906,1.7922,1.792,1.7981,1.8134,1.8264,1.8337,1.8382,1.8449,1.855,1.8647,1.8585,1.8442,1.83,1.8137,1.8008,1.7922,1.7915,1.7915,1.7915,1.7915,1.7915,1.7915,1.7915,1.7915,1.7915,1.7915,1.7915,1.7915,1.7915,1.7915,1.7915,1.7915,1.7915,1.7915,1.7915,1.7915,1.7915,1.7915,1.7915,1.7915,1.7915,1.7915,1.7915,1.7908,1.7909,1.7745,1.7513,1.7329,1.7092,1.7004,1.7004,1.7004,1.7004,1.6998,1.7005,1.7038,1.7105,2.1129,2.0987,2.0863,2.0666,2.0514,2.0508,2.0508,2.0508,2.0508,2.0508,2.0508,2.0508,2.0508,2.0508,2.0508,2.0508,2.0508,2.0508,2.046,2.037,2.0379,2.0379,2.037,2.0467,2.0508,2.0508,2.0508,2.0451,2.0386,2.046,2.0467,2.039,2.0467,2.0508,2.0508,2.0508,2.0508,2.0508,2.0501,2.0451,2.0307,2.0183,1.9963,1.9695,1.9381,1.9246,1.9242,1.8977,1.8806,1.8806,1.8806,1.8702,1.8531,1.8429,1.8306,1.8199,1.8102,1.8019,1.7938,1.7908,1.8074,1.8375,1.8491,1.8487,1.8525,1.8558,1.8688,1.875,1.8695,1.8531,1.8334,1.8226,1.8105,1.7922,1.7915,1.7915,1.7915,1.7915,1.7915,1.7915,1.7915,1.7915,1.7915,1.7915,1.7915,1.7915,1.7915,1.7915,1.7915,1.7915,1.7915,1.7915,1.7915,1.7915,1.7915,1.7915,1.7915,1.7915,1.7915,1.7915,1.7915,1.7895,1.7881,1.7494,1.723,1.7194,1.6991,1.7004,1.7004,1.7004,1.7004,1.6998,1.7005,1.6993,1.7053,2.112,2.0987,2.0861,2.0695,2.0521,2.0508,2.0508,2.0508,2.0508,2.0508,2.0508,2.0508,2.0508,2.0508,2.0508,2.0508,2.0508,2.0508,2.0485,2.0494,2.0487,2.0487,2.0487,2.0501,2.0508,2.0508,2.0508,2.0501,2.0487,2.0485,2.0508,2.0494,2.0494,2.0508,2.0508,2.0508,2.0508,2.0508,2.0508,2.0491,2.0475,2.023,1.9963,1.9701,1.9423,1.9268,1.9317,1.9013,1.8806,1.8806,1.8806,1.8716,1.8565,1.8516,1.8455,1.8327,1.8306,1.8187,1.801,1.7982,1.82,1.8675,1.8742,1.8738,1.8608,1.8688,1.8778,1.8806,1.8778,1.8655,1.8382,1.8287,1.8179,1.7963,1.7915,1.7915,1.7915,1.7915,1.7915,1.7915,1.7915,1.7915,1.7915,1.7915,1.7915,1.7915,1.7915,1.7915,1.7915,1.7915,1.7915,1.7915,1.7915,1.7915,1.7915,1.7915,1.7915,1.7915,1.7915,1.7915,1.7916,1.7895,1.7717,1.7318,1.7062,1.7027,1.6998,1.6991,1.7004,1.7004,1.7004,1.7004,1.6998,1.7006,1.7014,2.1215,2.1001,2.096,2.079,2.0528,2.0508,2.0508,2.0508,2.0508,2.0508,2.0508,2.0508,2.0508,2.0508,2.0508,2.0508,2.0508,2.0508,2.0508,2.0508,2.0508,2.0508,2.0508,2.0508,2.0508,2.0508,2.0508,2.0508,2.0508,2.0508,2.0508,2.0508,2.0508,2.0508,2.0508,2.0508,2.0508,2.0508,2.0508,2.0498,2.0462,2.023,1.9971,1.9708,1.9468,1.9356,1.9359,1.9006,1.8806,1.8806,1.8806,1.8778,1.8716,1.8716,1.8626,1.849,1.8442,1.8415,1.834,1.8245,1.8399,1.8741,1.88,1.8773,1.873,1.8764,1.8806,1.8806,1.8799,1.8669,1.8396,1.8293,1.8158,1.7969,1.7915,1.7915,1.7915,1.7915,1.7915,1.7915,1.7915,1.7915,1.7915,1.7915,1.7915,1.7915,1.7915,1.7915,1.7915,1.7915,1.7915,1.7915,1.7915,1.7915,1.7915,1.7915,1.7915,1.7915,1.7915,1.7915,1.7916,1.7916,1.7582,1.717,1.7069,1.6998,1.6991,1.7004,1.7004,1.7004,1.7004,1.6991,1.7006,1.7,1.7021,2.1367,2.1089,2.1089,2.0919,2.0639,2.0609,2.0584,2.0514,2.0508,2.0508,2.0508,2.0508,2.0508,2.0508,2.0508,2.0508,2.0508,2.0508,2.0508,2.0508,2.0508,2.0508,2.0508,2.0508,2.0508,2.0508,2.0508,2.0508,2.0508,2.0508,2.0508,2.0508,2.0508,2.0508,2.0508,2.0508,2.0508,2.0508,2.0501,2.0503,2.0493,2.0241,1.9968,1.9715,1.9504,1.9369,1.9225,1.8957,1.8806,1.8806,1.8806,1.8806,1.8806,1.8806,1.875,1.8626,1.8626,1.8621,1.8617,1.8557,1.8605,1.8755,1.8794,1.8792,1.8784,1.8806,1.8806,1.8806,1.8806,1.8642,1.8369,1.8213,1.8064,1.7942,1.7915,1.7915,1.7915,1.7915,1.7915,1.7915,1.7915,1.7915,1.7915,1.7915,1.7915,1.7915,1.7915,1.7915,1.7915,1.7915,1.7915,1.7915,1.7915,1.7915,1.7915,1.7915,1.7915,1.7915,1.7915,1.7915,1.7909,1.7895,1.7541,1.7217,1.7094,1.6998,1.6991,1.7004,1.7004,1.7004,1.7004,1.7005,1.7012,1.7001,1.7022,2.1492,2.1211,2.1211,2.1055,2.0833,2.0813,2.0745,2.0582,2.0571,2.0564,2.0541,2.0521,2.0508,2.0508,2.0508,2.0508,2.0508,2.0508,2.0508,2.0508,2.0508,2.0508,2.0508,2.0508,2.0508,2.0508,2.0508,2.0508,2.0508,2.0508,2.0508,2.0508,2.0508,2.0508,2.0508,2.0508,2.0508,2.0508,2.0508,2.0512,2.0466,2.0235,1.9986,1.9711,1.9554,1.9326,1.911,1.8884,1.8804,1.8806,1.8806,1.8806,1.8806,1.8806,1.8784,1.8778,1.8764,1.8778,1.8792,1.8757,1.8778,1.8807,1.8792,1.8806,1.8806,1.8806,1.8806,1.8806,1.8806,1.8656,1.8377,1.8105,1.7956,1.7915,1.7915,1.7915,1.7915,1.7915,1.7915,1.7915,1.7915,1.7915,1.7915,1.7915,1.7915,1.7915,1.7915,1.7915,1.7915,1.7915,1.7915,1.7915,1.7915,1.7915,1.7915,1.7915,1.7915,1.7915,1.7915,1.7922,1.7909,1.782,1.7534,1.7291,1.7081,1.6993,1.7004,1.7004,1.7011,1.7004,1.7004,1.7018,1.7026,1.7008,1.7003,2.1364,2.1211,2.1211,2.1109,2.0983,2.0969,2.0933,2.0869,2.0786,2.0738,2.0711,2.0584,2.0521,2.0514,2.0514,2.0508,2.0521,2.0521,2.0508,2.0508,2.0508,2.0508,2.0508,2.0508,2.0508,2.0508,2.0508,2.0508,2.0508,2.0508,2.0508,2.0508,2.0508,2.0508,2.0508,2.0508,2.0508,2.0508,2.0508,2.0503,2.0459,2.0247,1.9991,1.9738,1.965,1.9479,1.9176,1.891,1.8797,1.8796,1.8806,1.8806,1.8806,1.8806,1.8806,1.8806,1.8806,1.8806,1.8806,1.8806,1.8806,1.8806,1.8806,1.8806,1.8806,1.8806,1.8806,1.8806,1.8799,1.867,1.8441,1.8113,1.7949,1.7915,1.7915,1.7915,1.7915,1.7915,1.7915,1.7915,1.7915,1.7915,1.7915,1.7915,1.7915,1.7915,1.7915,1.7915,1.7915,1.7915,1.7915,1.7915,1.7915,1.7915,1.7915,1.7915,1.7915,1.7915,1.7915,1.7915,1.7916,1.7848,1.7602,1.7324,1.7035,1.6994,1.6999,1.7045,1.7058,1.7025,1.7018,1.7086,1.7114,1.7069,1.707,2.1564,2.1421,2.1313,2.1215,2.1109,2.1079,2.1062,2.0978,2.0935,2.0895,2.0861,2.0716,2.0632,2.0625,2.0532,2.0541,2.0641,2.0632,2.0591,2.0544,2.0508,2.0508,2.0508,2.0508,2.0508,2.0508,2.0508,2.0508,2.0508,2.0508,2.0508,2.0508,2.0508,2.0508,2.0508,2.0508,2.0508,2.0508,2.0508,2.0514,2.0465,2.0304,2.0069,1.983,1.974,1.9573,1.932,1.9065,1.8936,1.8892,1.8832,1.8806,1.8806,1.8806,1.8806,1.8806,1.8806,1.8806,1.8806,1.8806,1.8806,1.8806,1.8806,1.8806,1.8806,1.8806,1.8806,1.8785,1.871,1.856,1.8374,1.8106,1.7922,1.7915,1.7915,1.7915,1.7915,1.7915,1.7915,1.7915,1.7915,1.7915,1.7915,1.7915,1.7915,1.7915,1.7915,1.7915,1.7915,1.7915,1.7915,1.7915,1.7915,1.7915,1.7915,1.7915,1.7915,1.7915,1.7915,1.7915,1.7909,1.7813,1.769,1.7405,1.7116,1.7002,1.7008,1.7053,1.7126,1.714,1.7161,1.7222,1.7243,1.7224,1.723,2.1835,2.1692,2.153,2.1354,2.1242,2.1228,2.1167,2.1072,2.1025,2.1011,2.0978,2.0867,2.0779,2.0754,2.0616,2.0652,2.0745,2.0788,2.0689,2.0598,2.0521,2.0541,2.0564,2.0535,2.0508,2.0508,2.0508,2.0508,2.0508,2.0508,2.0508,2.0508,2.0508,2.0508,2.0508,2.0508,2.0508,2.0508,2.0508,2.0508,2.049,2.0352,2.0157,1.9966,1.9768,1.9649,1.9435,1.9225,1.9057,1.9001,1.8873,1.8805,1.8806,1.8806,1.8806,1.8806,1.8806,1.8806,1.8806,1.8806,1.8806,1.8806,1.8806,1.8806,1.8806,1.8806,1.8806,1.8716,1.8613,1.8416,1.8208,1.8024,1.7929,1.7915,1.7915,1.7915,1.7915,1.7915,1.7915,1.7915,1.7915,1.7915,1.7915,1.7915,1.7915,1.7915,1.7915,1.7915,1.7915,1.7915,1.7915,1.7915,1.7915,1.7915,1.7915,1.7915,1.7915,1.7915,1.7915,1.7915,1.7915,1.7861,1.7745,1.748,1.7251,1.7183,1.7162,1.7216,1.7269,1.727,1.729,1.7331,1.7365,1.7392,1.7419,2.1835,2.1706,2.1678,2.1527,2.1381,2.1368,2.1341,2.1313,2.1192,2.1128,2.1064,2.0899,2.0819,2.0798,2.0781,2.0772,2.0802,2.0802,2.0759,2.0682,2.0575,2.0571,2.0655,2.0548,2.0514,2.0508,2.0508,2.0508,2.0508,2.0508,2.0508,2.0508,2.0521,2.0521,2.0528,2.0514,2.0528,2.0535,2.0521,2.0508,2.0474,2.035,2.0239,2.0051,1.9854,1.971,1.9591,1.9302,1.9085,1.8993,1.8873,1.8811,1.8806,1.8806,1.8806,1.8806,1.8806,1.8806,1.8806,1.8806,1.8806,1.8806,1.8806,1.8806,1.8806,1.8799,1.8792,1.871,1.8531,1.8313,1.8202,1.8001,1.7928,1.7915,1.7922,1.7915,1.7908,1.7915,1.7915,1.7915,1.7915,1.7915,1.7915,1.7915,1.7915,1.7915,1.7915,1.7915,1.7915,1.7915,1.7915,1.7915,1.7915,1.7915,1.7915,1.7915,1.7915,1.7915,1.7915,1.7915,1.7915,1.7915,1.7785,1.7595,1.7534,1.7554,1.7513,1.7452,1.7399,1.7399,1.7419,1.7446,1.75,1.7568,1.7622,2.1859,2.1801,2.1601,2.1493,2.1415,2.1392,2.1392,2.1395,2.1327,2.1285,2.1203,2.1017,2.0926,2.093,2.0838,2.0809,2.0818,2.0818,2.0745,2.0632,2.0548,2.0535,2.0645,2.0541,2.0521,2.0508,2.0508,2.0508,2.0508,2.0508,2.0514,2.0528,2.0598,2.0661,2.0645,2.0668,2.0645,2.0648,2.0571,2.0508,2.0494,2.034,2.0241,2.0162,1.9988,1.9847,1.9754,1.9571,1.9317,1.9138,1.898,1.8886,1.884,1.8812,1.8812,1.8812,1.8806,1.8806,1.8806,1.8806,1.8806,1.8806,1.8806,1.8806,1.8806,1.8799,1.8764,1.8648,1.8565,1.8353,1.8201,1.8018,1.7923,1.7912,1.7913,1.7914,1.7915,1.7908,1.7915,1.7915,1.7915,1.7915,1.7915,1.7915,1.7915,1.7915,1.7915,1.7915,1.7915,1.7915,1.7915,1.7915,1.7915,1.7915,1.7915,1.7915,1.7915,1.7915,1.7915,1.7915,1.7915,1.7915,1.7915,1.7833,1.7834,1.7799,1.7792,1.7704,1.7623,1.7548,1.7616,1.767,1.7711,1.7758,1.7778,2.1926,2.1855,2.1581,2.1435,2.1392,2.1392,2.1392,2.1392,2.1385,2.1379,2.1358,2.1144,2.1005,2.0957,2.0885,2.0843,2.0809,2.0818,2.0709,2.0612,2.0528,2.0521,2.0548,2.0521,2.0508,2.0508,2.0508,2.0508,2.0508,2.0508,2.0528,2.0605,2.0745,2.0829,2.082,2.0833,2.0843,2.0752,2.0661,2.0555,2.0471,2.0352,2.0291,2.0325,2.0159,2.0024,1.9926,1.9743,1.951,1.9287,1.9115,1.9009,1.8907,1.8894,1.8894,1.8887,1.8846,1.8812,1.8806,1.8806,1.8806,1.8806,1.8806,1.8806,1.8806,1.8778,1.8736,1.8592,1.8503,1.8428,1.8256,1.809,1.8017,1.7994,1.7967,1.7912,1.7921,1.7915,1.7915,1.7915,1.7915,1.7922,1.7929,1.7915,1.7915,1.7915,1.7915,1.7915,1.7915,1.7915,1.7915,1.7915,1.7915,1.7915,1.7915,1.7915,1.7915,1.7915,1.7915,1.7915,1.7915,1.7915,1.7922,1.7915,1.7916,1.7875,1.7902,1.7909,1.7793,1.7752,1.7847,1.7874,1.7833,1.7833,1.786,2.2004,2.1886,2.1723,2.1564,2.1415,2.1392,2.1392,2.1392,2.1392,2.1386,2.1398,2.1226,2.0942,2.0743,2.0869,2.0885,2.082,2.0782,2.0722,2.0652,2.0562,2.0568,2.0705,2.0562,2.0514,2.0508,2.0508,2.0508,2.0528,2.0535,2.0627,2.0745,2.0813,2.0854,2.0983,2.099,2.0899,2.0813,2.0772,2.0675,2.0541,2.0462,2.0458,2.0426,2.0336,2.0202,2.0051,1.9861,1.96,1.9413,1.9242,1.9176,1.9164,1.9164,1.9164,1.9104,1.8968,1.8806,1.8819,1.8804,1.8798,1.8798,1.8806,1.8806,1.8806,1.8806,1.8778,1.8756,1.8626,1.8497,1.8368,1.8268,1.8252,1.8134,1.8002,1.7947,1.7928,1.7907,1.7914,1.7949,1.7969,1.7942,1.7935,1.7929,1.7915,1.7915,1.7915,1.7922,1.7915,1.7915,1.7915,1.7915,1.7915,1.7915,1.7915,1.7915,1.7908,1.7922,1.7922,1.7908,1.7915,1.7922,1.7922,1.7922,1.7929,1.7963,1.7984,1.797,1.7908,1.7895,1.7902,1.7895,1.7901,1.7915,1.7921,2.1913,2.177,2.1604,2.1493,2.1398,2.1392,2.1392,2.1392,2.1385,2.1386,2.1365,2.1188,2.0926,2.0753,2.0839,2.0854,2.0795,2.0705,2.0641,2.0648,2.0548,2.0532,2.0575,2.0541,2.0508,2.0508,2.0521,2.0591,2.0618,2.0689,2.0766,2.0908,2.099,2.1055,2.1116,2.1123,2.1089,2.0994,2.0904,2.0759,2.0668,2.0578,2.0508,2.0501,2.0442,2.034,2.0164,1.9881,1.9688,1.9532,1.942,1.9269,1.9208,1.9196,1.9196,1.9189,1.9109,1.9015,1.8926,1.8847,1.8814,1.8797,1.8791,1.8806,1.8806,1.8806,1.8806,1.8784,1.8716,1.862,1.8516,1.8411,1.8225,1.8097,1.8033,1.811,1.8063,1.794,1.7919,1.7968,1.8023,1.8023,1.8003,1.7969,1.7963,1.7949,1.7929,1.7915,1.7915,1.7915,1.7915,1.7915,1.7915,1.7915,1.7915,1.7915,1.7915,1.7915,1.7915,1.7922,1.7922,1.7914,1.7941,1.8009,1.8077,1.8091,1.8105,1.8016,1.7942,1.7922,1.7915,1.7928,1.7927,1.7947,1.8022,2.1797,2.1621,2.1456,2.1392,2.1392,2.1392,2.1392,2.1392,2.1392,2.1386,2.1312,2.11,2.0895,2.0809,2.0743,2.0709,2.0702,2.0562,2.0521,2.0508,2.0508,2.0514,2.0521,2.0508,2.0508,2.0514,2.0591,2.0689,2.082,2.0895,2.096,2.1039,2.1123,2.1218,2.1242,2.1232,2.1205,2.114,2.0969,2.084,2.0772,2.0661,2.0562,2.0526,2.0492,2.0448,2.0279,2.0061,1.9867,1.9719,1.9639,1.9501,1.9379,1.9381,1.9381,1.9374,1.934,1.9265,1.9099,1.8945,1.8829,1.8807,1.8798,1.8806,1.8806,1.8806,1.875,1.8709,1.8695,1.866,1.8625,1.8462,1.8304,1.8174,1.8097,1.824,1.8348,1.8275,1.8151,1.8103,1.8152,1.8166,1.8132,1.8064,1.801,1.7983,1.7956,1.7928,1.7922,1.7915,1.7922,1.7929,1.7922,1.7942,1.799,1.7976,1.7949,1.7921,1.7921,1.7914,1.7913,1.7967,1.8022,1.8102,1.8245,1.8366,1.8438,1.821,1.7976,1.7996,1.7989,1.7954,1.7953,1.7992,2.0994,2.172,2.1422,2.1408,2.1392,2.1392,2.1392,2.1392,2.1392,2.1392,2.1396,2.1317,2.1011,2.0811,2.0752,2.0618,2.0548,2.0528,2.0514,2.0508,2.0508,2.0508,2.0508,2.0508,2.0508,2.0514,2.0535,2.0639,2.0811,2.0967,2.1062,2.112,2.1188,2.1222,2.1296,2.1327,2.1347,2.13,2.1215,2.1064,2.0929,2.0847,2.0759,2.0668,2.0541,2.0494,2.0433,2.0311,2.0212,2.0106,1.9917,1.9849,1.9788,1.9651,1.9646,1.9646,1.9646,1.9646,1.9564,1.9398,1.913,1.8881,1.8821,1.8791,1.8811,1.8832,1.8805,1.8716,1.8598,1.864,1.8501,1.8485,1.844,1.8404,1.8338,1.8335,1.8501,1.8639,1.8699,1.8567,1.8356,1.8307,1.8335,1.8349,1.8295,1.8179,1.8153,1.7953,1.7912,1.7906,1.7913,1.7942,1.7942,1.7935,1.7983,1.8091,1.8091,1.807,1.8,1.7944,1.793,1.7916,1.7991,1.824,1.8406,1.8586,1.8688,1.8724,1.849,1.8293,1.8145,1.8083,1.8061,1.8155,1.8277,2.4659,2.1631,2.1392,2.1392,2.1392,2.1392,2.1392,2.1392,2.1392,2.1385,2.1299,2.1147,2.0911,2.0723,2.0629,2.0555,2.0508,2.0508,2.0508,2.0508,2.0508,2.0508,2.0508,2.0508,2.0514,2.0508,2.0548,2.0702,2.0867,2.0994,2.114,2.1239,2.1286,2.13,2.1341,2.1395,2.1392,2.1361,2.128,2.115,2.1001,2.1007,2.075,2.0632,2.0705,2.0535,2.0494,2.041,2.0291,2.0221,2.0144,2.0058,1.9976,1.9915,1.9924,1.9924,1.9924,1.9902,1.9842,1.9747,1.9487,1.9296,1.9013,1.8905,1.8831,1.8906,1.8859,1.8784,1.8709,1.8674,1.8569,1.8389,1.858,1.8689,1.8588,1.8633,1.8807,1.8895,1.897,1.8864,1.8587,1.8559,1.8594,1.8566,1.8546,1.8417,1.8295,1.8094,1.7909,1.7916,1.8035,1.8105,1.8153,1.8181,1.8179,1.8274,1.8253,1.8212,1.8127,1.8028,1.8007,1.8055,1.8412,1.8614,1.8774,1.8855,1.8939,1.8908,1.877,1.859,1.8388,1.8279,1.8208,1.8351,1.855,2.6128,2.1584,2.1398,2.1392,2.1392,2.1392,2.1392,2.1392,2.1392,2.1392,2.1273,2.1045,2.0917,2.0761,2.0607,2.0505,2.0508,2.0528,2.0555,2.0541,2.0541,2.0555,2.0557,2.0535,2.0578,2.0618,2.0639,2.0795,2.1003,2.1082,2.1211,2.131,2.1368,2.1385,2.1385,2.1385,2.1392,2.1392,2.1341,2.1262,2.1129,2.114,2.0883,2.0666,2.0766,2.0605,2.0514,2.0465,2.0381,2.0313,2.027,2.0205,2.0146,2.0112,2.0114,2.0114,2.0098,2.0076,2.0051,2.0009,1.9812,1.9604,1.9366,1.9225,1.9134,1.9041,1.8967,1.8947,1.8851,1.8844,1.8757,1.8474,1.86,1.8936,1.8893,1.9079,1.9233,1.9183,1.9192,1.9008,1.8809,1.8817,1.8805,1.8764,1.873,1.8623,1.8537,1.8464,1.8205,1.7952,1.8134,1.8428,1.8476,1.8495,1.8506,1.8504,1.8544,1.8565,1.8476,1.8362,1.8206,1.8304,1.8644,1.8824,1.8836,1.8928,1.9102,1.9199,1.9227,1.8946,1.8598,1.8477,1.834,1.8624,1.9682,2.6406,2.1577,2.1408,2.1392,2.1392,2.1392,2.1392,2.1392,2.1392,2.1385,2.1313,2.1177,2.1045,2.0926,2.0772,2.0609,2.0568,2.0625,2.0716,2.0716,2.0639,2.0682,2.0661,2.0661,2.0682,2.0759,2.0838,2.0987,2.1136,2.119,2.1293,2.1381,2.1401,2.1392,2.1392,2.1392,2.1392,2.1392,2.1385,2.1374,2.1296,2.1201,2.0995,2.0858,2.0797,2.0618,2.0514,2.0494,2.0487,2.0404,2.0345,2.0318,2.0259,2.0171,2.0173,2.0159,2.0153,2.0084,2.0094,2.0164,1.9882,1.9745,1.9688,1.9578,1.951,1.9298,1.9191,1.9123,1.9021,1.8986,1.8935,1.8744,1.8639,1.9013,1.9294,1.946,1.9502,1.9445,1.9391,1.922,1.9032,1.9006,1.8994,1.894,1.8879,1.8801,1.8759,1.8779,1.8567,1.8216,1.8285,1.8645,1.8906,1.8945,1.8849,1.8867,1.8905,1.8905,1.8824,1.9133,1.9481,1.9012,1.8807,1.8906,1.8909,1.9122,1.9399,1.9616,1.9788,2.0171,2.0526,1.8889,1.8544,1.8834,2.0841,2.6856,2.1472,2.1392,2.1392,2.1392,2.1392,2.1392,2.1392,2.1392,2.1378,2.132,2.1204,2.1062,2.098,2.0885,2.079,2.072,2.0831,2.0865,2.0849,2.0838,2.0827,2.0824,2.0817,2.082,2.0854,2.0953,2.1123,2.1224,2.1211,2.1334,2.1378,2.1392,2.1392,2.1392,2.1392,2.1392,2.1392,2.1365,2.132,2.1276,2.1273,2.1039,2.0895,2.0908,2.0636,2.0514,2.0508,2.0508,2.0474,2.0426,2.0419,2.0386,2.0354,2.0347,2.0354,2.0361,2.0336,2.0343,2.038,2.0249,2.0149,2.0034,1.9935,1.9839,1.9584,1.94,1.9291,1.9189,1.9197,1.9169,1.915,1.9029,1.9257,1.9522,1.966,1.9659,1.9614,1.9578,1.9476,1.9269,1.9175,1.9094,1.9027,1.8926,1.884,1.8909,1.8923,1.8913,1.8633,1.8655,1.8877,1.9287,1.9422,1.9302,1.9225,1.9214,1.9156,1.9069,2.0423,2.1959,2.1176,2.0445,1.9402,1.962,1.9671,1.9731,2.005,2.0664,2.2404,2.2596,2.1383,2.1784,2.3448,2.3924,2.5459,2.1392,2.1392,2.1392,2.1392,2.1392,2.1392,2.1392,2.1392,2.1385,2.1347,2.1262,2.1143,2.1075,2.1028,2.0956,2.0847,2.0949,2.098,2.0956,2.0949,2.0924,2.0922,2.0949,2.0976,2.1007,2.1102,2.1188,2.1283,2.1289,2.1361,2.1401,2.1392,2.1392,2.1392,2.1392,2.1392,2.1385,2.1365,2.1334,2.1286,2.1219,2.1059,2.0901,2.0831,2.0679,2.0508,2.0508,2.0508,2.0508,2.0508,2.0508,2.0508,2.0508,2.0508,2.0508,2.0508,2.0494,2.0485,2.0485,2.0487,2.036,2.0276,2.0246,2.0101,1.9899,1.9739,1.9664,1.9563,1.9469,1.9513,1.9577,1.9475,1.9461,1.9714,1.9707,1.9712,1.9705,1.9662,1.964,1.944,1.9303,1.9208,1.9106,1.8967,1.8854,1.8964,1.9067,1.906,1.9076,1.9095,1.9134,1.9453,1.9699,1.9547,1.9441,1.9431,1.9374,1.9306,2.136,2.3876,2.4791,2.4219,2.2265,2.0193,1.9922,1.9912,2.0564,2.16,2.3735,2.4839,2.4627,2.577,2.8053,2.9011,2.941,2.1392,2.1392,2.1392,2.1392,2.1392,2.1392,2.1392,2.1392,2.1392,2.1392,2.1371,2.1235,2.1154,2.1154,2.1055,2.0956,2.0922,2.1001,2.098,2.0942,2.098,2.1021,2.1075,2.1113,2.1163,2.1245,2.1316,2.1354,2.1395,2.1401,2.1385,2.1392,2.1392,2.1392,2.1392,2.1392,2.1392,2.1371,2.1365,2.1327,2.1239,2.1095,2.0956,2.0831,2.0652,2.0528,2.0508,2.0508,2.0508,2.0508,2.0508,2.0508,2.0508,2.0508,2.0508,2.0508,2.0508,2.051,2.0499,2.0509,2.0507,2.0433,2.0456,2.0331,2.0178,2.0037,1.9969,1.9915,1.9856,1.9944,2.0003,1.9832,1.9674,1.9735,1.9715,1.9723,1.9711,1.9703,1.9703,1.96,1.9461,1.9329,1.9198,1.9053,1.8989,1.9108,1.9261,1.9434,1.9437,1.9473,1.9505,1.9533,1.9704,1.9709,1.9655,1.9586,2.0578,2.0815,2.3383,2.5733,2.6788,2.7416,2.5445,2.3165,2.0671,2.0406,2.2199,2.3847,2.5531,2.6515,2.8719,2.9718,3.1992,3.5493,3.6684,2.1392,2.1392,2.1392,2.1392,2.1392,2.1392,2.1392,2.1392,2.1392,2.1385,2.1388,2.117,2.1133,2.1158,2.1045,2.1032,2.1106,2.1201,2.1255,2.1222,2.112,2.1201,2.1235,2.1242,2.1276,2.1337,2.1381,2.1398,2.1415,2.1408,2.1392,2.1392,2.1392,2.1392,2.1392,2.1392,2.1392,2.1392,2.1392,2.1361,2.1252,2.11,2.0994,2.0858,2.0659,2.0555,2.0528,2.0528,2.0528,2.0521,2.0514,2.0508,2.0508,2.0508,2.0508,2.0508,2.0508,2.0508,2.0501,2.0505,2.0514,2.051,2.0501,2.0417,2.0309,2.0239,2.0205,2.0166,2.0114,2.0119,2.0123,2.0016,1.9868,1.9803,1.9771,1.9705,1.9722,1.9722,1.9715,1.9676,1.9529,1.9459,1.9328,1.9236,1.92,1.9305,1.9453,1.9666,1.9741,1.974,1.9709,1.9716,1.9715,1.9707,1.9717,1.9662,2.1246,2.2761,2.5247,2.7439,2.8767,2.8991,2.7971,2.5654,2.2344,2.2811,2.4924,2.672,2.8826,3.2399,3.467,3.5073,3.6068,3.8698,4.0457,2.1392,2.1392,2.1392,2.1392,2.1392,2.1392,2.1392,2.1392,2.1392,2.1381,2.1307,2.1222,2.1174,2.1194,2.1174,2.1174,2.1204,2.1235,2.1283,2.1255,2.1232,2.1286,2.1313,2.135,2.1414,2.1445,2.1466,2.1442,2.1456,2.1422,2.1392,2.1392,2.1392,2.1392,2.1392,2.1392,2.1392,2.1392,2.1378,2.1368,2.1252,2.1113,2.1014,2.0899,2.0686,2.0655,2.0618,2.0602,2.0618,2.0598,2.0584,2.0508,2.0508,2.0508,2.0508,2.0508,2.0508,2.0508,2.0508,2.0508,2.0508,2.0508,2.0508,2.046,2.0435,2.0388,2.0354,2.0307,2.0239,2.0193,2.0179,2.0149,2.001,1.9894,1.981,1.9717,1.9725,1.971,1.9713,1.9688,1.9634,1.9571,1.949,1.9411,1.9426,1.9549,1.9764,2.0037,1.9989,1.984,1.9761,1.9713,1.9708,1.9722,1.9764,2.0208,2.1933,2.3999,2.6739,2.8797,3.0452,3.0996,3.0361,2.7277,2.3444,2.4841,2.6834,3.022,3.2905,3.6018,3.7991,3.8113,3.806,3.916,4.0386,2.1392,2.1392,2.1392,2.1392,2.1392,2.1392,2.1392,2.1392,2.1392,2.135,2.1252,2.132,2.1273,2.1215,2.1228,2.1208,2.1188,2.1201,2.1235,2.1208,2.1255,2.1307,2.1374,2.1422,2.1496,2.155,2.1564,2.1513,2.1547,2.1483,2.1392,2.1392,2.1392,2.1392,2.1392,2.1392,2.1392,2.1392,2.1378,2.1351,2.1232,2.1086,2.0969,2.0897,2.0843,2.0822,2.0806,2.0806,2.0822,2.0759,2.0689,2.0582,2.0564,2.0582,2.0582,2.0519,2.051,2.0519,2.0505,2.0508,2.0508,2.0508,2.0508,2.0494,2.0474,2.0467,2.0426,2.0413,2.0352,2.0338,2.0338,2.0271,2.0152,1.9987,1.9844,1.9895,1.9992,1.9938,1.9846,1.9836,1.9824,1.9761,1.9683,1.9603,1.9614,1.9785,2.0026,2.0321,2.0291,2.0046,1.9938,1.9852,1.9827,1.9929,2.021,2.0939,2.2747,2.5056,2.8097,3.1035,3.3333,3.3417,3.2895,2.836,2.3792,2.6356,2.8754,3.2031,3.477,3.6781,3.8588,3.993,4.0426,4.0354,4.0371,2.1392,2.1392,2.1392,2.1392,2.1385,2.1392,2.1392,2.1392,2.1392,2.1365,2.1341,2.1273,2.1205,2.1174,2.114,2.1106,2.1093,2.1188,2.1211,2.1249,2.1286,2.1334,2.1422,2.1506,2.1547,2.1536,2.1543,2.1577,2.1493,2.1429,2.1392,2.1392,2.1392,2.1392,2.1392,2.1392,2.1392,2.1392,2.1378,2.1371,2.132,2.1235,2.1129,2.1062,2.1028,2.0969,2.0946,2.0962,2.0962,2.0926,2.0903,2.0838,2.0745,2.0817,2.0734,2.0566,2.0523,2.0511,2.0503,2.0508,2.0508,2.0508,2.0508,2.0508,2.0508,2.0508,2.0501,2.0478,2.0478,2.0478,2.0447,2.0369,2.0278,2.0088,1.9914,2.008,2.0222,2.012,2.0017,1.9997,1.9999,1.9936,1.9851,1.983,1.9849,2.0012,2.0247,2.0459,2.0455,2.0329,2.0295,2.0193,2.0064,2.0179,2.0457,2.206,2.4081,2.6916,3.0107,3.3105,3.604,3.1262,2.7245,2.6333,2.4613,2.7639,3.0675,3.3482,3.599,3.7933,3.9025,4.032,4.0546,4.0474,4.0464,2.1307,2.1313,2.1381,2.1368,2.1327,2.1374,2.1392,2.1392,2.1392,2.1392,2.1365,2.1262,2.115,2.1089,2.1055,2.1072,2.1116,2.1235,2.1296,2.1327,2.1341,2.1365,2.1456,2.154,2.1638,2.1631,2.1702,2.1679,2.1442,2.1392,2.1392,2.1392,2.1392,2.1392,2.1392,2.1392,2.1392,2.1392,2.1392,2.1392,2.1388,2.1296,2.1218,2.1161,2.1133,2.1095,2.1095,2.1112,2.1095,2.1062,2.1011,2.0899,2.0827,2.0833,2.079,2.0663,2.0568,2.0516,2.0503,2.0508,2.0508,2.0508,2.0508,2.0508,2.0508,2.0508,2.0508,2.0501,2.0501,2.0501,2.0451,2.037,2.038,2.0277,2.0116,2.0122,2.0217,2.0205,2.0123,2.0058,2.006,2.0037,1.9962,1.9927,1.9961,2.004,2.032,2.0482,2.0499,2.0508,2.051,2.0484,2.031,2.0201,2.033,2.2697,2.5734,2.8779,3.1931,3.4905,3.6367,2.7157,2.1101,2.2564,2.5407,2.9889,3.2837,3.5599,3.7488,3.937,4.0079,4.0664,4.0649,4.063,4.0592,2.1189,2.1222,2.1341,2.132,2.1235,2.1341,2.1392,2.1392,2.1392,2.1388,2.1341,2.1222,2.1034,2.1044,2.1085,2.1157,2.1231,2.1262,2.1327,2.1354,2.1388,2.1385,2.1429,2.1499,2.1672,2.1747,2.1784,2.1631,2.1398,2.1392,2.1392,2.1392,2.1405,2.1412,2.1398,2.1412,2.1449,2.1398,2.1392,2.1392,2.1354,2.1303,2.1262,2.1235,2.1228,2.1222,2.1222,2.1238,2.1238,2.1211,2.114,2.1034,2.0956,2.0929,2.084,2.0747,2.0636,2.0566,2.0505,2.0508,2.0508,2.0508,2.0508,2.0508,2.0508,2.0514,2.0514,2.0514,2.0514,2.0501,2.0451,2.0433,2.0451,2.0442,2.0309,2.0201,2.0257,2.0303,2.0238,2.0166,2.0166,2.0144,2.0108,2.0064,2.0102,2.0165,2.0259,2.0406,2.0508,2.0508,2.0508,2.0508,2.0444,2.036,2.0318,2.3982,2.7662,3.0123,3.3209,3.6399,3.6204,2.7246,2.1955,2.2003,2.5344,3.2371,3.5538,3.7928,3.96,4.0571,4.0758,4.0931,4.0927,4.0875,4.075,2.1154,2.1224,2.1341,2.1337,2.1235,2.1341,2.1392,2.1392,2.1385,2.1341,2.1249,2.1143,2.1102,2.1266,2.1211,2.1204,2.119,2.1242,2.1242,2.1242,2.1377,2.1395,2.1456,2.1581,2.1794,2.1787,2.1679,2.1476,2.1405,2.1398,2.1398,2.1405,2.1597,2.1577,2.1449,2.1476,2.1554,2.1499,2.1422,2.1408,2.1422,2.1381,2.1374,2.1361,2.1361,2.1368,2.1368,2.1361,2.1361,2.1371,2.133,2.1205,2.1113,2.1057,2.0969,2.0833,2.0722,2.0596,2.0541,2.0514,2.0508,2.0508,2.0508,2.0508,2.0514,2.0528,2.0535,2.0541,2.0541,2.0535,2.0508,2.0487,2.0494,2.0494,2.0408,2.0392,2.0429,2.0438,2.0401,2.0388,2.0388,2.0347,2.027,2.0253,2.0246,2.0318,2.0347,2.0471,2.0508,2.0508,2.0508,2.0503,2.0514,2.0528,2.0664,2.6059,2.985,3.2079,3.4502,3.7711,3.5978,2.7575,2.355,2.2206,2.9231,3.7676,3.9951,3.9769,4.0291,4.0958,4.1105,4.1223,4.1205,4.1239,4.1203]}]]